GFSGL_700_rhum_000.txt.gz
RH
36 37 39 40 39 40 41 42 40 38 37 40 48 54 57 60 62 62 61 60 56 56 57 60 62 59 51 48 46 45 52 47 58 44 53 52 47 48 65 94 76 74 72
46 47 45 43 41 40 39 38 45 49 48 47 43 39 39 46 53 62 66 67 68 68 66 66 73 73 72 76 87 83 90 89 58 49 58 56 52 54 76 97 99 81 82
57 53 47 43 42 40 38 35 33 33 40 38 35 37 37 40 49 53 54 55 58 62 70 70 65 65 67 78 77 79 68 68 69 72 62 63 78 71 74 98 99 95 93
52 50 50 48 46 44 42 40 39 38 36 34 32 29 28 28 28 27 38 42 42 54 60 65 71 74 76 71 55 64 66 67 76 84 80 71 79 84 88 99 97 95 99
56 55 54 51 48 47 45 45 46 47 45 43 40 38 36 32 27 33 38 40 42 41 44 61 71 76 75 78 66 61 75 77 96 93 85 96 89 93 91 98 99 99 98
67 68 62 55 52 48 44 41 39 37 36 35 35 36 37 38 38 38 41 40 38 42 48 52 67 81 86 88 78 64 65 79 99 99 98 90 94 98 99 98 99 99 99
66 61 58 54 50 46 42 38 35 31 28 28 31 34 38 42 46 48 47 46 44 47 46 50 63 66 76 93 92 81 63 64 93 98 94 98 92 96 100 98 99 99 99
64 58 52 47 43 37 29 20 14 10 12 14 21 30 38 47 54 61 59 59 53 48 48 48 49 59 69 87 99 93 82 65 71 84 89 97 89 100 99 99 99 99 98
56 48 36 19 7 1 0 0 0 1 4 10 19 32 47 60 65 64 64 61 60 55 49 44 44 46 57 59 66 88 89 81 77 85 96 97 98 97 99 99 98 99 98
30 12 4 3 3 4 3 3 3 2 2 2 5 21 45 58 69 80 88 78 66 64 55 46 44 46 46 56 74 84 88 86 82 84 93 92 96 98 99 99 97 96 99
7 6 6 6 6 5 5 4 4 4 5 5 5 7 14 41 64 77 90 89 82 73 63 51 46 49 56 56 78 92 91 99 96 98 92 93 97 98 99 99 99 99 98
8 9 9 8 8 7 6 5 5 4 4 5 8 10 11 13 28 57 81 96 92 82 68 55 53 61 61 64 83 91 100 98 84 90 95 96 99 97 99 99 99 99 99
12 12 11 11 10 8 7 6 5 6 8 7 7 8 10 11 14 17 41 67 88 84 71 58 55 70 77 73 90 86 100 84 97 96 99 92 99 99 98 98 99 99 99
16 16 15 13 11 9 8 9 10 11 12 14 13 11 10 11 13 17 18 33 64 80 72 58 54 64 82 93 91 100 100 98 96 98 99 99 99 100 98 99 99 99 98
19 18 15 13 12 11 11 12 13 15 20 22 21 20 19 16 14 18 18 22 38 77 80 71 61 64 67 90 95 99 98 96 94 99 98 99 99 99 99 98 99 98 97
21 18 15 15 14 14 14 13 15 20 23 25 27 27 23 20 20 16 16 21 29 59 82 73 69 89 89 87 95 99 98 96 95 98 98 98 98 98 99 99 98 98 92
21 18 17 16 16 16 16 18 20 18 24 28 29 30 28 24 18 15 16 18 25 39 66 69 72 90 94 94 95 97 98 99 98 99 98 98 98 98 99 98 98 97 93
22 19 18 16 17 18 19 20 23 27 28 24 27 32 32 28 21 16 16 17 20 30 42 60 60 84 95 96 96 97 98 98 98 98 97 99 97 97 97 98 97 98 74
21 19 17 17 18 21 25 29 32 34 35 35 32 30 35 31 24 19 16 17 16 24 33 46 48 67 95 96 96 97 98 98 98 98 97 97 97 96 97 97 100 61 11
20 18 19 24 26 29 34 38 40 40 39 39 37 36 37 35 30 20 15 15 14 19 24 33 42 52 94 95 96 96 96 97 98 97 96 97 97 97 98 100 52 10 15
19 18 21 26 32 36 40 43 44 43 42 41 39 41 43 45 40 33 18 15 12 14 18 25 38 44 79 95 96 96 96 97 97 97 97 97 97 97 100 52 10 16 11
21 25 28 33 40 44 47 46 46 48 48 47 44 44 46 45 46 41 27 18 12 12 14 21 32 39 76 95 96 96 97 97 97 96 96 97 97 98 65 10 16 11 23
28 31 35 40 48 51 52 51 51 53 54 54 53 49 49 46 46 44 34 22 13 11 12 18 28 35 79 95 96 96 96 97 96 96 97 97 97 52 10 17 10 23 33
32 36 42 49 57 58 58 58 56 57 60 60 58 55 52 50 49 46 40 25 14 13 12 17 24 41 87 95 96 96 96 97 95 97 97 97 45 10 18 10 24 34 37
37 44 56 62 62 60 59 59 62 64 65 63 59 56 53 53 52 48 43 29 17 14 12 17 22 52 97 95 96 96 96 96 97 96 97 70 11 17 10 24 34 35 36
53 64 66 65 63 63 67 68 68 71 73 69 64 58 54 55 56 50 44 32 20 16 12 17 24 70 95 95 96 96 96 96 96 96 89 12 17 12 20 33 34 35 33

GFSGL_700_rhum_003.txt.gz
RH
46 48 50 51 50 48 45 42 41 39 37 34 32 31 35 39 38 38 37 37 47 56 65 71 71 70 70 74 77 78 81 85 92 84 84 85 77 81 65 57 54 53 78
56 58 60 59 56 53 51 50 48 46 43 40 36 34 33 34 34 30 27 28 27 31 46 54 56 59 61 63 66 71 75 78 86 79 76 78 79 80 80 57 57 62 65
63 66 66 63 56 56 56 54 51 48 44 40 36 34 34 35 34 33 34 30 24 23 24 26 28 39 46 62 72 76 78 81 85 90 80 81 84 97 99 75 71 74 78
66 66 65 62 64 62 56 52 48 45 41 37 33 30 28 26 27 28 30 32 32 30 28 28 30 35 42 47 61 76 83 87 84 86 92 80 90 93 96 97 79 76 85
71 76 75 76 70 60 54 49 44 39 30 19 9 6 7 12 18 30 36 35 34 32 33 35 38 38 37 45 63 63 75 82 82 82 86 89 90 100 80 99 97 94 96
82 77 71 67 60 52 43 29 13 2 0 0 0 0 0 0 1 15 41 37 46 42 46 46 48 47 45 45 48 65 73 88 96 91 84 85 82 87 94 99 84 99 99
79 75 70 57 40 18 7 5 5 5 4 4 3 2 2 1 1 21 55 56 44 62 66 64 56 57 56 52 46 45 55 65 82 98 96 90 86 83 98 98 81 90 99
81 76 57 26 12 10 9 8 7 7 6 6 5 4 3 3 6 24 74 82 62 78 91 88 77 66 65 58 49 42 39 40 54 62 61 70 80 90 91 90 98 98 99
82 61 25 12 12 11 10 10 10 9 8 7 6 5 4 4 10 18 34 39 61 79 83 92 91 80 76 67 59 48 41 38 46 56 64 70 77 100 97 98 93 98 98
52 19 12 12 13 13 14 14 12 11 9 8 7 6 5 5 7 10 19 27 34 54 76 85 90 90 79 69 62 53 44 40 41 44 56 82 76 97 97 99 95 98 99
14 11 14 16 17 18 18 16 14 12 12 10 9 7 7 8 9 9 11 17 24 30 39 61 80 92 83 72 63 62 60 54 46 50 60 91 100 90 100 97 99 99 99
11 15 18 21 22 22 21 18 16 15 14 11 9 8 8 10 11 12 10 12 19 27 28 35 61 87 86 73 62 70 73 75 83 70 71 81 100 94 99 99 99 99 99
14 16 21 25 25 26 24 20 18 16 13 11 10 11 12 14 15 16 14 12 17 22 25 28 47 81 86 69 65 67 80 92 92 96 99 98 100 97 98 98 98 98 98
14 19 27 29 29 30 26 21 18 15 12 11 12 16 22 22 21 21 16 13 13 18 20 22 40 74 84 71 76 85 81 85 93 99 96 100 98 97 98 98 98 98 98
21 32 35 34 33 32 25 20 16 13 13 15 19 26 32 30 28 32 38 27 16 16 19 20 32 55 74 67 80 89 88 81 90 98 97 100 98 97 98 98 98 98 98
41 41 38 37 35 28 22 18 14 13 15 19 25 35 34 35 35 36 32 23 18 16 16 21 26 39 58 56 82 88 89 88 95 97 100 97 97 98 97 98 97 97 97
48 45 43 39 29 22 17 15 15 14 18 25 32 34 35 37 36 39 39 29 22 17 17 18 22 31 44 43 86 95 92 96 98 98 97 97 97 97 97 96 97 97 97
51 48 42 33 26 20 17 18 24 29 29 26 31 36 35 36 39 40 45 33 24 19 16 17 20 25 35 38 89 94 95 96 96 96 97 97 97 97 96 97 97 97 96
55 49 37 30 24 22 25 29 35 40 42 41 37 36 39 38 40 42 46 47 34 19 16 16 16 20 31 36 93 95 96 96 96 97 97 96 97 96 97 97 97 79 20
51 40 33 30 24 26 30 35 41 49 49 46 43 43 42 41 38 41 45 45 41 21 16 15 14 18 28 35 88 96 96 95 96 97 97 96 96 96 97 97 45 17 14
43 36 34 28 28 31 33 42 51 53 52 50 50 50 52 55 48 50 51 49 45 24 17 14 13 19 26 41 93 96 96 96 95 96 96 96 96 97 97 29 17 10 21
38 37 30 30 33 36 43 52 58 61 59 56 54 53 53 52 52 55 56 51 46 28 23 15 14 20 23 53 96 96 95 96 96 96 96 96 96 91 22 17 12 27 37
35 30 31 35 39 47 56 62 62 63 63 61 62 60 57 55 55 56 58 51 44 30 26 16 15 20 25 76 97 96 96 96 96 96 96 97 79 21 16 15 30 38 37
29 32 36 43 53 62 67 68 67 67 68 71 74 71 65 61 57 58 60 51 43 36 26 15 16 20 32 90 96 96 96 96 96 96 96 55 20 15 17 34 40 38 43
36 41 50 60 65 64 65 67 70 76 79 86 85 80 74 69 63 60 59 50 44 38 23 16 18 19 50 95 95 96 96 96 96 96 35 18 15 19 35 39 38 44 48
49 58 64 66 66 66 70 76 82 90 93 92 92 87 81 76 68 61 57 51 47 36 20 16 19 22 75 96 96 96 96 96 96 31 17 15 20 35 38 38 42 46 62

GFSGL_700_rhum_006.txt.gz
RH
54 55 57 60 61 62 61 58 56 56 54 51 48 46 44 42 39 36 35 36 35 32 30 27 25 26 27 32 47 57 60 67 74 56 74 77 80 73 74 79 76 74 82
60 62 61 62 64 66 65 62 59 58 56 51 47 44 42 39 36 33 31 31 35 35 33 32 30 30 28 27 32 40 48 58 74 69 48 52 67 72 69 73 71 79 80
65 66 69 71 70 68 62 58 57 54 51 47 43 38 32 21 14 14 18 20 22 21 24 27 27 29 31 35 38 36 35 36 44 57 46 52 59 68 75 73 73 77 85
73 73 73 78 76 72 64 61 57 50 42 30 16 8 4 2 1 0 0 3 3 5 14 23 25 30 36 38 44 42 44 47 47 61 71 64 70 65 72 75 72 72 74
82 82 82 76 74 68 63 57 44 26 15 11 9 8 7 6 5 4 4 3 3 2 2 4 9 29 45 54 58 50 54 55 46 55 64 92 97 98 93 81 80 86 82
91 89 80 78 74 71 53 29 16 13 11 10 10 9 8 7 6 5 5 5 4 4 5 6 6 17 48 59 66 69 68 64 57 54 51 50 56 68 96 95 96 93 85
91 88 84 81 74 50 26 15 12 12 12 12 12 10 9 8 8 7 6 5 7 8 12 15 17 35 52 87 83 76 70 69 66 59 53 46 47 49 72 85 83 79 91
89 84 82 75 51 25 13 13 15 15 16 16 15 14 12 10 9 8 7 6 7 9 12 17 33 39 52 100 90 84 81 74 68 61 54 47 50 45 53 62 97 90 88
90 85 65 34 15 12 14 16 19 20 21 21 20 17 15 12 11 9 9 8 8 9 9 9 19 26 33 72 94 90 84 78 73 62 52 46 47 53 67 99 93 100 96
83 56 22 10 13 14 14 19 24 27 27 27 24 20 16 14 11 10 13 13 13 13 11 9 11 17 25 32 65 92 89 85 75 60 48 44 56 59 74 100 92 98 99
43 14 9 12 12 13 17 28 31 31 31 30 26 21 17 14 11 14 18 21 20 17 13 12 11 15 22 26 42 89 95 94 79 68 64 60 61 55 67 76 96 98 98
23 8 11 11 12 21 32 36 37 36 34 29 22 18 15 12 13 17 24 28 26 21 17 14 14 17 22 25 37 79 96 92 89 79 76 69 90 91 98 100 93 99 98
8 10 11 12 28 41 42 42 41 38 29 23 18 15 13 12 15 21 29 31 28 27 22 16 14 15 20 24 38 78 95 88 92 92 88 84 99 99 100 96 98 98 98
10 12 20 39 45 45 45 45 42 31 23 19 16 17 18 21 26 33 36 32 31 30 24 17 13 13 17 24 38 81 79 92 98 95 88 82 97 97 98 97 98 97 97
20 38 46 46 46 46 48 45 36 29 22 21 22 27 32 31 34 40 42 43 48 36 32 23 14 13 15 23 36 70 48 93 96 97 94 98 100 97 97 97 97 96 96
46 44 47 51 50 52 48 42 34 27 22 25 29 36 37 44 42 42 42 51 41 41 36 27 15 14 16 21 32 40 48 94 96 97 98 97 97 97 96 97 96 96 96
47 48 52 54 54 50 42 35 29 23 22 26 32 38 44 45 43 42 52 62 44 45 42 31 18 16 16 19 27 32 59 96 96 96 96 96 97 97 96 96 96 96 97
50 54 55 53 49 42 36 32 26 24 25 26 31 42 47 46 44 46 56 47 44 42 40 32 20 17 15 17 26 33 72 96 95 96 96 96 96 96 96 96 96 97 97
51 51 50 44 39 37 34 28 27 31 33 35 39 42 46 44 43 46 49 51 48 41 36 34 23 17 14 18 26 40 93 96 96 96 96 96 96 96 96 96 96 96 80
49 45 41 40 39 33 29 30 33 37 43 49 50 51 49 44 40 43 48 49 49 45 40 38 24 16 14 21 24 58 96 95 95 96 96 96 96 96 96 96 94 33 15
37 39 42 37 30 29 32 35 40 48 56 61 60 57 56 58 51 52 51 48 50 46 44 40 23 14 14 22 30 86 96 96 95 96 96 96 96 96 87 22 17 14 31
35 27 25 28 31 34 38 43 55 65 65 63 61 59 61 61 62 60 54 50 50 46 47 40 21 15 16 21 54 95 96 96 96 96 96 96 93 28 18 14 29 44 45
21 25 28 31 33 39 48 56 61 65 65 64 67 71 73 72 69 69 61 52 48 46 48 37 20 15 19 24 94 96 96 96 96 96 96 83 23 15 22 41 46 47 55
26 27 29 34 45 56 63 64 66 68 70 74 76 82 85 82 79 75 64 53 50 49 48 31 21 16 19 57 96 96 96 96 96 96 62 21 14 33 45 47 51 58 78
27 35 46 54 57 60 63 65 68 72 77 82 87 92 89 87 84 76 64 55 52 48 42 30 20 16 21 94 96 96 96 96 96 51 19 16 38 46 46 54 67 66 46
36 48 55 57 58 63 66 71 76 80 84 86 92 93 89 88 82 73 64 57 53 47 39 27 17 18 60 96 96 96 96 96 47 20 18 38 43 48 58 72 68 56 23

GFSGL_700_rhum_009.txt.gz
RH
63 67 70 69 68 69 68 67 63 62 60 56 54 54 52 49 45 41 36 30 27 26 26 27 28 32 34 36 38 40 40 42 45 29 32 32 35 38 42 58 65 65 67
67 66 67 71 76 80 77 68 63 63 62 59 54 48 39 27 16 9 7 5 3 1 0 0 3 9 13 18 21 26 35 42 55 48 30 33 32 30 30 35 66 69 74
73 71 72 73 74 74 71 68 68 66 62 55 43 31 22 16 13 10 8 8 7 6 5 4 4 2 2 3 5 5 13 21 36 60 51 35 36 36 40 45 65 75 67
76 71 68 66 58 60 69 71 69 67 59 44 25 15 13 12 12 11 10 9 8 7 6 5 5 4 4 4 5 5 7 14 28 50 56 45 42 38 49 50 47 78 100
79 83 70 62 68 73 73 73 69 53 33 17 13 14 14 14 14 13 12 10 9 8 7 6 6 5 6 6 10 8 22 42 47 72 73 66 51 47 57 53 52 48 44
81 87 69 70 78 81 82 67 44 22 13 13 12 12 14 17 20 19 18 15 13 11 9 8 6 6 6 6 6 11 51 99 95 97 91 90 75 76 66 59 54 51 42
94 70 80 85 88 84 62 34 16 12 11 9 13 20 23 24 24 23 22 19 16 13 11 10 8 8 7 8 7 6 10 33 66 96 92 88 83 83 74 64 57 51 44
68 84 90 92 87 58 30 12 11 9 8 13 21 28 28 28 29 28 23 19 16 13 11 11 11 11 11 12 10 9 8 14 26 57 81 93 93 93 76 65 57 52 45
90 96 96 86 49 19 11 10 9 8 13 26 31 30 32 33 33 27 19 17 14 12 12 14 16 16 15 14 13 11 12 17 25 32 52 79 91 94 76 70 65 75 56
91 97 90 51 24 14 10 9 10 24 32 32 28 34 37 36 30 22 17 14 14 17 20 17 18 23 20 18 14 16 36 37 30 27 50 71 83 93 75 85 97 100 88
99 88 59 19 9 9 10 19 31 32 30 34 35 37 36 30 24 19 16 19 23 46 27 31 30 26 25 20 15 18 24 29 30 57 68 78 84 90 83 80 98 100 98
75 30 10 9 11 18 31 34 31 35 40 40 39 36 30 24 19 17 22 29 37 47 37 33 29 32 31 22 16 18 24 30 41 53 86 89 96 94 95 94 100 99 97
14 10 12 14 31 39 30 30 36 40 43 41 36 28 22 19 18 23 30 32 32 35 37 31 34 36 32 24 18 20 24 30 34 84 94 96 95 92 93 90 100 98 98
12 13 26 42 41 29 32 37 41 45 42 35 28 24 21 21 26 34 36 39 38 42 37 31 37 38 40 28 18 20 23 30 80 84 93 96 94 96 98 100 99 97 96
21 43 48 45 34 31 32 35 40 37 35 32 28 25 26 28 37 46 50 46 49 100 52 38 36 41 37 24 17 19 23 40 70 81 96 96 94 97 100 97 97 96 96
51 52 43 33 31 31 30 28 32 33 31 27 27 31 32 39 43 48 47 46 48 51 42 42 44 46 42 24 17 17 21 32 56 95 96 95 95 96 96 96 96 96 95
50 36 30 32 30 31 30 31 28 22 22 24 30 34 38 42 48 48 47 47 44 47 45 44 49 46 41 24 20 18 22 34 90 96 95 96 95 96 96 96 96 96 96
34 35 34 30 28 30 26 20 20 22 23 27 30 35 43 48 50 48 48 46 43 41 43 47 50 47 40 24 20 20 24 62 96 96 96 96 96 96 96 96 96 95 96
33 29 26 26 21 18 19 20 24 27 30 33 37 44 50 50 50 49 51 53 51 44 43 50 52 47 38 24 21 22 40 95 96 96 96 96 96 96 96 96 96 96 94
26 28 24 16 17 20 23 25 27 30 37 44 49 51 51 53 51 52 56 59 56 53 53 52 50 46 34 22 20 23 85 96 96 96 96 97 96 96 96 96 94 44 19
26 19 16 18 22 23 24 29 36 43 49 54 57 55 57 62 62 64 67 66 63 59 55 53 47 44 27 21 23 43 96 96 96 96 96 96 96 95 68 27 16 28 50
18 16 18 22 24 26 31 40 49 57 59 58 57 56 59 67 72 74 74 72 68 63 56 53 47 38 25 23 26 94 96 96 96 96 96 94 48 21 21 42 51 52 57
16 20 22 23 28 35 44 49 51 55 57 60 63 65 69 76 79 78 77 73 70 60 57 53 46 30 23 26 74 96 96 96 96 96 85 25 20 42 50 55 64 70 80
21 22 23 28 38 48 51 51 52 57 61 68 71 74 80 83 82 80 78 74 65 59 58 50 41 25 23 42 96 96 96 96 96 80 23 28 49 56 65 68 64 35 26
25 26 29 38 46 51 51 53 56 62 68 75 78 83 86 85 83 80 76 68 61 57 53 47 32 22 29 95 96 96 96 96 62 22 34 50 57 67 70 52 31 20 27
28 30 34 43 52 55 55 58 61 67 73 75 82 85 85 82 80 77 70 62 58 54 49 38 23 27 84 96 96 96 95 56 23 36 49 58 69 74 47 22 16 20 34

GFSGL_700_rhum_015.txt.gz
RH
66 63 58 50 53 58 54 50 52 52 45 46 50 51 52 53 49 41 34 31 30 27 18 13 12 13 14 14 15 16 17 14 13 10 10 8 7 7 6 6 6 6 6
68 64 58 60 67 68 67 58 44 42 46 50 54 58 59 54 45 39 35 24 13 12 13 13 12 11 12 14 16 18 20 19 16 14 12 10 9 8 7 6 6 5 5
68 65 70 76 87 69 75 68 42 47 55 58 59 60 56 46 33 17 11 13 14 10 10 11 13 16 17 22 24 24 22 19 17 16 17 12 11 10 8 7 6 6 5
67 72 80 89 79 51 56 49 48 52 56 58 58 50 30 12 12 14 10 7 8 10 12 14 15 18 20 20 20 19 16 15 15 19 24 17 12 11 10 9 6 6 5
76 89 92 71 44 42 44 50 53 56 56 48 26 12 13 16 9 6 8 9 10 11 13 15 17 17 17 16 16 15 17 21 40 55 34 30 16 15 12 10 8 6 5
84 72 28 37 37 41 46 52 53 48 29 12 12 15 10 7 8 10 12 13 13 14 16 16 16 16 14 16 19 23 28 90 84 92 83 47 27 22 16 24 69 86 86
48 39 34 38 41 44 49 49 37 16 12 14 13 8 7 8 10 12 14 14 15 18 18 15 14 16 21 22 24 30 29 30 41 43 42 40 40 22 36 77 100 98 98
40 36 39 42 46 47 41 21 13 14 15 10 7 8 8 9 11 13 15 17 19 17 15 18 19 21 26 29 40 78 45 34 33 33 36 29 22 19 27 55 45 50 44
36 42 45 45 42 28 16 15 16 15 9 7 8 9 9 9 9 12 15 14 14 15 19 23 23 26 33 48 100 53 36 30 32 35 29 21 26 26 37 58 61 94 71
41 46 45 40 23 17 16 19 19 11 8 8 9 10 8 7 9 11 13 16 18 20 21 24 28 35 40 98 87 52 39 35 33 27 17 18 28 32 54 100 100 95 92
47 46 38 23 18 18 21 22 12 10 10 10 9 7 8 11 12 13 17 22 26 25 27 30 32 40 90 47 46 44 44 44 39 25 20 23 32 53 84 97 97 96 94
44 34 24 19 20 24 23 13 12 12 11 10 7 7 10 12 12 16 19 25 31 39 41 42 39 41 43 40 41 42 47 47 34 26 28 31 44 58 75 89 97 96 98
36 24 21 23 28 24 14 14 13 14 11 8 8 10 10 10 14 18 25 32 41 46 50 45 44 44 41 42 42 48 54 44 30 29 31 52 75 72 77 95 96 95 95
24 24 27 26 20 16 17 17 15 13 10 10 12 11 11 15 22 29 36 42 46 49 59 48 52 49 45 45 45 49 45 33 37 46 76 96 88 90 88 89 91 95 98
29 28 26 21 19 18 17 16 14 11 12 14 14 16 21 26 35 42 48 47 52 61 57 55 53 50 45 43 47 46 32 32 43 95 99 95 90 91 94 100 99 98 97
28 24 21 22 21 19 17 15 12 12 13 16 20 27 34 41 43 43 46 51 57 62 60 64 61 57 52 52 47 32 31 50 99 98 97 98 96 97 98 97 97 96 96
24 24 25 25 22 21 19 14 11 11 14 18 23 30 39 40 43 45 54 61 59 66 70 69 64 58 56 53 45 35 50 99 97 97 97 96 97 98 96 97 96 96 96
30 32 30 27 26 21 16 13 13 14 15 16 22 34 38 40 45 52 60 58 59 68 73 68 62 59 56 51 39 52 97 98 98 97 97 98 97 96 97 97 97 96 96
33 32 30 26 23 19 16 15 17 18 20 20 22 32 39 42 46 56 62 67 69 70 68 63 61 58 57 42 47 96 98 97 96 97 98 97 96 97 97 96 96 96 95
37 33 28 26 23 18 16 17 20 23 22 22 33 40 42 44 51 58 63 69 71 70 67 59 58 58 46 44 92 98 97 97 97 97 97 96 96 96 95 90 71 53 41
30 28 29 26 21 18 19 22 24 24 27 34 41 47 52 58 61 65 66 70 73 69 62 56 56 49 42 89 97 97 97 97 97 96 86 41 31 36 59 72 74 74 77
31 29 27 23 20 20 22 25 28 29 34 45 46 51 56 63 67 67 71 74 70 66 61 55 52 46 84 97 97 97 96 96 70 32 35 59 83 95 97 98 98 98 98
32 28 24 20 20 21 25 28 29 35 44 50 53 56 62 69 70 72 75 70 65 61 57 57 45 73 98 98 96 96 89 35 31 54 90 97 100 94 70 53 48 49 49
28 24 21 20 21 24 27 27 30 46 54 54 59 64 71 71 70 75 76 67 61 57 57 50 59 97 97 96 97 87 32 34 72 95 99 90 49 32 32 38 50 59 75
24 22 21 20 22 24 25 29 46 54 54 57 64 68 71 68 72 76 71 63 55 53 51 46 97 97 97 99 64 30 38 73 96 93 72 39 29 42 50 58 68 76 83
23 20 20 21 23 25 30 44 55 55 55 62 67 68 68 70 73 71 66 57 50 52 43 93 97 97 99 54 30 42 73 95 99 98 55 38 46 54 64 73 79 81 78

GFSGL_700_rhum_018.txt.gz
RH
70 74 72 68 61 53 58 61 53 33 31 32 37 40 42 42 40 29 14 10 9 6 5 5 6 7 8 9 10 12 15 20 27 14 16 8 10 14 15 16 14 13 11
73 78 74 70 63 65 66 60 38 31 38 43 43 43 42 30 14 10 8 5 5 5 5 6 8 10 11 12 14 15 16 17 47 34 19 15 12 12 14 22 15 18 12
74 74 75 77 65 75 52 31 32 39 42 43 42 36 18 12 10 7 5 5 4 5 6 8 10 12 13 15 15 16 16 19 17 58 33 61 42 32 44 41 54 24 14
75 72 69 59 65 48 31 32 37 40 44 40 27 14 13 10 6 5 5 5 5 6 6 7 12 15 16 14 14 15 19 20 20 61 83 79 76 44 49 34 25 21 21
68 56 52 60 40 34 32 36 42 43 34 18 14 13 11 6 6 5 5 5 5 5 5 6 10 12 13 14 17 20 25 26 56 94 82 76 36 30 27 27 92 48 20
52 54 51 40 36 33 37 38 38 27 16 16 14 11 6 6 6 6 5 5 6 6 6 7 9 12 14 18 20 23 31 67 93 99 83 44 33 33 36 35 30 26 16
53 51 46 41 36 39 38 34 23 17 18 16 12 7 6 6 6 6 5 6 6 7 9 12 13 17 21 22 23 29 78 99 94 94 83 48 40 39 37 23 22 91 55
39 48 40 34 37 38 32 21 18 20 17 13 8 7 7 7 6 6 6 7 7 9 14 16 17 20 24 28 35 56 100 71 49 48 47 42 48 36 28 35 40 43 37
40 35 33 36 40 30 21 21 23 18 14 9 8 7 7 7 7 7 8 8 8 10 15 19 24 30 35 40 78 100 94 42 38 36 40 42 39 26 34 47 49 88 80
34 35 40 41 29 23 23 25 19 15 10 9 9 8 8 7 7 8 9 10 11 15 21 28 34 37 38 46 96 72 48 38 36 32 34 34 26 24 34 58 89 97 93
37 43 40 30 24 26 26 22 16 12 11 10 9 9 8 8 9 10 11 14 21 24 28 32 37 40 47 48 49 54 54 45 40 45 38 24 24 30 45 75 98 97 94
40 38 29 26 29 26 23 17 14 13 12 10 10 8 9 9 11 12 14 20 29 33 33 37 41 50 50 54 55 54 50 50 52 45 32 28 34 62 92 98 97 97 97
36 29 31 32 28 23 17 16 16 14 12 11 10 9 10 11 12 14 18 25 29 37 46 50 49 55 61 58 55 53 57 56 48 40 41 62 92 96 97 98 95 96 95
32 37 36 32 23 19 18 18 17 14 12 12 11 11 12 13 15 18 24 29 33 45 65 56 58 63 62 59 54 57 58 51 63 86 94 95 97 98 98 100 98 100 100
44 45 38 26 20 20 20 18 15 16 14 14 14 15 16 16 19 26 35 35 41 61 66 57 60 62 58 53 55 56 46 69 97 97 97 98 97 97 98 99 99 98 97
53 48 34 24 24 24 18 15 16 15 15 16 19 20 20 23 26 32 38 42 50 61 59 64 66 63 58 57 53 42 70 98 97 98 99 98 97 97 97 97 97 97 97
58 50 34 29 26 20 17 17 16 15 16 16 19 22 24 26 33 38 41 51 54 61 67 69 66 61 59 57 54 77 96 97 98 98 98 97 98 97 96 97 97 97 97
63 52 36 28 23 20 20 20 18 16 16 17 22 24 24 33 39 41 50 58 58 65 71 67 62 60 60 55 76 98 97 98 98 97 97 97 97 96 97 97 97 97 97
68 48 33 26 23 23 22 19 18 18 20 23 23 22 32 38 42 47 60 66 70 70 68 63 60 62 57 73 98 98 98 97 97 97 97 96 96 96 96 96 96 95 95
63 40 30 26 24 22 21 20 20 21 22 23 24 30 38 40 46 56 65 70 72 72 68 56 60 60 71 98 97 97 97 97 97 84 58 54 68 77 90 94 87 78 74
52 35 29 25 24 22 21 20 20 21 22 22 28 41 46 49 57 65 70 73 74 70 58 55 57 66 98 98 97 97 97 67 36 58 97 96 96 97 97 97 97 96 96
41 32 26 25 23 22 20 20 21 22 23 27 37 44 47 54 62 69 73 74 71 64 57 57 61 98 97 96 96 90 37 40 90 98 99 92 81 74 69 77 86 91 98
35 28 26 24 22 19 18 19 21 24 28 41 46 47 51 60 67 71 72 71 64 56 57 58 95 98 97 97 89 36 54 97 100 95 69 52 42 40 48 56 63 64 63
28 27 24 21 19 18 18 20 24 32 44 48 49 52 60 66 69 68 71 65 56 55 57 86 97 97 98 74 36 48 95 100 99 82 54 48 56 54 64 80 91 98 99
27 22 20 19 18 18 20 24 33 45 49 50 53 57 65 67 66 68 67 60 51 52 69 98 98 99 72 36 47 93 97 100 98 62 58 65 69 74 78 83 86 84 71
21 20 19 17 16 20 26 36 46 50 50 53 56 63 68 65 65 65 60 51 48 54 96 98 98 73 36 45 93 98 96 98 77 59 73 65 69 75 78 77 73 64 64

GFSGL_700_rhum_021.txt.gz
RH
55 61 66 69 71 71 64 43 30 22 18 20 23 28 29 26 18 15 14 9 6 5 5 5 5 4 4 4 4 6 10 16 32 11 12 8 8 11 11 30 40 38 18
59 67 71 73 73 66 48 35 26 22 22 25 28 29 23 16 16 14 9 6 5 6 5 5 5 5 5 5 6 6 9 13 25 60 20 21 15 14 28 48 44 42 29
62 68 72 74 71 54 40 29 25 24 28 28 27 20 16 17 16 10 6 5 6 6 5 5 5 5 5 6 8 10 12 20 47 92 52 23 26 66 67 45 36 26 21
67 73 76 74 62 46 35 28 26 29 30 26 19 18 20 17 11 7 6 6 6 6 5 5 6 6 7 9 12 16 26 40 45 86 49 65 92 86 87 54 28 26 21
69 71 71 64 52 39 31 29 29 31 27 20 20 22 18 11 8 6 6 6 6 6 6 6 6 7 9 12 36 45 55 76 78 79 69 99 97 77 49 36 36 27 23
60 61 64 56 42 32 31 31 33 28 21 22 24 19 11 8 8 7 7 7 6 6 6 6 6 8 12 16 23 33 82 100 100 100 100 100 87 56 40 40 45 40 24
50 57 56 47 38 33 32 33 28 23 25 26 18 11 9 9 8 8 7 7 7 7 7 8 9 14 22 29 32 38 71 100 100 100 100 99 76 52 43 44 44 33 22
47 41 39 39 34 31 32 28 25 28 27 18 12 10 11 10 9 8 8 8 8 9 9 12 19 23 28 37 74 76 100 98 80 86 87 68 51 50 53 50 34 27 25
37 32 36 31 31 33 28 27 30 28 20 12 12 13 13 11 10 9 9 9 9 9 11 18 26 27 32 63 100 100 76 46 51 51 52 48 49 51 48 43 33 47 37
30 33 30 33 34 28 29 32 31 22 14 14 17 16 13 10 10 10 12 12 11 11 11 20 28 35 47 97 100 97 62 56 50 43 44 48 48 37 40 61 78 79 76
30 31 36 32 29 34 36 34 22 16 17 20 18 13 12 11 11 12 14 14 15 14 18 26 30 42 92 93 93 74 66 64 55 58 52 43 37 49 75 92 99 99 95
34 36 32 31 37 41 37 25 19 22 23 18 14 13 12 12 13 14 16 17 19 29 31 34 41 84 75 62 65 61 59 64 64 54 47 54 81 89 88 93 99 100 99
35 30 34 41 46 43 32 25 27 25 17 15 15 14 13 14 15 16 18 18 22 33 39 46 55 60 61 64 59 60 67 66 60 71 89 90 91 93 95 98 93 99 98
32 38 46 49 48 43 34 30 26 19 17 17 16 14 14 15 17 19 19 21 29 37 43 55 59 62 65 61 58 61 60 68 100 100 98 97 95 98 97 99 97 98 97
42 49 51 52 52 43 34 28 22 19 19 17 16 16 17 17 20 21 29 37 41 48 61 59 63 65 57 56 57 56 64 98 97 98 96 94 97 97 98 98 97 97 97
52 54 56 58 53 39 32 26 22 21 19 17 17 18 18 23 22 26 34 42 49 66 65 71 68 62 59 59 55 61 97 97 98 97 97 97 97 98 98 97 98 98 97
59 61 62 63 48 37 30 24 25 22 18 17 17 18 22 24 28 37 44 53 63 69 74 70 65 61 62 59 76 97 96 98 97 97 97 98 98 98 97 97 98 97 97
67 69 69 62 46 36 27 24 22 19 15 14 15 19 23 28 37 44 55 63 65 68 70 66 62 63 63 82 97 97 97 97 97 97 96 96 96 96 96 96 96 96 96
75 74 70 60 44 30 26 24 20 17 16 15 16 18 25 37 44 51 62 71 72 71 67 60 62 66 87 98 98 98 97 97 95 95 96 97 97 96 96 96 97 96 96
75 72 68 53 34 27 25 19 16 16 16 17 19 26 37 42 46 55 64 70 71 70 63 58 64 90 97 97 97 97 86 65 96 98 99 100 100 100 98 96 96 96 96
77 75 60 38 29 26 20 16 16 16 16 18 26 41 50 50 54 62 67 68 70 67 59 60 87 97 97 97 97 65 65 98 100 100 99 71 57 63 80 93 99 99 98
79 64 40 30 28 20 17 16 16 17 20 25 37 45 50 52 61 65 67 67 67 65 59 72 97 98 97 99 58 82 97 99 100 99 78 66 60 51 62 71 74 77 82
67 41 32 28 20 17 16 15 16 20 27 38 46 48 51 56 63 65 64 63 65 57 60 96 97 98 100 65 63 97 98 99 100 83 79 76 72 80 98 100 93 89 94
40 33 28 20 18 16 14 14 18 27 40 46 48 51 55 61 63 64 62 63 58 55 87 98 98 100 56 51 97 99 99 100 77 79 93 94 92 96 100 100 100 100 98
34 27 21 19 17 15 13 17 29 42 46 47 50 54 57 64 64 61 62 61 52 60 97 98 99 57 46 96 99 98 100 88 73 86 78 87 91 93 92 90 82 66 74
27 22 20 18 16 15 19 32 42 46 46 50 53 55 60 64 59 62 60 52 49 94 99 98 59 44 94 98 98 100 88 63 85 87 76 74 74 74 73 68 67 82 87

GFSGL_700_rhum_024.txt.gz
RH
54 53 54 57 61 64 62 59 50 28 20 16 15 16 18 17 17 18 20 18 13 9 7 7 6 6 6 6 6 5 5 7 11 4 5 6 6 9 12 18 20 23 22
58 54 56 60 64 63 61 55 37 24 19 18 18 19 18 18 20 21 18 13 10 8 7 7 6 6 6 6 6 5 6 9 19 18 10 12 15 16 16 18 30 43 65
56 56 59 62 62 63 58 48 33 23 21 20 21 20 20 23 22 17 14 10 9 8 8 7 7 7 6 6 6 7 10 15 22 52 28 29 28 30 44 45 51 46 56
58 59 62 62 63 58 55 45 28 22 21 22 21 22 25 23 18 14 11 11 11 10 8 8 7 7 7 7 9 13 30 58 58 58 94 82 67 69 94 100 63 46 39
60 62 61 59 55 53 49 33 25 23 24 22 25 26 24 20 14 12 14 15 13 10 8 8 8 8 9 12 29 36 59 68 88 100 96 98 98 100 83 72 67 44 32
61 58 47 43 47 49 34 26 24 25 24 27 28 26 21 15 15 18 17 14 10 9 9 9 8 9 11 16 24 32 67 100 100 100 100 99 77 80 61 52 44 41 30
49 37 37 36 41 30 26 25 26 25 28 28 27 21 17 21 22 19 13 11 10 10 10 10 10 12 16 22 26 36 79 100 100 100 98 74 58 64 63 50 48 46 36
27 33 32 32 28 25 25 27 26 30 30 28 24 22 26 24 18 14 12 11 10 11 12 13 14 14 22 34 54 79 99 100 78 76 77 70 89 62 69 62 57 38 39
26 28 28 27 25 26 26 27 31 30 31 28 28 28 25 19 16 13 13 12 11 11 13 15 21 27 34 69 100 100 98 64 64 64 57 62 62 61 67 89 88 92 71
24 26 26 26 26 26 30 33 34 34 32 31 30 25 21 19 16 14 14 15 15 15 14 16 24 34 39 90 100 89 74 64 56 53 54 50 59 80 97 100 100 99 96
23 24 26 25 28 33 35 37 37 36 33 31 28 25 24 19 16 14 15 18 20 21 21 24 29 39 80 90 71 72 73 75 60 61 59 76 91 94 100 100 100 100 99
24 25 25 30 35 37 39 41 41 35 32 30 28 27 22 17 14 14 15 18 22 31 34 35 41 60 68 64 68 65 64 67 67 80 91 91 98 100 99 100 100 99 100
22 25 32 37 38 42 45 43 37 35 33 30 27 23 18 13 12 14 16 17 22 35 43 49 56 63 67 67 62 67 69 77 98 93 97 100 100 100 99 97 96 99 99
27 35 37 36 44 49 47 43 39 36 32 28 24 17 12 12 13 14 16 22 33 40 51 57 63 68 68 64 63 62 89 100 100 99 98 98 98 97 97 97 97 97 94
37 37 38 49 52 48 49 47 41 33 29 24 17 14 14 13 15 18 33 41 45 58 62 61 66 64 56 57 62 95 98 98 96 98 98 97 97 97 98 98 97 95 98
37 42 53 56 55 55 52 46 39 31 26 17 15 16 16 19 19 31 40 41 54 62 62 70 64 59 61 70 94 95 99 98 98 98 98 98 98 97 97 98 98 98 98
46 55 59 61 60 59 54 45 36 29 18 14 14 15 18 20 31 43 43 47 57 65 69 66 61 62 76 98 99 98 97 98 98 98 97 96 97 98 96 96 96 96 97
57 62 64 67 65 61 49 35 30 20 14 10 12 15 20 28 39 43 49 52 55 61 66 62 59 76 98 98 99 98 98 97 97 98 98 100 99 98 95 96 97 97 97
64 67 71 70 68 54 36 32 21 15 12 12 12 14 23 34 40 44 56 60 62 65 63 57 69 99 99 99 99 96 93 97 99 100 100 99 81 69 95 99 98 98 97
71 76 77 74 60 38 33 23 16 13 12 12 14 23 36 39 40 46 56 61 65 64 57 57 97 99 99 100 86 79 98 99 100 100 98 86 73 60 75 90 99 98 97
77 80 79 64 39 35 25 18 14 13 12 14 24 40 47 45 48 56 60 65 64 61 53 87 98 100 100 81 88 97 98 100 100 100 94 87 83 90 98 88 79 88 95
82 80 63 41 36 28 21 16 14 13 15 24 37 43 44 49 54 59 63 62 62 58 69 98 100 100 86 68 93 97 99 100 100 100 99 100 100 100 100 99 96 92 91
81 59 42 37 31 23 17 16 14 15 24 37 43 44 47 51 56 62 60 59 57 55 92 100 100 79 60 96 98 98 99 100 100 99 94 100 100 100 100 100 99 100 99
53 44 39 33 24 18 17 15 14 23 35 42 45 46 50 52 58 59 56 56 51 67 100 100 85 56 95 98 98 100 100 100 96 96 93 96 99 99 96 89 79 81 87
46 40 34 25 18 18 16 15 20 34 41 47 47 48 48 54 56 53 54 52 54 98 100 91 50 89 98 99 100 100 96 95 98 99 89 84 85 81 76 74 84 94 96
41 35 25 19 19 16 15 20 34 42 46 47 45 46 49 52 48 51 51 47 81 100 95 50 85 98 99 100 99 87 96 97 98 98 97 98 95 90 86 83 78 77 76

GFSGL_700_rhum_027.txt.gz
RH
50 54 58 58 58 61 63 64 61 51 34 22 17 15 15 14 15 15 14 15 16 15 14 13 14 16 15 11 8 7 7 8 8 7 7 6 5 8 12 21 43 42 31
54 60 64 59 60 62 64 62 52 40 27 20 17 17 17 16 16 15 16 17 15 15 17 21 21 16 12 8 8 7 8 8 14 10 6 7 10 14 17 23 34 45 50
59 66 64 61 62 64 63 55 42 33 23 20 18 18 17 16 16 18 17 16 18 22 24 20 15 11 10 9 8 9 9 11 14 26 20 20 31 45 51 52 49 43 56
64 69 64 63 65 65 57 44 37 26 21 19 19 17 17 18 19 18 18 20 23 22 18 15 12 10 10 10 10 12 14 19 23 37 74 86 92 76 85 74 49 50 46
71 69 64 66 66 56 44 38 26 22 20 19 18 18 20 20 19 19 22 24 22 20 17 14 12 11 11 12 15 16 20 25 47 98 100 100 96 73 66 57 52 44 41
72 66 67 65 50 42 34 25 22 21 19 19 20 21 21 21 23 25 24 23 22 20 18 15 12 11 12 14 16 21 38 95 100 100 100 99 78 61 58 58 63 56 41
66 67 61 42 33 29 25 22 21 20 20 22 23 22 22 25 26 26 26 25 22 19 16 12 10 12 15 15 16 28 44 98 100 100 98 77 60 56 72 84 65 68 72
63 50 33 33 32 27 24 22 21 22 24 24 24 25 27 28 28 27 24 20 17 14 11 11 13 14 16 28 38 62 100 100 90 75 70 61 78 80 76 89 98 97 94
32 28 30 28 26 25 23 22 23 24 27 26 26 30 30 29 27 22 19 16 12 10 10 13 17 22 32 45 93 100 89 62 64 59 58 63 66 92 100 99 96 99 86
25 26 24 24 24 24 22 23 27 30 28 29 33 33 30 28 22 18 14 11 9 10 10 14 23 37 49 89 100 77 62 62 55 54 56 78 100 100 100 100 99 97 97
22 22 23 24 24 24 25 30 33 30 33 35 35 33 29 23 19 13 10 10 13 14 16 21 32 49 86 69 66 65 63 64 62 80 96 98 98 97 97 98 100 100 99
20 22 23 24 26 28 33 36 35 36 39 40 35 31 25 21 14 9 9 11 16 27 30 35 47 62 64 64 61 60 64 78 97 96 97 96 95 96 97 99 99 99 100
21 23 24 27 31 36 39 38 41 44 44 39 34 27 23 17 9 8 9 11 19 35 41 46 58 62 64 58 60 74 98 98 93 89 94 97 98 97 98 95 97 98 98
21 24 27 34 39 40 43 48 49 49 43 36 30 23 18 10 9 10 11 18 29 38 46 52 63 65 62 62 81 98 99 98 96 97 97 97 98 97 97 96 94 96 96
24 29 36 40 38 41 50 53 53 48 38 31 23 17 10 8 10 14 22 34 40 51 53 58 60 55 53 79 94 98 98 97 97 99 96 96 97 96 97 97 97 97 96
32 38 40 39 43 50 53 54 52 41 34 24 17 12 10 13 16 23 33 39 49 56 55 62 57 52 80 92 93 92 98 97 97 95 99 99 98 97 96 97 97 96 95
37 40 41 44 52 56 56 53 43 37 30 20 13 10 12 16 25 34 38 43 55 55 60 60 53 77 92 94 95 96 94 98 99 100 100 100 97 84 88 96 94 96 97
40 40 45 55 60 61 58 46 40 34 29 17 10 11 14 24 34 38 44 47 50 56 59 54 70 94 94 95 92 91 98 98 100 98 100 99 92 76 72 90 98 96 95
40 48 56 61 64 61 49 42 35 28 17 11 10 11 20 30 36 42 50 54 53 55 52 60 95 94 96 87 90 100 99 98 99 100 100 100 97 89 86 85 97 100 97
50 58 62 65 63 51 44 37 30 19 12 12 11 17 27 31 37 42 50 54 55 56 52 93 96 97 83 78 99 99 98 99 99 98 100 100 100 99 99 97 87 80 82
57 63 65 64 52 46 39 32 21 13 13 12 16 30 37 41 42 48 51 53 56 52 74 94 97 83 66 97 98 98 99 100 98 100 100 98 99 95 100 100 99 99 97
60 65 64 55 48 41 34 23 14 14 13 14 23 34 40 43 46 48 51 54 56 54 90 96 88 66 97 95 94 94 98 98 100 99 98 96 93 97 100 100 100 100 100
67 62 56 48 42 35 24 15 14 14 14 23 33 38 40 41 45 47 49 54 52 80 98 93 62 92 100 98 98 99 98 99 99 97 84 86 92 96 94 89 90 94 99
62 55 47 42 35 23 15 15 14 16 25 33 38 41 41 40 44 46 50 51 62 97 98 62 87 99 97 98 100 100 99 99 97 92 99 95 82 80 84 92 99 100 100
53 47 41 34 22 15 15 14 15 24 34 40 42 44 42 40 44 46 51 49 89 97 64 85 100 98 99 100 99 98 98 99 98 98 100 99 93 95 94 89 86 92 94
47 41 33 20 16 16 14 14 23 35 39 41 46 45 42 39 42 46 47 69 98 71 83 100 99 100 99 98 98 98 98 97 98 100 100 96 92 80 77 70 71 77 82

GFSGL_700_rhum_030.txt.gz
RH
48 50 54 59 64 66 63 65 69 70 61 37 25 19 16 14 13 13 13 13 13 12 14 15 16 16 18 19 19 17 14 11 11 14 12 10 9 8 9 17 44 37 38
52 54 58 63 69 69 67 70 72 68 44 29 21 17 15 14 14 13 13 13 13 13 14 15 17 19 20 20 18 16 13 12 12 11 9 8 8 7 9 17 40 52 63
54 57 61 66 72 70 70 74 73 52 31 22 18 16 15 15 14 14 13 13 14 16 17 20 22 22 19 18 16 13 12 11 12 16 15 12 12 19 33 44 47 55 67
55 58 63 72 76 73 76 76 58 34 25 19 18 16 16 15 15 14 14 15 16 18 22 22 19 17 16 13 12 12 13 15 19 26 38 37 74 82 96 89 59 58 47
55 61 68 78 76 77 75 60 36 26 21 19 17 16 17 16 15 15 15 15 19 22 20 18 17 14 11 10 12 14 20 27 58 90 82 97 100 86 76 67 56 49 41
62 68 80 79 78 71 55 36 29 23 20 18 18 18 18 17 18 18 19 22 24 20 19 18 13 8 8 10 13 18 32 79 92 99 100 93 79 70 61 56 52 53 74
70 82 80 75 68 46 36 29 23 21 18 19 20 19 19 20 21 22 26 25 21 20 17 10 7 8 10 12 17 31 54 82 100 99 92 68 59 53 60 74 88 96 82
83 76 70 59 41 35 28 23 21 20 20 22 21 22 23 24 26 30 27 22 21 17 10 7 8 10 15 27 37 59 83 63 63 62 56 55 66 84 100 100 95 90 85
70 62 43 36 32 26 23 21 20 22 23 23 24 24 26 31 32 29 24 23 19 10 7 8 13 19 32 44 90 66 52 51 49 50 58 84 99 98 100 97 91 98 86
44 32 30 26 24 22 21 21 23 23 23 23 27 32 35 34 31 25 23 17 11 6 6 8 18 35 40 51 60 56 50 48 45 65 84 92 100 100 100 100 99 96 92
28 26 23 22 21 20 22 24 24 22 25 29 33 37 36 33 27 24 16 8 7 7 10 18 30 42 48 56 56 52 53 70 83 85 87 96 97 97 97 98 100 100 95
22 21 20 19 20 24 27 26 25 27 32 36 37 36 35 30 26 17 9 7 11 18 24 30 41 48 55 54 51 59 86 91 89 89 93 94 92 94 96 97 98 98 99
20 18 18 22 27 28 25 26 30 34 36 39 37 35 32 28 18 9 7 9 19 29 32 38 46 53 54 48 67 96 95 93 91 88 88 94 96 97 97 95 97 97 97
16 19 24 28 28 26 29 32 36 39 42 40 37 34 29 21 11 7 8 18 28 31 36 42 51 54 52 66 94 95 94 95 94 93 93 94 95 91 83 94 96 96 94
20 25 28 27 27 32 35 37 40 48 45 40 36 30 23 13 8 10 20 29 32 38 40 45 50 47 61 87 89 96 97 96 95 95 94 93 90 87 78 90 97 96 96
24 26 26 28 32 35 38 44 55 50 44 38 32 24 14 9 9 18 27 31 38 43 43 50 49 60 87 89 88 83 97 95 94 95 98 98 92 90 75 85 99 97 95
24 25 28 32 37 40 42 49 46 45 41 34 25 14 10 10 17 26 30 34 44 43 51 53 54 88 89 90 81 95 93 94 95 99 100 98 100 100 100 91 94 96 97
23 29 33 39 41 44 50 50 48 43 36 29 15 10 10 14 26 32 36 38 42 50 52 52 87 91 91 75 94 95 94 95 97 95 98 100 100 100 100 97 89 94 95
28 34 40 41 45 52 52 51 45 38 30 19 10 10 11 20 31 36 41 44 43 48 47 79 94 93 73 91 98 97 97 98 97 98 100 100 100 99 99 99 99 100 92
34 38 38 49 54 54 52 45 38 31 19 11 10 10 15 26 30 33 40 42 45 47 58 90 94 74 88 98 96 97 98 98 98 100 100 100 100 100 98 96 98 97 82
33 37 50 55 54 51 44 38 31 20 12 12 11 17 28 32 34 37 41 42 46 46 83 91 73 82 97 96 96 98 98 98 98 100 100 100 100 99 100 94 100 99 96
37 49 53 52 48 43 37 30 19 12 13 12 15 26 33 35 37 37 40 43 47 69 93 79 76 98 98 96 97 97 98 97 97 99 100 99 90 90 87 92 99 100 98
46 49 50 48 43 37 30 18 13 12 12 16 25 32 34 37 38 36 39 46 53 90 89 72 99 98 100 100 98 98 96 97 99 98 99 96 88 91 96 98 100 100 100
48 50 48 42 36 28 16 11 11 12 17 26 33 36 39 39 36 36 41 46 77 95 70 98 98 100 100 100 98 98 99 99 98 93 98 100 99 92 86 87 93 97 97
51 46 40 36 26 14 10 9 10 16 28 35 36 39 40 38 36 38 44 57 93 70 97 99 100 100 99 98 97 98 99 98 98 98 100 90 76 73 75 78 82 90 94
44 40 35 23 12 8 7 9 16 29 35 36 39 39 38 37 35 38 46 86 73 95 100 100 100 100 99 98 98 98 99 98 98 95 78 73 81 90 89 88 92 95 95

GFSGL_700_rhum_033.txt.gz
RH
46 49 50 53 56 59 64 70 72 70 70 70 63 34 23 18 15 14 14 14 14 14 13 11 11 11 13 15 16 16 17 16 14 13 10 7 6 7 9 17 30 37 39
49 51 53 57 60 63 69 75 76 73 72 70 46 25 20 16 15 14 14 15 14 13 12 11 13 15 16 17 18 18 14 10 9 7 4 4 7 11 16 32 47 66 89
51 54 58 61 62 68 72 79 78 74 72 56 28 21 18 16 15 16 16 15 14 13 13 15 17 18 19 20 17 12 8 6 7 12 10 14 22 35 33 40 55 73 77
55 58 60 62 67 70 76 81 78 77 63 31 22 18 17 16 17 17 16 15 15 16 18 20 20 21 21 15 9 6 7 9 12 20 26 40 64 57 65 75 66 52 44
57 59 63 66 68 73 83 81 80 64 31 23 19 18 17 17 17 16 15 16 17 18 21 22 23 20 13 7 7 8 12 20 28 36 51 86 68 59 59 52 52 56 67
60 63 66 67 73 82 86 79 58 30 24 20 18 17 18 18 17 18 18 17 19 23 24 24 19 11 6 6 9 15 30 44 71 84 77 61 53 52 55 76 80 83 66
67 68 70 73 83 86 76 48 29 23 21 18 17 19 18 18 19 18 19 20 25 26 24 17 9 6 7 10 15 26 32 49 67 74 54 50 56 84 90 88 86 83 70
72 72 75 87 80 68 37 28 22 21 18 19 21 20 20 20 19 20 22 26 27 23 16 8 6 7 14 23 29 34 40 48 49 44 52 80 92 95 98 94 86 84 78
75 83 83 72 50 31 26 22 20 18 21 23 21 21 21 23 22 25 28 28 24 17 8 5 10 18 26 33 39 43 43 40 42 69 83 86 91 96 100 96 89 91 78
82 72 55 34 27 23 22 20 19 23 23 21 23 25 27 26 30 31 29 24 17 10 5 10 20 27 32 37 46 45 37 50 71 74 80 86 97 100 100 99 97 94 92
57 37 28 24 21 21 19 21 24 24 23 24 25 27 31 35 34 31 25 16 9 5 9 19 24 30 33 43 44 42 61 81 81 82 84 87 91 94 96 96 98 99 91
28 24 20 21 20 20 22 25 25 24 25 26 26 32 38 36 33 26 17 9 6 9 18 23 29 32 42 43 42 68 86 86 86 88 85 86 85 83 83 82 82 97 98
20 21 21 18 20 24 27 27 26 26 27 28 34 36 35 34 28 18 10 7 8 19 25 30 35 41 45 42 72 90 93 93 89 86 86 88 88 87 87 72 66 94 98
21 18 19 22 26 27 26 25 26 30 31 36 37 37 36 30 21 11 7 8 16 26 29 34 41 46 46 74 90 95 91 91 92 92 92 92 93 90 87 76 73 88 88
18 20 25 28 27 25 27 29 32 35 38 39 41 38 31 23 12 8 9 15 27 31 34 37 42 43 69 86 88 84 92 92 90 95 94 92 90 91 94 95 90 92 96
23 26 26 24 26 28 30 34 39 42 44 45 39 32 24 13 9 9 13 25 33 35 35 41 45 62 86 85 71 89 95 91 94 95 95 96 88 91 92 95 95 95 95
24 22 23 26 27 28 30 30 32 43 44 39 33 24 14 10 10 13 24 30 36 35 39 47 54 85 86 70 88 93 92 97 98 98 98 94 89 94 95 95 92 86 94
21 24 25 24 25 28 31 36 40 39 35 33 25 15 10 10 14 24 31 30 33 38 46 49 80 89 72 85 96 97 98 99 99 97 94 96 95 92 92 93 94 89 87
22 22 22 22 26 32 36 40 39 36 33 27 16 10 10 12 23 32 33 33 35 38 46 75 92 77 80 97 98 100 100 98 96 98 97 96 98 96 95 95 90 96 92
19 18 18 26 33 37 39 39 36 33 26 14 10 9 10 15 27 30 31 33 37 44 58 94 81 79 97 98 99 97 96 97 96 97 98 100 100 99 93 89 89 86 88
16 20 27 32 37 40 38 35 32 25 12 8 9 12 18 28 31 32 33 35 41 47 87 85 77 96 97 98 93 95 96 97 98 97 98 100 100 96 98 96 96 92 94
22 27 34 39 39 38 35 32 22 11 7 7 9 16 28 32 33 35 35 38 46 69 88 74 96 98 99 94 90 92 94 94 98 97 100 100 100 100 99 97 98 98 94
28 38 41 39 37 35 31 19 8 5 6 8 16 25 31 31 34 35 35 41 54 89 77 96 100 100 98 98 97 97 96 97 98 100 100 95 88 81 82 90 95 98 95
39 39 38 37 35 30 15 7 5 6 8 17 28 32 33 33 35 35 36 46 82 83 96 100 100 97 97 98 99 100 100 100 100 94 86 88 86 84 85 86 87 90 95
38 39 38 35 30 14 8 8 8 9 20 30 31 32 35 35 35 34 41 68 82 92 100 100 99 97 97 100 100 100 100 100 96 85 90 95 95 93 92 94 97 95 92
40 39 36 31 13 10 11 11 14 25 32 31 33 38 38 35 33 36 55 81 87 97 95 100 100 100 99 100 99 98 99 86 76 80 90 94 96 94 95 96 96 97 95

GFSGL_700_rhum_036.txt.gz
RH
42 44 45 46 50 55 57 60 62 66 72 76 77 73 69 34 21 18 16 15 16 16 15 13 13 12 13 15 18 19 20 19 16 10 9 5 3 4 8 18 26 35 37
45 48 48 50 55 58 59 62 66 70 74 80 78 73 47 22 19 17 16 17 17 16 14 13 13 14 16 18 20 19 17 12 7 5 3 3 6 15 18 26 31 36 35
48 51 53 56 59 62 64 68 70 72 76 82 76 58 24 20 18 16 17 17 17 16 15 14 15 16 17 18 18 15 9 5 6 10 10 16 19 22 29 33 34 28 37
52 55 58 60 63 66 69 71 71 71 85 82 62 26 20 18 17 18 18 17 16 16 16 17 18 18 19 17 12 6 6 8 14 21 27 31 35 38 39 34 40 62 66
56 60 62 64 68 71 72 72 69 83 84 64 27 21 19 18 19 19 17 17 16 16 19 19 19 19 16 9 6 8 14 19 24 31 49 46 38 38 48 66 71 68 60
62 64 66 69 72 73 73 72 82 83 60 27 22 20 18 21 20 18 18 17 19 20 18 20 20 15 8 6 13 19 26 30 38 48 42 35 45 75 74 74 77 78 58
66 69 71 72 73 75 75 85 78 51 27 22 20 19 22 21 18 18 19 19 19 19 23 22 15 7 7 14 18 19 22 37 52 46 41 66 77 80 80 80 77 75 72
73 74 75 78 79 79 89 71 38 27 23 21 20 22 21 19 19 19 19 19 20 25 23 14 7 6 13 19 20 21 29 40 38 44 78 82 87 89 95 93 85 82 74
84 85 83 83 90 78 58 30 27 24 20 21 23 21 19 20 19 19 19 22 27 24 15 7 6 13 21 25 27 28 35 34 52 78 82 86 89 93 100 98 93 82 56
88 87 92 80 62 36 28 26 24 21 22 24 22 21 21 19 19 24 27 28 24 16 8 6 14 22 27 29 35 38 34 59 69 68 76 83 91 96 100 98 94 83 71
90 78 61 39 29 26 25 22 21 23 24 22 22 24 21 22 27 29 30 25 16 9 6 11 20 25 28 34 40 40 66 73 74 79 80 85 88 84 86 90 97 99 87
59 40 29 26 25 25 22 22 24 23 22 22 21 21 27 31 31 30 25 17 9 7 9 19 25 27 33 41 43 72 78 78 77 84 87 84 79 81 84 87 96 98 100
30 26 24 25 21 21 23 26 24 23 22 19 18 23 27 30 29 26 19 10 7 8 19 26 28 33 40 43 78 83 82 78 85 85 85 85 86 80 88 88 96 95 98
22 25 22 20 21 24 25 23 24 22 20 20 23 25 28 28 26 20 12 7 8 16 24 27 32 39 45 78 87 86 80 93 91 91 88 88 85 79 91 95 89 84 83
22 20 20 23 25 24 23 24 23 21 23 24 28 29 28 26 20 11 8 9 16 26 26 31 33 40 67 85 80 79 96 94 94 93 89 86 82 84 90 95 98 93 93
20 22 24 23 23 23 23 24 24 27 33 34 33 31 28 20 11 8 9 14 26 28 28 32 39 55 84 76 73 91 97 95 94 92 93 93 85 84 85 91 97 97 93
23 22 22 23 22 21 20 20 23 35 36 34 32 28 20 9 8 9 12 24 29 30 32 40 48 84 80 74 93 92 90 94 94 96 97 96 89 86 89 88 87 88 88
21 22 21 20 18 18 20 24 29 30 28 28 27 17 7 7 9 12 22 27 28 33 37 46 80 84 75 94 93 92 94 96 99 100 100 100 96 84 81 84 85 83 85
21 20 18 16 17 20 24 31 32 31 30 26 14 6 6 7 13 25 28 31 30 32 40 73 87 80 96 94 98 98 98 97 97 99 100 98 96 90 88 93 92 97 93
18 16 15 18 22 27 33 33 31 29 25 10 6 5 6 10 19 26 28 31 32 36 56 87 82 98 96 98 98 97 97 99 100 100 100 100 98 98 96 94 96 91 92
16 16 19 24 30 34 33 30 29 24 9 7 6 7 13 24 27 28 30 31 32 44 82 83 97 96 98 96 94 95 98 98 98 98 100 100 97 89 90 91 92 92 92
17 21 27 31 34 33 31 29 23 10 9 9 8 14 25 27 28 28 30 30 40 74 82 94 98 98 96 94 90 89 91 91 95 95 96 94 88 88 84 83 85 87 93
23 27 31 34 34 32 31 25 10 10 11 11 17 25 26 28 30 30 28 34 64 83 94 97 95 97 98 96 98 95 93 96 99 94 92 92 92 90 90 90 90 91 91
27 31 34 34 33 31 27 11 10 13 16 23 26 26 29 33 31 27 30 54 81 92 97 97 98 97 97 97 98 99 99 100 84 82 91 98 100 98 97 98 94 91 88
31 34 34 33 33 29 12 10 14 17 24 27 26 29 34 32 28 28 44 77 90 95 97 99 99 100 99 98 98 99 100 99 82 86 97 100 98 96 97 96 95 87 87
34 36 36 35 30 13 10 13 17 24 28 26 30 35 31 29 27 38 73 86 93 92 94 95 94 92 90 98 100 100 99 92 86 92 91 91 93 92 93 92 91 91 90

GFSGL_700_rhum_039.txt.gz
RH
57 47 41 43 45 46 51 57 61 64 67 69 70 71 77 81 70 41 22 18 17 17 17 15 14 13 13 13 13 15 15 14 10 6 6 4 5 7 11 19 27 29 22
58 50 46 46 48 52 57 61 64 66 69 70 71 74 84 78 52 24 19 18 17 18 16 14 14 13 13 15 17 16 14 12 8 5 4 6 8 12 21 24 23 24 39
60 53 51 51 52 56 61 65 68 70 70 72 74 83 84 58 27 20 18 18 18 16 15 14 13 14 16 18 16 14 11 6 5 11 10 12 14 24 22 25 34 53 61
62 58 56 56 58 62 66 69 72 72 74 75 82 87 63 29 21 18 19 19 16 16 16 15 16 17 18 17 14 10 6 7 14 18 21 19 28 28 34 52 53 58 63
63 59 60 62 63 66 71 74 76 76 76 82 87 64 30 21 19 20 19 16 16 15 15 17 19 20 18 14 9 6 10 15 19 21 34 36 31 45 62 61 63 62 59
60 64 66 65 68 73 76 78 79 78 85 88 60 30 22 19 20 19 17 16 14 14 17 20 21 18 15 10 6 11 20 22 24 36 35 32 61 72 71 70 69 67 42
65 68 68 71 74 76 78 80 81 90 86 61 28 22 19 21 20 18 17 14 15 19 21 20 18 15 9 6 9 16 19 26 42 40 38 73 75 79 77 73 72 68 57
70 71 72 73 76 81 85 85 95 84 50 26 22 20 23 19 18 16 14 15 19 22 21 18 16 9 6 9 16 18 22 36 39 47 76 79 85 89 92 86 80 72 69
72 73 76 83 90 90 91 95 69 35 25 21 22 23 19 18 16 14 16 19 20 19 18 16 9 6 10 19 21 22 31 36 52 76 83 85 89 91 97 95 90 85 66
86 91 93 92 92 94 75 42 28 24 21 24 24 20 18 15 15 18 20 20 18 17 17 9 6 12 20 22 27 36 35 58 70 68 73 83 88 94 99 100 95 90 83
95 92 93 92 72 48 32 25 22 22 25 22 20 19 16 16 19 21 21 19 18 16 8 6 10 19 22 27 36 40 63 74 71 71 80 83 87 88 88 91 96 100 92
92 86 68 45 32 26 24 22 24 25 21 20 18 17 19 22 22 20 19 19 14 6 6 8 17 21 26 34 42 70 78 73 70 83 86 85 79 82 82 83 94 100 100
65 45 33 26 25 21 22 25 23 21 20 16 14 16 21 22 20 19 18 12 5 6 8 18 23 25 31 40 71 82 73 71 88 88 85 84 86 84 82 84 88 93 96
33 27 25 21 22 24 25 22 22 19 16 15 17 20 21 19 18 17 9 4 5 7 13 22 25 29 40 68 86 78 80 93 91 89 87 85 87 81 85 87 82 82 80
25 22 22 24 25 23 22 21 18 16 16 18 21 21 18 18 16 7 5 5 9 15 21 23 26 33 62 83 75 89 98 95 94 93 90 88 87 86 87 88 83 75 79
21 23 24 23 22 22 20 18 18 19 23 26 25 22 21 15 6 5 6 9 16 23 22 24 32 54 83 72 85 92 99 96 95 94 96 94 90 89 85 81 82 80 76
23 23 22 22 21 18 16 17 19 27 28 25 22 21 14 6 6 6 10 17 22 24 24 31 47 81 73 91 93 94 91 95 96 98 98 98 94 93 95 92 91 87 87
22 22 22 19 17 16 17 18 22 22 20 20 22 13 7 7 6 10 18 22 22 26 30 43 80 77 92 93 93 93 94 96 98 97 95 98 98 95 95 94 95 92 90
22 21 18 16 16 16 20 24 24 23 22 23 14 8 8 7 12 21 22 20 22 26 39 78 80 93 94 92 94 97 99 100 99 99 100 99 98 95 94 94 91 94 95
19 17 15 15 17 21 24 25 24 23 24 16 8 9 9 12 19 20 21 22 26 34 72 79 92 94 93 91 91 94 97 100 100 100 100 100 100 100 95 93 90 85 92
16 14 15 17 21 24 24 23 24 26 17 8 11 14 18 20 20 22 24 24 30 63 76 90 93 94 92 91 90 94 98 99 100 96 97 100 100 100 100 100 97 92 88
14 15 17 21 23 23 24 26 28 18 9 11 14 19 22 21 24 27 26 28 55 74 84 89 93 92 92 92 93 96 97 96 91 85 95 100 100 100 100 100 99 96 87
14 16 20 21 22 25 29 30 20 8 10 14 18 21 21 24 27 26 26 47 73 84 88 89 89 92 94 97 100 100 95 93 88 89 95 97 97 96 97 99 100 97 88
16 18 19 22 27 30 31 20 9 10 14 18 22 21 23 28 26 25 38 72 81 85 88 86 84 83 91 97 98 98 96 93 92 88 88 96 98 98 100 100 97 95 86
16 18 21 27 31 32 19 9 12 16 18 22 22 23 29 27 26 31 66 78 80 85 82 77 72 74 79 86 89 90 90 86 83 84 89 98 97 97 98 97 94 90 88
18 22 29 33 32 17 9 13 18 19 24 24 23 29 26 25 28 56 76 80 81 75 70 67 65 64 71 77 78 77 72 75 81 89 96 98 98 97 97 96 97 92 90

GFSGL_700_rhum_042.txt.gz
RH
60 58 56 46 44 98 100 99 56 55 61 66 72 77 77 74 72 76 80 56 26 20 18 18 16 14 13 12 12 11 11 11 8 6 6 6 5 6 9 14 20 21 17
64 62 57 46 50 85 84 53 53 59 65 70 76 78 76 74 74 82 66 31 20 18 18 16 14 14 12 12 12 11 10 11 9 6 6 4 5 9 15 24 22 24 42
68 63 56 50 80 54 54 54 59 65 70 75 78 79 76 75 83 70 37 21 19 19 16 15 13 12 12 12 12 11 11 11 9 6 4 6 9 13 22 21 31 52 53
68 64 61 60 58 55 58 61 65 70 75 78 79 78 76 83 73 46 21 19 19 17 16 13 13 14 13 12 12 13 12 8 5 7 12 12 13 24 27 43 53 56 58
71 72 69 69 63 61 64 66 72 76 80 80 79 78 89 78 50 21 19 19 17 16 13 14 14 12 12 13 14 12 7 5 9 17 17 19 26 28 54 59 59 60 59
100 86 80 75 66 68 70 74 78 81 80 81 83 93 89 35 21 19 20 17 15 13 14 14 12 12 14 14 11 6 7 14 18 21 27 32 34 65 68 65 67 64 45
99 94 75 72 72 74 76 80 83 82 84 89 97 85 26 20 20 19 18 15 14 14 14 13 14 15 13 8 5 6 13 19 25 32 33 43 72 76 78 71 68 64 61
86 77 73 75 76 80 84 84 83 90 97 97 49 24 20 21 19 18 14 14 14 14 14 15 15 11 6 5 6 12 18 23 33 36 59 75 80 83 90 84 75 64 60
76 77 76 79 83 86 90 94 98 99 75 28 22 21 21 19 17 14 14 15 14 13 14 14 8 5 5 8 15 19 22 31 40 68 78 79 83 91 96 89 81 80 54
77 77 81 85 99 100 99 98 85 37 24 21 22 20 19 17 14 14 15 15 14 14 12 6 4 5 7 17 22 25 29 42 68 69 67 83 90 90 94 98 93 80 72
83 94 100 100 99 98 85 46 27 22 22 23 20 19 16 14 15 16 14 14 14 10 5 5 5 7 15 21 25 32 45 73 69 65 79 85 86 90 91 95 91 91 84
100 99 99 99 82 48 29 23 22 22 22 21 19 16 15 16 15 14 14 14 9 5 5 5 8 15 20 23 31 51 75 72 66 81 84 87 87 87 91 93 91 95 95
99 97 75 45 29 24 22 22 23 21 20 18 15 14 15 15 13 13 13 8 5 5 6 10 16 19 22 30 55 78 71 73 87 88 88 86 89 90 92 90 86 85 83
73 45 29 25 22 22 23 22 22 20 16 14 14 14 13 12 14 13 9 6 5 6 14 16 19 21 31 61 80 77 89 95 92 89 87 88 88 84 87 90 80 74 67
29 25 23 22 23 23 22 22 19 16 15 14 14 13 13 15 14 9 6 6 6 15 17 18 22 29 62 76 78 95 97 96 94 96 94 89 87 87 90 95 91 82 84
23 22 23 24 22 22 21 18 16 14 14 15 15 15 17 16 9 7 7 8 15 18 18 21 27 56 75 76 87 89 96 94 95 96 97 95 92 92 91 91 91 87 87
24 24 23 23 22 19 17 15 14 16 17 18 17 19 18 10 7 8 10 16 18 19 21 25 50 74 77 89 89 90 92 96 96 96 98 100 97 94 96 90 86 84 84
24 24 23 21 18 16 14 14 15 15 15 18 20 18 11 7 10 12 16 17 18 20 24 47 74 80 89 88 90 92 95 96 97 99 100 100 100 97 95 94 92 88 83
24 22 19 17 15 14 14 15 15 15 17 19 19 11 7 10 14 17 16 18 18 22 45 74 81 88 90 90 92 94 98 99 100 100 100 99 98 97 95 99 96 96 91
21 18 16 14 13 14 15 15 16 19 22 21 12 6 9 12 16 16 18 20 20 39 71 81 87 88 89 90 91 93 96 100 100 99 99 98 98 99 98 96 96 93 92
17 15 13 13 14 14 14 16 20 21 21 12 6 10 14 16 16 18 20 20 32 67 78 84 86 88 89 91 92 95 98 100 100 100 100 98 98 95 98 99 96 95 92
14 13 13 13 12 13 16 20 22 20 9 7 12 15 17 17 19 22 21 26 62 73 78 82 86 85 86 93 95 97 99 99 100 100 100 99 98 99 96 96 94 89 88
13 12 12 11 13 18 21 23 17 7 8 14 16 17 17 19 22 21 23 56 73 76 80 75 75 79 81 90 97 96 92 92 91 96 98 97 97 97 94 98 98 88 85
12 10 10 12 17 21 22 11 8 13 16 17 18 19 19 23 21 22 44 72 75 78 73 71 69 68 74 84 86 85 86 89 91 95 94 96 97 98 98 97 94 85 83
9 9 13 18 22 18 8 10 16 16 16 19 21 20 24 23 20 31 68 73 77 76 73 69 65 70 76 76 75 78 85 91 95 100 99 99 98 98 98 95 91 89 89
10 13 17 19 11 8 14 16 15 16 22 23 24 25 23 20 24 60 73 75 76 69 70 66 67 71 68 68 72 81 90 90 87 94 97 99 97 96 96 97 97 94 91

GFSGL_700_rhum_045.txt.gz
RH
72 66 60 59 56 47 46 91 64 99 98 96 91 62 65 69 72 73 71 68 72 74 59 23 19 18 16 15 14 13 12 9 6 6 6 8 7 6 4 5 9 10 12
72 68 61 60 58 48 78 64 99 98 96 75 62 65 69 72 75 75 71 73 77 70 23 19 18 16 15 14 13 11 8 7 7 6 7 6 5 5 7 12 16 17 18
73 68 65 62 58 51 72 100 100 99 69 63 66 70 73 76 78 75 76 79 75 24 20 18 17 15 14 12 10 8 7 9 9 7 4 4 6 11 14 20 22 24 50
73 71 69 65 57 76 94 95 94 68 63 66 71 74 77 80 79 82 83 75 22 20 18 17 15 13 12 10 7 8 10 8 6 4 4 6 11 14 27 29 35 55 55
75 73 71 65 64 94 93 66 65 64 66 70 75 80 82 84 88 89 63 21 20 18 17 14 13 12 9 8 9 9 6 4 4 6 11 13 14 24 31 52 59 59 60
78 80 75 82 98 79 73 68 66 68 72 76 81 85 90 93 93 34 20 20 18 16 14 13 11 8 8 9 7 5 4 5 7 14 16 20 27 36 64 65 64 65 56
98 98 100 99 94 82 72 71 75 75 79 84 89 95 96 76 23 21 20 19 16 14 12 10 9 10 9 6 5 4 5 8 17 22 24 32 47 72 74 69 69 70 61
97 99 100 100 89 85 96 84 80 84 90 95 97 94 36 22 21 20 18 15 14 12 10 9 10 8 5 5 5 5 8 14 21 27 37 60 76 73 78 87 81 72 55
100 100 99 96 95 86 81 84 92 96 98 97 59 24 21 21 20 17 15 13 11 8 9 10 7 5 5 5 6 8 14 18 25 42 72 77 74 85 94 95 82 73 64
99 95 94 84 81 84 94 97 98 97 78 27 22 22 21 20 16 14 13 11 8 9 10 7 5 5 7 9 14 17 17 23 47 70 67 71 87 88 90 91 91 85 78
89 84 83 86 93 98 98 97 76 30 24 22 22 21 19 16 14 12 11 9 10 10 7 5 5 8 12 15 18 21 30 59 69 65 75 82 83 84 87 91 97 98 90
94 94 98 100 98 96 65 32 24 22 22 22 21 17 15 14 12 10 10 11 10 8 6 5 7 13 14 17 24 40 70 70 69 79 81 84 85 87 89 94 94 99 99
100 99 98 94 56 30 24 22 23 23 22 20 16 14 14 13 10 9 11 10 8 6 6 8 13 13 15 24 48 72 70 77 80 82 84 85 88 89 91 94 92 95 89
98 91 53 29 25 22 23 23 23 22 18 16 14 13 12 10 9 11 11 8 7 8 9 13 14 14 23 53 69 76 84 84 86 86 88 92 92 93 96 98 92 89 78
50 30 26 23 24 24 23 23 20 17 15 14 13 11 9 10 12 12 8 6 8 11 12 14 14 22 55 66 74 83 86 87 88 91 93 92 92 92 94 99 98 89 84
26 24 24 25 24 24 22 19 16 14 14 12 10 9 10 13 13 9 6 10 12 13 13 14 21 53 67 76 80 82 88 90 93 94 95 94 91 91 91 91 94 93 87
24 25 25 24 23 20 18 15 14 13 12 9 9 12 15 15 9 7 9 12 14 14 15 20 50 66 76 80 81 85 88 95 96 97 97 98 95 90 95 92 90 90 86
26 25 24 22 19 16 15 13 13 10 9 12 14 15 14 8 7 10 11 13 15 17 21 48 67 75 79 82 85 91 94 98 99 100 100 99 99 95 92 91 92 91 88
25 24 20 18 16 14 13 12 9 9 12 14 15 11 6 7 12 13 13 14 17 19 47 67 75 77 80 85 93 97 100 100 100 100 100 99 98 96 93 94 94 95 94
22 19 17 15 14 13 10 9 10 12 14 13 6 6 9 12 13 14 14 17 19 42 67 72 76 79 83 88 93 95 98 100 100 100 97 97 96 96 95 96 95 89 85
18 16 14 14 12 9 8 9 12 14 10 6 7 12 13 13 14 14 17 19 33 67 74 76 76 77 79 82 86 93 97 97 98 98 97 97 97 96 98 100 93 88 78
16 14 13 11 8 8 10 13 14 8 6 10 12 13 14 16 16 18 18 24 63 72 70 70 72 70 71 79 86 86 87 90 97 98 97 97 97 98 97 96 85 81 83
14 12 10 8 8 10 12 10 6 8 12 12 12 15 18 17 18 19 20 52 73 73 71 67 65 69 78 82 83 82 89 97 100 98 97 97 97 94 94 93 88 84 80
12 9 8 8 10 11 8 7 11 13 12 13 18 20 18 20 21 19 35 70 75 72 69 67 66 73 74 74 78 89 98 100 100 97 96 96 97 99 99 94 88 84 85
9 8 8 10 9 7 8 11 12 13 16 22 22 21 22 22 20 22 63 73 71 70 73 68 70 72 68 72 84 95 100 96 94 100 100 100 99 98 97 96 93 92 94
8 8 9 8 7 9 11 12 16 22 25 26 25 27 24 20 20 50 73 72 70 74 72 68 67 66 68 78 89 95 94 87 86 96 98 96 92 95 96 94 95 94 94

GFSGL_700_rhum_048.txt.gz
RH
33 43 63 68 57 66 59 58 57 81 96 100 98 100 100 84 71 64 68 71 73 72 71 75 75 47 21 19 17 16 14 12 10 7 6 6 5 4 4 3 4 6 7
26 51 73 72 72 65 61 57 76 86 92 84 89 96 90 86 65 69 72 74 75 76 79 78 39 21 19 18 16 14 11 8 7 6 6 5 4 4 4 5 8 11 13
33 79 86 80 74 64 61 84 63 99 83 100 100 95 84 66 70 73 76 78 80 82 78 31 21 19 17 15 13 10 7 7 7 6 4 4 4 5 6 10 14 18 27
52 77 82 80 69 66 64 75 98 84 99 100 99 83 68 71 74 78 82 85 86 71 23 20 19 17 15 12 8 7 6 6 5 4 4 4 6 8 14 21 21 39 50
70 79 87 80 81 73 69 66 96 100 98 97 89 69 73 78 83 85 91 92 52 22 20 19 16 14 11 8 7 7 6 5 4 4 4 6 9 15 30 40 57 56 55
84 96 96 97 84 71 97 100 100 100 96 78 71 80 96 87 90 97 86 27 21 20 18 15 13 9 7 7 7 6 5 5 5 6 8 12 14 30 59 71 67 61 55
93 99 100 90 85 96 99 100 99 86 87 79 94 88 90 98 97 65 22 21 20 17 14 12 8 7 7 6 5 4 5 8 10 15 15 22 35 68 71 71 71 74 64
98 100 97 100 100 100 100 99 84 80 95 88 89 97 98 85 26 22 21 19 16 13 11 8 7 7 6 5 4 5 8 10 14 16 26 50 72 72 75 87 85 81 64
99 100 100 100 100 99 98 97 98 88 89 97 98 93 29 22 22 21 18 15 12 10 8 8 7 6 5 5 6 9 10 11 20 44 68 70 72 84 92 91 87 80 66
100 100 100 100 98 98 93 88 91 98 98 93 28 23 22 22 20 17 14 12 9 7 8 8 7 6 5 7 11 11 12 29 55 60 64 74 83 82 86 93 94 90 81
99 99 98 94 93 89 94 98 98 83 30 24 23 23 22 19 16 13 11 8 7 7 8 7 6 6 9 12 12 17 38 58 60 68 74 77 79 81 86 91 92 92 86
88 82 88 97 98 98 97 66 31 24 23 23 23 20 17 14 12 10 8 7 8 8 7 5 7 11 12 12 19 46 62 64 70 72 74 76 75 79 82 86 88 94 95
99 100 100 100 95 56 29 24 23 24 24 22 18 15 14 12 9 8 9 10 10 7 6 8 11 12 12 20 50 62 67 71 71 73 75 78 82 84 86 90 91 95 89
100 99 89 51 28 25 24 24 24 23 20 17 14 13 10 8 8 9 10 10 7 5 8 10 11 11 19 51 62 70 75 73 73 74 79 84 85 84 86 91 87 86 80
76 43 27 25 24 25 25 24 21 18 16 14 12 9 8 8 9 9 7 5 5 8 10 11 12 19 53 61 69 73 78 78 81 86 89 88 86 83 85 88 89 82 81
26 25 24 25 26 25 23 19 17 15 13 11 9 8 9 9 8 5 5 7 10 10 11 12 17 51 62 68 69 70 80 86 90 92 93 92 89 86 84 86 87 87 84
25 26 26 26 25 21 18 16 14 12 10 8 8 8 8 6 4 6 9 10 11 11 14 16 48 62 69 71 73 80 87 92 93 94 94 94 93 88 88 88 87 87 84
27 27 27 23 19 17 15 14 11 9 8 8 9 8 5 5 9 10 10 10 13 15 17 43 62 69 69 70 76 84 92 95 96 97 96 95 96 95 90 88 90 90 88
29 25 21 18 16 15 13 10 8 8 8 8 7 6 7 11 11 11 12 12 14 16 40 65 70 70 70 72 78 86 91 92 94 94 97 97 97 95 91 92 91 93 95
23 19 18 16 14 12 9 8 8 8 8 6 6 9 10 10 11 12 14 14 17 33 64 71 71 66 66 70 78 82 83 92 96 97 97 97 98 98 96 94 94 91 88
19 17 15 13 11 9 8 8 7 6 6 7 10 10 11 11 13 14 15 17 22 63 72 73 66 65 68 74 74 77 89 97 100 98 97 97 97 96 98 99 96 88 85
17 15 13 10 8 8 7 7 6 6 8 10 11 12 14 17 16 17 18 18 53 68 70 65 64 67 72 73 74 86 96 92 95 98 98 98 98 98 98 96 90 86 86
14 12 10 8 8 7 6 6 7 9 11 13 16 19 20 20 19 20 18 36 70 74 69 64 65 71 72 73 83 94 94 90 97 99 95 95 96 98 98 99 97 95 100
12 10 8 8 7 6 6 7 9 12 14 18 23 26 25 25 24 20 23 66 76 71 66 65 67 65 69 77 89 97 95 96 96 94 100 100 99 98 99 99 98 99 99
10 9 8 7 6 6 7 10 11 11 14 19 26 30 31 29 22 20 58 76 73 72 70 68 64 67 72 80 89 93 95 95 95 97 100 100 95 97 98 97 98 98 98
9 8 7 6 6 7 9 10 10 14 20 28 32 32 27 22 21 51 75 74 73 75 67 63 64 68 76 80 82 83 86 91 94 96 97 96 90 84 92 94 97 98 97

GFSGL_700_rhum_051.txt.gz
RH
38 39 59 59 68 55 70 79 74 68 66 57 66 94 99 97 100 100 100 96 71 72 75 74 76 78 78 55 22 20 19 17 15 12 9 7 6 5 4 3 3 3 4
46 42 52 70 54 63 86 83 74 70 64 70 94 90 100 99 100 100 100 94 77 78 81 80 86 82 46 21 20 19 16 13 10 8 6 5 4 3 3 3 4 5 7
57 64 52 42 41 83 89 77 74 68 82 100 100 94 97 100 100 100 83 80 83 91 86 91 87 34 21 20 18 15 11 8 6 6 5 4 3 4 4 4 5 8 15
56 57 87 58 93 93 87 80 82 74 97 100 94 98 100 100 99 98 89 84 94 92 95 78 25 21 20 17 13 10 7 6 5 4 3 3 4 5 6 7 7 21 38
97 97 77 96 99 94 87 92 81 99 99 99 88 100 100 98 93 85 90 96 97 97 64 22 20 19 15 11 8 6 6 5 4 4 4 6 6 7 10 19 40 49 49
99 91 94 100 100 99 100 100 100 100 95 100 100 99 97 87 83 96 95 99 94 24 21 20 17 13 10 7 6 6 5 4 4 6 8 8 10 22 50 55 54 51 46
100 83 100 99 99 100 100 100 100 99 100 100 99 96 96 100 94 98 98 43 22 21 19 15 12 9 7 6 6 5 5 5 9 10 9 18 42 57 56 55 60 64 64
99 100 100 100 100 100 100 100 100 100 100 98 94 98 98 99 98 57 23 22 20 16 14 10 8 6 6 6 5 5 6 8 10 11 32 52 56 59 66 71 72 71 68
99 100 100 99 99 100 100 100 100 98 97 99 96 99 99 52 23 23 22 18 15 12 9 7 6 6 6 5 5 6 7 9 13 43 58 60 68 73 75 69 74 67 62
100 99 99 100 100 100 100 97 99 98 96 100 98 46 24 23 23 19 16 14 11 8 7 7 7 6 5 5 6 7 8 14 45 53 61 68 70 74 78 81 82 76 77
100 99 98 99 98 98 98 98 97 100 90 33 24 23 24 20 17 14 12 9 7 6 6 5 4 4 5 7 8 9 17 46 49 54 60 66 71 75 79 86 88 86 82
98 99 98 99 99 97 100 100 64 29 24 24 24 22 18 16 14 11 8 6 6 5 4 4 5 6 8 9 10 25 52 53 56 56 59 68 72 76 78 83 85 90 92
98 96 91 95 98 78 38 27 24 24 25 22 19 16 15 12 9 7 6 6 5 4 5 7 7 8 10 12 32 55 57 58 56 60 67 72 77 78 81 80 86 89 89
97 95 91 52 31 26 25 25 25 24 20 17 15 13 11 8 6 7 6 4 4 6 8 8 8 10 11 35 57 62 64 64 67 71 76 82 86 86 86 86 82 85 80
59 42 33 27 26 26 26 25 21 18 16 14 12 9 7 6 6 5 4 5 7 8 8 9 10 12 39 58 63 66 71 76 79 84 87 88 88 87 86 88 89 85 80
34 28 27 27 27 26 23 19 17 16 13 10 8 7 7 6 5 5 6 8 9 9 9 9 11 38 55 58 62 70 76 79 84 88 93 96 92 90 86 88 88 88 85
27 27 28 29 26 20 18 16 14 12 9 7 7 6 6 5 5 6 8 9 9 10 10 12 33 56 57 63 65 68 73 82 86 93 94 94 93 90 92 92 92 89 85
29 30 29 23 19 18 16 13 10 8 7 7 6 5 5 6 7 8 9 9 12 11 12 26 58 59 58 59 62 71 77 84 94 95 95 97 98 96 92 94 94 91 86
32 27 21 19 17 14 12 9 8 7 6 6 5 6 7 8 10 10 11 12 12 13 22 58 61 57 56 61 71 76 84 92 90 95 98 96 97 97 95 97 94 94 88
25 20 18 16 13 11 8 8 7 6 5 5 6 7 10 11 12 15 16 14 14 17 58 63 60 56 62 68 72 82 92 91 94 96 96 98 98 99 97 96 92 86 83
20 18 15 13 10 8 8 7 6 5 5 6 8 10 13 16 19 20 17 15 16 53 68 65 60 64 67 68 77 88 92 93 95 97 98 98 98 97 99 100 98 98 94
18 15 13 10 9 8 7 6 5 5 6 8 9 12 17 23 24 21 19 17 40 67 65 63 64 64 67 73 81 89 90 90 95 97 96 96 96 97 96 95 94 95 98
15 13 10 9 8 7 6 5 5 6 7 8 12 16 19 22 24 22 18 31 69 70 65 63 65 69 72 80 84 84 86 91 96 98 91 92 96 97 97 97 97 94 96
14 11 10 9 8 6 5 6 6 6 7 10 14 17 19 19 19 17 31 70 70 66 64 62 65 67 74 79 79 81 88 96 98 93 100 100 96 89 92 96 96 94 95
12 11 10 8 7 6 6 6 6 7 9 10 12 12 13 14 15 43 68 68 68 67 63 63 67 68 74 72 74 79 87 96 99 100 100 98 92 86 83 89 90 94 96
12 11 9 7 6 6 6 6 7 9 9 9 9 10 12 23 55 62 63 66 68 66 62 63 66 64 70 73 77 80 81 80 73 74 91 97 94 87 76 76 86 91 95

GFSGL_700_rhum_054.txt.gz
RH
35 28 29 24 39 50 65 67 76 65 72 84 86 88 80 84 96 92 100 100 98 100 100 98 98 81 80 80 81 82 52 22 21 20 15 11 8 6 5 4 3 3 3
43 32 35 29 48 56 67 75 79 71 78 87 91 86 86 99 90 100 90 100 100 99 99 90 85 83 86 88 83 39 21 20 18 14 10 7 5 4 3 3 3 4 4
45 45 43 56 61 76 76 79 65 88 88 90 86 88 99 99 100 97 100 100 96 99 94 97 99 92 93 82 27 21 19 15 11 8 6 5 4 3 3 3 4 4 7
52 57 58 69 72 62 78 71 65 100 93 98 96 100 97 100 100 100 100 100 99 97 93 98 98 93 44 22 21 18 13 10 7 5 4 4 3 3 4 4 6 26 36
70 79 81 84 76 79 52 54 99 99 99 99 100 100 100 100 100 99 99 98 96 98 97 98 52 22 22 19 15 11 8 6 5 4 4 3 4 5 6 22 33 33 34
93 99 88 99 100 91 86 98 100 100 98 100 100 99 98 100 100 99 97 96 94 95 76 23 22 20 16 13 9 6 6 5 4 4 4 5 6 8 36 38 33 30 26
86 87 95 100 90 100 98 100 100 100 100 100 100 99 99 100 98 97 89 93 81 26 23 21 17 14 10 7 6 5 5 4 5 6 7 8 12 42 44 37 38 42 42
99 99 98 75 100 100 100 100 100 99 99 100 99 99 99 97 92 97 87 32 23 22 19 15 12 8 6 5 4 3 4 4 7 8 9 21 46 47 46 45 48 49 47
99 100 96 94 100 100 100 99 99 99 98 98 98 99 93 95 78 26 23 23 20 16 13 9 7 6 4 3 3 4 5 7 8 10 37 52 56 60 62 58 61 56 48
100 95 100 99 98 99 98 99 98 98 98 96 98 96 53 24 24 24 20 17 14 10 7 6 5 3 3 5 6 6 6 7 11 45 56 61 64 66 71 74 74 70 68
97 96 99 98 98 97 98 98 97 96 96 77 28 25 25 24 20 17 14 11 8 6 5 4 3 4 6 7 7 7 8 16 46 49 52 58 69 74 80 88 93 88 76
99 98 97 96 97 98 99 97 86 39 25 24 25 24 20 17 15 12 8 6 6 5 4 4 5 7 7 7 8 9 30 50 50 53 63 74 77 84 89 91 93 94 94
98 98 97 98 98 75 35 26 25 26 25 23 19 17 15 13 10 7 6 6 4 4 4 6 7 8 8 9 12 45 52 52 57 67 74 80 83 83 89 90 92 96 90
97 97 76 35 27 25 26 26 26 23 19 17 16 13 10 8 7 6 5 4 4 6 7 8 8 8 8 13 49 53 58 63 66 71 77 83 87 87 89 94 87 86 79
41 28 26 26 27 28 27 24 20 18 16 14 11 9 7 7 6 5 5 5 6 7 8 8 8 10 19 54 59 63 68 70 75 80 87 88 87 87 88 93 92 86 80
27 27 28 29 29 25 20 18 16 14 12 9 8 7 7 6 5 5 6 7 8 9 9 9 10 20 52 54 56 61 68 73 80 87 88 87 85 84 81 84 87 87 82
29 30 30 26 22 19 18 15 13 10 8 8 7 6 5 5 5 7 8 10 10 11 11 10 15 51 54 53 56 68 73 84 88 88 87 87 85 84 88 89 89 84 75
32 30 25 21 19 17 14 11 9 8 8 6 6 5 5 6 8 10 11 13 14 14 11 12 50 54 52 56 67 73 85 89 89 91 89 91 94 93 92 93 93 88 79
31 25 20 18 16 13 10 8 8 7 6 5 5 5 6 8 9 11 15 16 16 14 13 44 56 53 58 66 73 84 89 89 88 92 96 94 97 96 92 92 92 96 98
25 21 18 15 13 10 9 8 7 6 5 4 4 5 6 8 11 14 16 18 16 14 42 59 54 57 64 71 79 85 89 89 91 94 95 98 97 97 92 90 94 97 99
21 18 15 13 10 9 9 8 6 5 4 4 4 5 6 9 12 14 16 16 15 44 60 55 57 64 69 74 79 81 81 87 89 91 94 96 93 86 92 95 95 97 99
19 16 13 11 10 9 8 6 5 4 4 4 4 5 7 9 11 12 13 15 50 58 56 57 61 65 70 70 71 74 81 83 87 89 92 91 84 75 81 92 97 98 99
17 14 12 11 10 9 7 6 4 4 4 4 4 5 6 7 9 10 22 49 55 54 54 58 63 68 71 69 68 72 78 77 72 82 89 86 93 95 85 84 91 95 98
16 13 12 12 10 8 6 5 4 4 4 4 4 4 5 7 12 36 45 52 52 52 56 60 59 64 68 69 71 73 73 64 60 61 68 84 97 96 90 78 80 89 95
16 13 13 12 9 7 6 5 4 4 4 5 5 6 10 27 40 46 51 51 52 54 57 60 58 56 64 68 68 64 60 61 60 56 62 74 90 96 91 79 72 81 89
16 14 14 12 8 6 5 4 4 4 6 6 8 19 35 41 47 51 52 54 58 62 67 67 64 57 55 56 55 54 55 59 57 51 54 70 87 93 86 76 69 75 82

GFSGL_700_rhum_057.txt.gz
RH
46 48 46 38 33 28 28 28 47 56 56 68 73 82 85 90 96 94 97 100 94 100 96 100 100 95 98 99 84 87 85 85 83 64 23 21 18 14 9 6 5 4 3
58 54 46 36 33 34 33 31 44 61 60 74 85 84 83 94 98 96 100 88 99 100 99 99 99 99 98 98 98 94 93 88 30 22 20 15 11 7 6 4 3 3 3
65 45 46 59 55 38 39 45 58 60 79 86 94 80 88 97 100 100 98 100 100 100 100 100 99 98 98 98 96 92 38 22 20 16 13 8 6 5 4 3 3 3 4
58 48 58 69 66 59 63 66 73 90 78 94 79 97 100 100 99 100 100 100 100 99 100 100 98 98 97 93 42 22 21 17 13 9 6 5 4 3 3 3 3 4 8
60 52 58 76 78 78 77 90 100 93 91 72 93 100 100 98 100 99 99 100 98 98 99 99 98 96 37 23 22 17 14 10 7 5 4 3 3 4 4 5 5 15 28
55 60 78 89 96 92 95 90 71 83 87 65 100 99 98 92 100 100 99 98 98 98 100 96 31 23 22 17 14 10 7 6 4 4 4 4 4 6 6 8 28 30 18
48 77 89 98 93 95 83 98 91 82 60 100 99 100 100 99 99 99 98 98 98 96 45 24 22 18 14 11 7 6 4 4 4 5 5 6 6 7 18 35 34 29 29
87 99 96 99 100 99 84 96 100 99 100 100 99 100 99 97 99 97 98 88 35 24 23 18 15 11 8 6 5 4 4 6 6 6 7 8 14 37 42 34 31 34 39
99 96 88 99 98 98 100 100 100 99 100 100 100 97 98 99 97 78 27 24 23 18 16 12 8 7 5 4 4 4 6 7 7 8 12 37 48 48 52 45 52 54 51
97 99 100 100 100 100 99 97 98 100 99 96 96 98 97 42 25 26 23 18 16 13 9 7 6 4 4 4 5 6 6 7 7 20 49 52 53 57 68 75 75 72 75
94 96 99 99 98 99 98 98 97 98 97 94 50 26 25 25 22 18 15 13 9 7 6 5 4 4 5 6 7 7 7 7 25 38 44 56 65 72 78 85 93 93 90
97 97 96 97 98 97 98 97 89 48 29 26 26 24 20 17 15 12 9 7 7 6 5 5 5 5 6 7 7 7 10 36 41 50 55 60 64 75 84 89 92 97 94
98 98 99 97 97 77 42 27 26 27 27 23 19 17 14 11 8 7 7 6 6 5 5 5 6 8 8 8 8 21 44 45 50 55 62 71 75 74 79 82 85 87 83
98 90 55 30 27 26 27 28 26 21 18 16 13 10 8 8 7 7 6 5 5 5 7 8 9 9 8 8 32 45 47 50 55 64 74 75 75 75 77 79 77 78 72
33 28 27 28 29 29 24 20 18 16 13 10 8 8 8 7 6 5 4 5 7 8 9 10 11 10 10 41 52 53 53 59 69 78 77 77 77 76 80 86 86 82 76
27 29 30 30 25 21 19 16 14 11 9 9 8 7 6 4 4 4 6 7 8 10 11 12 12 11 46 50 51 55 61 69 78 78 81 82 80 81 79 83 88 92 89
32 33 30 24 21 18 15 12 10 9 9 8 6 5 4 3 4 5 6 7 10 11 14 12 12 48 51 50 55 60 70 76 77 82 86 88 85 82 89 90 90 92 87
34 28 23 20 17 14 11 10 10 9 8 6 4 3 3 4 4 4 7 9 10 12 11 14 49 49 48 56 62 70 75 76 82 86 89 88 91 91 90 92 94 94 90
29 24 21 17 14 12 10 10 9 8 6 4 3 3 3 3 3 4 5 6 9 10 18 45 46 47 55 63 70 72 73 78 80 82 90 94 93 92 89 90 93 96 97
26 22 18 15 12 11 11 10 8 6 4 3 3 3 3 3 3 4 5 7 9 30 43 43 45 53 60 67 69 69 75 78 80 85 89 91 93 97 91 80 83 90 95
23 20 16 14 12 11 10 9 7 5 4 3 3 2 2 3 4 5 6 12 37 41 40 44 52 58 64 65 66 69 72 71 66 62 65 74 88 94 93 88 83 87 96
22 18 16 13 12 12 10 8 6 4 3 3 3 3 2 3 4 6 23 35 40 40 44 51 52 58 60 59 62 68 64 52 50 49 53 64 76 90 90 93 94 85 94
20 17 15 13 13 12 10 8 6 4 3 3 3 3 3 4 9 27 33 38 39 42 49 52 52 55 58 61 61 60 59 58 56 51 49 54 70 90 99 99 94 78 84
20 17 15 14 14 12 10 7 5 3 3 4 4 5 8 17 29 34 40 40 42 46 51 54 52 50 52 54 55 52 51 53 56 53 51 66 73 83 94 96 89 75 77
19 18 16 16 15 12 9 6 4 4 4 5 5 8 22 32 36 41 41 42 46 51 57 60 61 60 55 54 54 55 55 50 49 48 50 77 77 78 81 88 83 71 76
20 19 19 18 15 12 8 6 4 4 5 6 7 13 31 37 43 46 46 50 59 65 70 75 76 74 74 70 61 57 58 60 55 50 48 66 77 67 54 67 69 69 71

GFSGL_700_rhum_060.txt.gz
RH
42 43 43 42 44 48 49 45 35 33 38 51 60 67 71 77 85 93 94 90 100 100 99 100 100 99 100 100 100 99 100 99 97 93 93 82 32 22 19 14 10 7 6
57 58 57 55 51 49 51 46 37 33 32 45 60 66 66 84 85 91 92 94 100 100 100 100 99 94 99 100 98 99 99 98 98 89 47 23 21 15 10 7 6 4 3
72 71 69 70 66 59 50 45 44 35 38 40 65 74 80 89 90 88 84 92 100 99 100 100 100 99 100 98 98 99 98 94 42 23 22 15 10 6 5 4 3 3 3
81 78 80 66 52 66 75 70 56 44 45 61 79 85 98 98 99 77 72 79 91 100 100 100 100 98 100 96 97 88 45 23 20 15 11 6 5 4 3 3 3 4 4
85 79 66 60 53 58 66 62 62 76 80 89 85 95 91 97 88 88 100 100 100 100 99 99 98 98 98 92 58 23 20 15 10 6 5 4 3 4 4 4 4 4 7
70 62 51 54 56 72 80 85 93 92 68 97 100 96 92 80 100 96 100 100 100 98 100 98 97 95 43 24 18 14 10 7 5 4 3 4 5 5 5 5 10 25 23
44 47 52 66 75 83 80 87 97 95 95 99 100 98 91 100 99 99 100 99 98 98 97 88 32 23 18 14 10 7 6 4 4 4 5 6 6 6 10 27 31 29 29
86 80 88 99 90 78 93 99 100 99 98 97 95 100 99 98 98 98 98 98 96 74 28 24 18 14 10 7 6 5 4 4 5 6 6 6 10 29 34 30 36 37 42
100 100 100 92 89 99 99 90 99 99 100 100 98 98 100 100 98 99 96 86 34 23 17 13 9 7 7 6 5 4 5 6 6 7 9 28 38 42 48 45 53 55 58
100 100 100 100 100 96 95 98 98 100 96 98 98 98 97 94 66 31 24 19 16 12 9 7 7 6 6 5 5 5 6 7 7 14 43 47 51 55 60 67 70 68 68
99 99 99 100 100 93 97 98 97 97 97 97 94 68 44 26 22 17 13 10 8 8 7 6 5 5 5 6 7 8 7 7 20 36 44 50 57 68 75 75 72 69 66
98 98 98 97 97 96 96 97 89 50 29 26 26 22 18 14 10 9 8 8 6 5 5 5 5 6 8 8 8 8 8 29 40 47 50 59 68 70 72 68 70 70 74
91 91 96 99 98 74 36 27 27 26 22 18 15 11 10 9 8 7 5 4 4 4 5 6 7 8 9 9 9 10 37 42 44 51 62 69 70 69 73 70 76 77 78
91 75 48 30 27 28 28 24 20 18 14 11 10 9 8 6 5 4 3 3 4 4 5 6 7 8 10 9 19 38 41 44 55 63 67 70 72 72 77 80 77 78 75
28 28 28 30 29 24 20 18 14 12 10 10 8 7 5 4 3 3 2 2 3 4 5 6 8 10 9 30 40 42 49 57 66 70 71 72 75 76 80 81 81 78 77
29 31 31 26 22 20 16 13 11 10 9 8 6 4 3 2 2 2 2 2 3 4 5 7 8 14 38 42 44 56 59 64 67 70 75 77 79 82 78 73 73 83 86
33 31 25 22 19 15 13 11 11 9 8 6 4 3 2 2 2 2 2 2 3 4 6 7 27 34 38 47 53 58 62 64 68 73 78 82 86 85 84 81 78 76 83
33 27 23 20 16 13 11 11 10 9 7 5 3 2 2 2 2 2 2 3 4 5 14 28 31 37 46 51 57 59 60 65 69 72 75 77 81 87 91 90 84 78 77
30 25 21 17 14 12 12 11 10 8 6 4 3 2 2 2 2 2 3 4 5 19 26 29 38 44 49 54 55 57 59 63 62 58 59 63 67 73 84 93 93 90 82
27 23 19 16 14 12 12 12 10 8 6 3 3 2 2 2 2 3 4 6 22 26 29 37 41 46 50 53 54 54 56 53 53 54 56 56 57 67 84 94 95 84 75
26 23 19 16 14 13 13 12 10 8 5 3 3 3 2 3 3 4 6 23 26 28 34 41 42 46 50 51 55 57 55 55 56 58 57 53 61 70 76 89 85 84 78
26 22 19 16 14 15 14 13 10 7 4 3 3 3 3 5 4 7 22 27 28 30 39 44 43 44 46 48 51 52 51 50 50 49 48 48 70 80 74 75 86 86 80
25 21 19 17 16 17 16 14 10 7 4 3 3 4 4 9 13 25 28 33 32 36 44 48 49 48 46 46 48 49 53 56 56 54 49 47 53 70 71 54 60 72 76
25 22 20 19 20 19 17 14 10 7 4 4 4 4 5 13 27 30 36 37 38 42 46 50 54 57 61 62 60 59 57 58 60 62 61 48 47 68 62 41 38 37 59
27 24 22 21 22 21 18 14 9 6 4 4 5 6 7 15 33 39 43 43 46 51 55 58 64 68 68 68 69 72 72 73 69 65 67 57 47 61 74 64 66 45 39
30 26 24 24 24 22 18 14 9 6 4 5 5 7 9 15 34 43 48 51 54 60 62 62 65 68 69 72 74 75 76 75 80 70 71 59 45 61 74 65 54 34 43

GFSGL_700_rhum_063.txt.gz
RH
45 48 49 46 42 42 42 42 42 42 44 46 44 37 52 62 70 73 79 88 99 97 95 94 96 93 82 99 100 100 100 99 99 99 98 99 99 95 66 24 21 17 12
50 53 56 57 58 58 53 51 50 48 49 49 46 35 43 58 70 77 83 88 98 94 93 94 87 86 99 100 100 100 96 98 99 100 99 98 57 23 19 15 10 6 5
28 50 69 72 70 68 67 66 64 62 55 51 44 34 42 63 72 78 84 93 90 86 92 95 92 100 99 100 97 99 100 99 98 88 82 51 23 14 9 6 5 4 4
34 55 68 74 76 76 66 52 52 72 67 68 51 40 43 78 85 85 96 95 98 100 100 100 100 99 99 98 98 98 98 97 94 63 25 16 10 6 5 4 4 4 4
29 44 49 55 54 59 55 57 58 61 65 65 57 50 56 82 95 100 100 100 99 99 100 99 99 99 95 97 97 96 80 26 19 13 8 6 5 4 4 4 4 4 5
26 46 56 53 51 55 66 70 60 76 86 100 99 100 100 98 96 99 100 99 100 99 98 98 98 98 98 94 37 21 15 11 7 6 5 4 4 4 4 4 4 14 19
31 37 39 43 53 86 88 78 98 98 97 98 99 99 99 100 100 100 99 99 98 98 97 100 94 91 52 21 16 10 7 7 6 5 5 5 5 5 5 11 26 30 34
72 76 71 50 81 94 92 92 95 99 99 99 98 98 99 99 98 99 98 97 97 97 93 71 28 18 14 10 8 7 6 5 5 6 6 6 6 11 27 30 37 41 44
92 92 96 97 85 98 93 98 98 100 99 99 99 100 100 99 99 97 97 83 38 24 20 15 11 8 8 7 7 6 5 5 6 7 6 9 26 36 40 44 52 48 44
99 99 100 99 98 100 99 97 97 97 98 98 97 98 98 97 91 41 24 19 15 11 9 8 8 7 6 5 5 5 6 7 7 9 29 38 41 46 55 56 51 53 53
98 94 100 100 99 98 94 95 96 97 97 97 89 60 28 22 18 14 10 9 8 7 6 4 4 4 4 5 6 6 8 8 21 36 39 42 54 62 63 63 64 61 58
100 99 99 97 97 93 93 82 52 32 27 25 21 17 12 10 9 8 6 4 3 3 2 2 2 3 4 5 6 7 10 30 35 41 53 59 62 66 70 68 68 67 69
90 89 90 92 72 36 27 27 26 20 17 14 10 10 9 7 5 3 3 2 2 2 2 2 2 3 4 6 7 23 30 36 45 51 55 58 62 65 68 65 70 68 75
78 54 31 27 28 29 24 20 16 12 10 10 9 7 5 3 3 2 2 2 2 2 2 2 3 5 6 16 25 30 39 46 49 51 53 58 62 66 72 70 66 63 63
27 28 30 30 24 21 18 14 11 11 10 9 6 4 3 2 2 2 2 2 2 2 2 4 5 12 20 26 34 40 44 46 50 53 56 62 67 70 78 81 82 77 69
31 32 29 24 21 18 14 12 12 10 9 7 5 3 3 3 2 2 2 2 2 2 4 6 16 21 29 35 41 44 46 48 50 53 56 57 59 61 66 77 83 84 80
34 31 26 22 18 15 12 12 12 10 9 6 4 3 3 3 2 2 2 2 3 4 7 17 22 30 36 38 41 43 46 49 50 52 50 48 48 51 55 69 83 85 82
33 28 24 20 17 14 13 13 12 11 9 6 4 3 3 3 2 2 2 2 4 6 17 22 30 36 39 40 40 40 42 44 44 45 49 53 51 53 61 65 73 82 78
32 27 23 19 16 14 13 14 13 12 9 6 4 3 3 3 2 3 3 3 4 16 21 28 36 39 41 41 42 43 44 47 49 51 51 50 50 57 73 76 74 81 82
32 27 22 18 16 14 14 15 15 13 9 6 4 3 3 3 2 4 4 4 13 22 26 35 39 40 44 46 47 48 49 48 48 49 49 48 48 49 62 71 61 50 49
32 26 22 19 16 16 17 17 16 14 10 6 4 3 3 3 3 7 6 10 24 28 30 40 42 41 41 42 45 47 48 49 52 55 58 60 56 46 48 63 50 36 34
32 27 23 20 18 18 18 19 18 15 11 7 4 3 3 4 4 13 18 27 29 31 33 43 46 46 46 47 48 49 50 52 54 55 57 61 63 55 45 56 64 65 67
32 28 24 21 20 20 21 21 19 16 11 7 4 4 4 4 5 16 29 32 37 36 39 46 50 54 56 60 62 62 63 65 69 73 70 64 65 62 44 49 72 58 47
32 28 25 22 22 23 24 24 21 17 12 7 4 4 4 6 7 14 33 41 44 42 44 51 57 65 66 65 65 66 70 70 73 77 78 71 67 61 43 57 59 33 27
32 30 27 25 26 27 28 27 23 18 13 7 5 4 5 7 9 12 32 44 49 49 52 59 63 67 68 66 66 69 70 71 75 78 78 70 72 52 45 59 50 33 28
33 31 29 28 30 32 32 30 24 19 13 8 5 5 6 9 12 12 25 42 48 53 59 65 69 71 65 68 67 66 67 72 77 80 75 74 65 43 52 57 56 32 48

GFSGL_700_rhum_066.txt.gz
RH
35 39 43 43 43 43 43 43 43 43 43 42 40 37 38 40 42 52 63 68 70 85 94 100 93 94 100 100 100 100 100 96 100 100 98 99 96 98 98 98 92 86 74
27 27 32 47 53 58 61 58 54 52 51 50 49 46 43 44 44 42 43 69 79 77 84 100 99 99 100 99 99 100 100 100 99 98 98 99 97 96 96 97 90 71 23
11 12 15 20 27 53 73 74 73 71 68 66 64 60 53 50 48 44 40 59 80 85 90 94 100 100 99 99 100 100 99 98 97 98 99 96 96 78 31 17 14 9 6
15 16 20 29 42 51 58 65 65 56 48 47 59 64 59 54 48 46 47 67 89 93 99 99 96 97 100 100 99 99 98 97 98 98 86 52 26 17 11 7 6 5 4
17 17 22 27 36 39 44 46 47 49 55 59 64 69 76 73 69 62 90 86 88 97 100 77 99 99 99 98 98 97 96 97 90 36 18 14 9 7 6 5 5 4 4
28 24 25 26 31 33 37 43 48 61 63 67 80 82 98 78 67 73 100 100 98 95 98 100 99 98 98 98 95 93 58 20 16 11 8 7 6 5 5 5 5 5 9
41 38 45 58 34 40 48 55 72 82 84 80 86 93 99 99 99 98 99 99 98 99 99 96 96 97 96 84 34 19 15 10 8 7 6 5 5 6 6 6 16 26 32
55 58 56 54 42 50 61 74 71 85 84 98 97 98 98 98 98 98 99 98 97 97 97 96 78 35 20 16 12 9 8 7 5 5 6 6 6 7 15 27 32 40 45
66 67 60 68 66 66 75 87 94 99 91 95 96 98 97 97 97 97 97 97 94 62 25 17 13 10 9 8 7 5 5 5 5 5 5 6 13 26 31 41 47 41 40
74 77 92 81 85 86 81 83 92 94 89 89 94 96 96 97 92 67 25 21 15 12 9 8 7 6 4 3 3 3 4 4 5 6 13 23 30 40 46 46 46 45 47
75 75 90 89 90 83 79 77 81 88 88 72 49 32 23 18 14 11 10 9 8 5 4 3 2 2 2 2 2 3 4 6 14 22 28 39 47 50 49 50 50 50 51
92 98 98 91 83 77 62 34 28 26 24 19 15 12 10 9 8 6 4 3 2 2 2 2 2 2 2 2 4 6 14 21 29 38 43 47 47 49 51 54 60 59 61
84 88 83 76 40 27 29 27 22 18 14 11 10 9 7 5 3 3 3 2 2 2 2 2 2 2 3 6 13 20 28 35 38 39 41 44 47 50 54 56 64 66 69
82 63 30 28 30 29 23 19 15 12 11 10 8 6 4 3 3 3 2 2 2 2 2 2 2 4 9 17 25 31 34 36 37 39 42 45 47 50 54 55 60 66 67
27 28 31 31 26 22 17 13 11 11 10 9 6 4 3 3 4 3 2 2 2 2 2 3 5 12 20 27 30 32 34 36 38 41 43 44 42 42 45 48 51 56 65
31 32 29 25 22 18 14 12 12 12 11 9 6 4 3 3 4 3 2 2 2 2 3 5 12 20 26 28 29 30 33 36 38 39 38 39 42 45 48 56 63 63 62
34 32 28 25 21 17 14 13 13 13 12 10 7 4 3 4 4 3 2 2 3 3 3 8 17 26 30 31 31 32 35 36 38 41 44 46 45 43 44 50 65 68 66
34 31 27 24 19 16 14 14 15 15 15 12 8 5 4 4 4 3 2 3 3 3 4 15 22 30 33 34 35 36 38 41 44 45 45 45 46 46 45 44 49 58 50
35 31 27 23 19 17 15 15 16 17 17 14 10 6 4 4 4 3 2 4 4 4 10 20 26 35 38 39 40 42 42 44 45 47 50 53 56 59 61 54 45 53 64
36 32 28 24 21 18 16 17 18 19 18 16 12 8 4 4 3 3 3 6 7 8 19 24 29 39 40 41 42 43 43 44 46 48 51 54 57 60 64 64 50 47 64
37 34 29 25 22 19 18 19 20 21 21 18 14 9 5 4 3 3 4 8 16 20 24 28 32 42 45 44 45 46 48 53 58 64 69 71 74 76 69 68 54 49 61
37 35 30 26 23 21 20 22 24 25 24 20 16 10 6 4 4 4 5 8 21 26 30 33 34 43 49 51 54 60 67 67 67 69 72 74 78 80 71 69 50 52 52
35 37 32 28 25 24 23 25 27 28 26 23 18 12 7 4 4 5 7 8 20 31 37 40 42 48 52 59 66 66 66 68 72 72 71 75 80 78 72 65 45 50 56
35 42 40 30 28 26 27 29 31 32 30 26 21 13 8 5 4 6 9 10 15 34 43 46 48 57 68 71 71 68 69 70 69 71 72 75 78 74 69 49 46 60 63
57 78 36 31 30 28 30 34 38 38 34 30 24 16 9 5 5 7 12 13 13 30 45 51 54 62 70 75 68 71 70 68 68 70 69 70 72 71 56 44 56 60 63
90 42 36 32 31 30 32 38 42 42 39 36 27 17 9 6 5 9 15 17 15 25 44 51 56 68 77 70 71 71 63 64 67 72 73 74 72 60 47 48 60 62 57

GFSGL_700_rhum_069.txt.gz
RH
36 35 37 38 43 43 42 40 40 41 41 42 43 43 43 42 41 42 48 56 63 66 69 74 79 90 89 100 99 100 98 100 99 100 100 99 98 99 98 97 97 95 100
35 35 31 31 33 41 45 48 52 55 56 56 54 51 49 48 47 44 42 42 41 42 49 62 81 89 95 79 90 99 100 100 98 100 100 99 98 98 97 96 96 96 87
27 21 13 11 13 15 20 28 38 51 61 64 68 68 67 65 64 58 51 49 48 44 43 50 78 83 90 92 90 100 97 89 96 100 98 98 96 96 96 95 62 21 14
13 12 12 12 19 23 28 32 40 46 45 42 44 44 47 53 61 64 63 56 53 51 50 71 98 93 95 83 94 93 92 98 95 95 95 93 96 80 35 17 11 7 6
17 15 19 22 24 26 28 27 31 36 38 40 44 48 57 64 67 74 78 72 64 64 86 98 100 100 95 87 95 99 99 96 94 92 99 51 19 13 8 7 6 4 4
25 34 32 30 33 41 32 29 33 36 54 62 67 76 79 89 86 69 72 89 73 69 100 99 99 100 100 98 98 98 97 98 98 35 18 10 8 6 4 4 4 5 8
38 41 44 44 43 49 33 39 46 53 67 70 75 76 85 95 91 90 98 98 99 97 98 96 98 98 96 92 89 96 78 23 14 9 7 5 3 3 4 5 12 21 32
50 50 53 48 39 37 39 52 64 74 68 71 71 73 81 92 90 100 97 97 98 98 98 97 97 81 86 62 27 14 10 8 5 3 2 2 3 5 13 23 32 36 36
48 49 48 47 45 48 54 64 70 76 71 72 78 81 86 85 88 92 94 96 98 83 66 47 24 14 11 9 7 5 3 2 2 2 3 6 14 23 31 34 33 31 32
54 59 53 56 62 68 65 63 73 74 75 76 77 78 81 80 67 34 18 15 11 10 9 7 5 4 3 2 2 2 2 2 3 6 13 22 28 31 32 32 35 38 42
55 66 68 75 75 70 66 68 72 68 62 39 23 17 14 12 10 8 6 4 3 3 2 2 2 2 2 2 2 1 2 6 11 18 25 28 30 33 36 37 40 45 51
77 76 84 80 76 71 48 31 28 25 18 14 12 11 9 6 4 3 3 4 3 2 2 2 2 2 2 1 2 4 9 16 23 29 31 32 35 39 42 45 49 50 52
78 83 78 76 47 28 30 27 21 15 13 12 11 9 6 4 4 4 5 4 2 2 2 2 2 2 2 3 7 14 21 27 31 33 36 37 39 42 44 42 43 44 47
77 78 50 28 29 30 26 21 15 13 12 12 10 8 5 4 4 5 5 4 2 2 2 2 2 2 4 8 16 23 28 32 34 35 38 39 40 38 39 42 45 51 54
46 29 28 31 30 27 22 16 13 13 13 12 10 8 6 4 4 5 6 5 2 2 2 3 2 4 8 16 23 26 30 33 35 35 34 34 36 39 42 41 40 40 43
28 30 32 29 27 24 18 14 13 14 14 14 13 11 7 5 4 5 6 4 2 2 3 3 3 6 13 22 27 31 32 33 33 34 36 39 40 40 41 44 46 45 42
31 33 31 28 25 22 18 15 15 15 16 16 15 13 10 8 5 5 5 4 3 2 3 3 4 9 18 27 32 34 35 34 36 38 40 42 43 45 49 54 56 58 57
34 33 31 28 25 22 19 17 16 16 17 19 19 18 15 10 6 5 5 4 3 3 4 4 5 15 22 32 37 39 40 40 40 42 44 45 46 48 50 55 58 61 63
34 34 32 29 26 23 21 19 18 19 20 22 23 22 19 14 8 5 4 4 3 3 6 8 11 20 25 34 40 43 44 44 43 44 46 48 51 58 65 72 74 71 69
34 35 34 31 28 25 23 22 21 22 23 26 26 26 23 16 10 6 4 4 4 4 9 16 21 25 29 37 45 46 46 47 48 53 62 65 66 69 73 75 78 72 69
32 35 36 33 31 28 26 24 23 24 26 29 31 30 26 19 12 8 5 4 4 6 7 17 25 30 34 39 48 53 54 58 66 68 69 71 74 76 78 80 78 73 61
31 34 36 35 32 29 27 26 25 27 30 34 36 35 31 25 16 10 6 4 5 8 9 15 29 38 41 45 53 58 65 71 70 68 70 72 72 75 77 78 73 66 47
31 32 35 36 34 31 29 28 28 30 34 39 41 40 37 30 20 12 7 5 6 11 12 14 30 47 51 55 63 69 72 73 72 73 67 68 74 77 76 74 69 51 45
37 38 35 37 40 40 31 30 30 32 38 43 47 46 44 38 26 14 8 5 7 14 17 15 26 47 57 63 71 77 79 73 75 67 64 66 73 78 76 68 52 48 52
95 93 74 44 73 41 30 30 31 33 38 44 49 50 52 44 29 16 8 6 11 22 22 18 23 43 55 62 76 81 74 77 68 61 60 63 68 68 65 55 50 51 54
96 96 85 89 70 35 32 31 32 33 35 44 50 57 62 55 34 14 7 7 19 30 28 20 26 43 51 64 83 78 76 75 64 62 64 67 70 66 59 54 53 54 56

GFSGL_700_rhum_072.txt.gz
RH
39 38 38 37 35 33 38 40 42 41 42 41 42 42 43 44 45 45 45 45 45 44 44 45 49 57 66 76 79 87 98 100 99 99 100 100 98 99 97 98 100 98 97
36 35 36 33 33 34 35 40 40 42 42 45 44 49 54 58 61 61 60 56 52 51 51 47 48 46 45 51 60 90 100 99 100 98 100 93 97 100 100 100 98 96 100
31 30 29 28 25 20 14 14 18 21 24 26 32 38 42 42 45 50 45 48 58 65 65 60 55 54 50 55 76 100 96 98 93 98 99 98 95 96 99 100 99 74 27
24 20 16 13 12 13 15 21 23 27 26 25 26 30 35 36 39 44 49 54 65 72 69 64 60 64 60 98 80 100 98 100 97 100 99 100 100 100 90 36 13 9 7
25 19 15 14 17 22 26 32 32 23 20 23 33 52 49 49 54 59 61 61 61 70 82 81 68 62 81 83 96 99 100 89 99 100 100 100 87 23 11 7 4 2 2
26 24 29 32 29 32 42 38 30 30 33 38 52 55 58 65 74 74 70 73 62 91 73 88 93 100 94 89 98 100 99 87 96 100 70 18 10 7 2 2 2 7 13
42 36 38 38 39 43 47 33 36 45 48 56 57 55 56 64 69 73 80 85 95 100 99 98 100 100 97 99 98 88 100 84 37 14 9 5 2 2 2 8 14 18 18
50 50 48 49 42 38 34 34 44 54 61 63 60 58 64 66 69 77 84 91 91 93 95 96 93 88 85 72 46 21 13 9 6 4 2 2 2 6 14 17 16 15 18
55 49 51 46 42 42 43 49 55 60 68 64 60 63 65 64 55 37 29 19 18 13 12 11 11 8 7 6 4 3 3 2 2 2 2 5 11 17 17 16 17 19 23
53 52 51 49 52 60 57 55 61 64 64 62 56 28 16 13 12 7 5 5 4 4 3 2 2 2 2 2 2 2 2 2 1 3 8 16 18 17 18 20 24 29 31
51 57 61 67 66 62 60 62 58 45 28 21 15 13 11 8 5 4 5 6 6 4 3 2 2 2 2 2 2 2 1 2 6 12 19 21 21 22 24 28 32 34 37
61 63 72 73 68 64 44 30 28 24 16 14 14 12 9 6 4 4 5 6 7 4 3 2 2 2 2 2 2 2 4 8 16 20 22 22 24 26 29 30 32 36 41
73 74 72 72 54 28 30 27 22 16 14 15 14 12 10 6 5 5 6 7 8 6 3 2 2 2 2 2 3 5 11 18 21 24 26 27 29 30 30 32 34 36 38
75 72 68 37 28 30 27 23 18 15 15 16 15 13 11 9 7 6 6 8 9 6 4 2 2 3 3 3 6 12 19 23 26 27 29 30 30 31 33 36 37 39 42
69 48 29 29 31 28 26 21 18 16 16 16 16 16 16 15 13 11 8 8 9 8 5 3 3 3 3 5 12 19 25 27 28 30 31 32 34 38 40 41 43 47 49
34 28 30 31 30 28 24 21 17 16 16 17 18 19 20 20 19 15 10 8 7 6 5 3 3 4 4 6 14 23 27 29 31 33 35 37 39 41 43 46 49 50 51
28 30 32 31 29 27 24 21 18 17 17 19 20 23 23 24 23 20 14 9 7 6 5 3 3 5 5 9 17 25 31 34 36 38 41 43 43 44 44 47 51 60 66
30 32 33 31 30 28 26 22 20 19 19 20 23 25 28 29 29 23 16 11 7 5 4 4 4 7 11 15 21 27 36 41 44 47 48 46 44 46 54 61 64 68 71
30 33 34 33 32 30 28 25 23 22 22 23 26 30 33 36 34 27 20 14 9 5 4 4 6 8 16 21 26 31 42 49 51 50 50 52 59 64 64 68 70 74 76
30 32 35 34 33 32 30 27 26 24 24 26 29 34 39 42 38 32 25 19 13 7 4 5 7 9 16 25 33 38 43 54 58 58 62 69 69 67 69 70 72 74 73
30 31 33 35 34 33 32 30 28 26 26 28 32 38 43 47 45 42 36 26 16 8 5 5 9 12 15 25 39 45 49 58 63 69 74 72 71 71 72 74 76 76 71
50 32 32 34 36 34 33 32 30 28 28 30 34 41 47 51 51 50 45 32 18 10 5 7 13 17 17 22 44 53 55 64 76 77 75 75 72 68 71 74 77 74 66
94 48 33 32 35 36 35 33 32 30 29 32 36 43 50 54 56 58 54 41 21 10 6 10 20 24 19 22 43 56 60 72 79 79 77 72 64 65 69 72 72 65 54
98 97 68 35 40 47 36 38 40 30 30 31 35 40 48 52 58 66 69 59 26 9 7 15 26 28 20 24 44 56 62 77 81 78 78 65 61 66 68 68 65 58 54
98 98 97 63 59 91 56 55 50 31 30 31 32 35 40 46 60 76 78 73 28 7 8 21 31 32 26 30 44 51 65 84 80 80 76 66 61 62 62 61 62 61 61
97 97 98 95 96 96 80 86 47 32 31 30 30 31 32 42 52 81 82 73 24 7 11 26 36 37 34 37 44 48 68 84 84 84 82 73 66 64 65 64 64 64 65

GFSGL_700_rhum_075.txt.gz
RH
29 29 30 30 30 32 34 35 37 37 38 38 40 41 42 43 44 45 45 49 53 53 52 50 50 51 52 50 47 47 51 61 79 95 99 100 100 99 99 100 100 100 100
34 34 35 35 34 34 34 32 33 36 37 38 28 25 31 30 28 27 33 37 47 51 51 54 57 66 67 60 56 63 58 66 96 98 98 99 99 100 84 98 100 100 99
36 36 32 30 30 30 30 30 27 17 14 17 20 23 22 19 24 29 32 34 36 42 46 49 60 65 68 71 76 65 65 96 76 96 97 100 99 96 100 98 97 80 33
38 28 25 23 20 17 14 13 14 19 23 26 21 20 23 33 44 42 43 48 52 50 56 58 64 72 70 85 76 76 77 98 95 96 98 100 99 99 98 79 22 10 6
31 30 26 20 15 12 13 20 26 31 28 20 28 31 39 47 49 55 57 61 61 61 50 54 57 71 92 84 91 99 100 91 100 99 98 99 98 77 22 9 5 2 2
36 34 26 21 26 30 26 29 38 31 29 36 44 49 50 46 46 51 56 63 64 61 66 79 82 98 94 86 99 98 99 98 97 96 91 55 13 9 4 2 2 6 14
43 40 36 32 35 35 35 38 34 34 48 51 54 55 54 54 52 54 57 60 63 64 70 74 78 89 96 95 96 94 87 80 56 22 11 7 4 2 2 3 13 16 14
48 46 48 45 44 44 38 34 34 44 56 61 61 58 58 54 45 33 15 11 8 7 6 6 6 8 13 15 12 11 9 6 4 4 3 2 2 2 8 16 15 16 17
52 52 54 49 46 41 38 40 48 56 66 64 61 59 39 16 12 9 7 6 7 7 5 4 3 2 2 2 2 2 2 2 2 2 2 2 5 12 16 16 17 19 22
60 52 52 49 48 50 54 57 59 63 62 63 32 15 13 11 9 7 7 8 9 8 7 5 4 3 2 2 2 2 2 2 2 1 2 8 14 19 18 18 19 22 24
58 49 55 54 61 61 60 61 59 52 28 18 14 13 12 10 8 7 8 9 11 13 11 8 5 3 2 2 2 2 2 2 2 4 10 17 20 19 20 21 24 24 27
63 61 66 69 65 63 52 32 28 23 15 14 14 14 12 11 9 8 8 10 11 13 14 12 8 4 2 2 2 2 2 3 6 13 18 21 21 22 25 25 26 28 30
67 67 74 69 64 32 29 28 22 16 14 15 15 15 15 15 14 13 13 12 13 14 13 12 8 4 2 2 3 3 4 8 14 19 23 25 26 27 26 27 30 33 36
75 77 73 67 29 30 28 24 18 15 15 16 17 18 18 19 19 19 19 18 16 14 12 12 8 4 3 3 3 4 7 13 20 24 26 27 27 28 30 32 36 38 41
78 76 60 29 30 29 25 21 17 16 16 17 18 19 20 22 24 25 26 24 20 16 12 9 7 4 3 4 4 5 11 18 24 27 29 30 32 34 37 40 41 42 42
72 49 29 30 31 27 25 22 19 17 17 17 18 20 23 26 29 31 30 27 22 15 12 8 6 4 4 4 6 7 12 19 28 33 36 37 40 43 46 48 45 44 49
37 29 30 32 29 27 26 23 20 18 18 18 20 23 26 30 33 37 35 30 26 22 15 10 6 5 5 6 8 12 16 22 30 39 44 48 50 51 48 48 52 58 61
29 29 32 33 31 29 27 25 22 21 20 21 22 25 28 34 39 42 41 39 34 29 21 14 9 5 5 7 8 13 20 25 31 41 50 53 53 51 58 66 66 63 65
29 30 32 34 32 31 29 27 25 24 22 22 23 27 31 38 43 47 47 46 44 38 29 21 12 6 5 8 11 14 21 32 38 44 54 60 63 66 72 69 70 70 67
30 30 31 34 34 32 31 29 28 26 24 23 25 28 33 40 47 52 53 54 53 49 38 25 15 8 6 11 16 18 22 39 48 51 59 68 76 77 73 73 71 70 74
33 31 30 32 34 34 33 31 30 27 26 25 27 30 35 42 49 54 57 59 60 59 50 32 16 7 7 16 22 21 20 39 54 57 66 77 79 77 78 69 70 74 71
69 41 35 32 32 34 35 34 31 29 27 27 28 30 34 40 47 52 54 57 63 68 67 43 15 7 9 21 27 22 21 39 56 60 69 76 77 79 68 66 70 71 69
100 98 97 85 42 33 34 35 33 31 29 28 28 30 32 36 41 46 50 52 63 74 72 49 14 8 15 25 28 25 24 40 54 62 73 79 78 77 66 65 68 67 66
100 99 98 98 96 58 40 35 71 53 30 32 30 29 31 32 34 37 41 42 64 76 75 46 14 8 20 30 32 30 30 39 48 61 76 76 77 78 70 66 66 67 66
98 98 97 97 97 97 94 52 83 94 61 61 56 28 29 30 31 32 44 62 77 79 75 37 11 10 23 33 37 37 37 40 44 54 74 76 76 79 79 74 70 68 66
98 98 98 97 97 97 96 96 96 96 95 94 59 29 29 30 30 43 70 82 81 80 71 29 11 12 26 34 37 42 44 43 45 49 62 74 77 82 85 84 78 73 71

GFSGL_700_rhum_078.txt.gz
RH
23 22 21 21 21 22 25 28 31 33 35 36 39 37 36 37 38 38 32 30 32 33 35 33 37 39 40 43 49 63 68 59 57 59 64 79 82 100 100 99 100 98 99
33 32 33 33 32 32 33 34 35 36 36 35 33 35 38 34 27 23 24 27 26 30 33 34 33 38 41 46 54 58 68 64 65 65 68 77 90 98 84 99 96 98 99
37 37 36 36 36 35 34 32 32 32 31 31 28 19 18 22 23 21 30 34 34 38 42 48 43 48 53 52 60 65 72 77 78 82 96 98 98 100 100 98 94 96 88
41 40 40 39 32 26 24 23 22 20 16 13 17 23 26 19 22 40 42 39 44 47 52 52 48 46 46 50 56 61 76 92 88 88 100 99 96 99 96 98 91 39 11
51 49 40 29 27 24 17 13 12 13 19 26 30 21 24 31 43 41 38 40 46 51 54 49 54 52 56 58 59 71 82 95 99 96 93 98 98 93 82 28 11 6 3
59 45 33 32 27 21 17 22 24 27 33 30 27 36 44 46 44 42 42 47 53 54 54 30 19 32 43 60 71 76 82 87 89 94 99 96 86 68 24 7 3 2 2
62 44 40 36 30 31 33 32 32 38 32 32 44 46 52 49 48 49 46 37 16 8 8 7 6 6 4 4 4 6 10 20 31 24 14 10 7 5 3 2 2 7 15
69 55 46 46 45 42 42 43 42 38 35 45 54 59 55 53 45 18 10 9 9 10 10 8 7 6 4 3 3 2 2 2 2 2 2 2 2 2 2 3 12 16 15
75 64 54 54 56 52 52 45 38 38 50 61 63 58 49 19 12 10 9 10 12 13 14 14 12 10 8 5 4 2 2 2 2 2 2 2 2 2 6 15 18 17 17
75 65 60 59 57 54 45 40 50 61 67 63 59 28 14 12 11 9 9 11 12 15 17 17 17 14 11 7 5 3 2 2 2 2 2 2 4 10 17 19 19 20 23
63 64 58 56 58 56 56 62 66 67 64 33 15 14 13 12 10 9 10 11 13 15 18 19 19 18 14 9 5 3 2 2 3 3 3 6 12 18 21 21 22 25 27
75 68 64 66 69 67 65 68 65 40 22 15 14 15 14 14 14 14 15 16 18 20 21 21 20 18 14 10 5 3 3 3 4 5 8 14 18 22 24 25 27 29 29
82 75 75 76 72 69 63 34 27 19 15 14 15 16 16 17 18 20 22 23 25 24 24 22 20 16 15 10 6 4 3 4 6 9 14 20 23 25 27 29 32 33 34
82 78 81 77 74 46 29 27 21 16 15 15 16 17 18 20 22 24 26 28 30 29 26 23 19 15 13 10 8 5 4 4 7 11 17 23 27 30 33 36 38 38 40
88 81 84 78 42 30 28 24 20 16 16 16 17 18 20 22 25 28 32 34 35 32 28 25 20 16 13 9 8 8 7 6 8 11 18 27 33 38 41 43 43 44 45
85 84 81 59 29 30 27 24 19 17 16 16 17 19 21 24 28 32 37 40 39 36 33 30 29 23 15 10 7 7 7 8 10 14 20 28 38 45 49 52 52 51 48
80 78 58 30 31 30 27 24 21 19 18 18 19 20 23 27 31 36 41 44 44 42 40 40 36 28 22 15 8 6 8 9 12 16 22 29 38 50 57 60 58 56 60
61 47 32 30 32 30 28 26 24 22 21 21 21 22 25 28 33 39 44 48 48 49 49 47 44 38 30 19 8 6 9 13 16 19 26 35 42 49 61 63 66 70 70
45 34 30 31 33 31 30 28 27 25 24 24 23 24 26 29 33 40 47 52 54 55 56 56 57 53 41 24 10 8 13 19 20 21 29 43 49 52 62 70 75 75 72
51 34 30 30 33 33 32 31 30 27 26 25 24 25 26 29 33 40 47 53 55 54 52 60 64 63 54 27 10 8 15 24 22 20 31 47 50 58 71 76 77 75 68
68 48 32 30 31 33 34 33 31 30 28 26 25 25 26 27 31 36 43 49 51 50 48 56 68 67 61 29 10 9 18 27 24 22 34 50 54 67 76 77 77 66 63
96 64 44 35 32 32 32 34 34 33 31 29 28 27 26 27 29 32 37 41 44 44 42 57 72 71 64 30 10 11 22 30 28 25 35 50 58 70 75 76 77 68 66
100 99 99 98 95 83 75 44 34 34 34 31 30 28 26 27 28 30 33 35 37 37 52 74 76 74 63 27 11 13 25 33 34 32 36 46 58 76 78 78 80 76 72
92 97 99 99 99 97 97 97 81 44 36 33 61 84 28 34 42 28 30 31 32 42 72 80 77 76 57 21 11 14 26 32 36 38 37 41 47 71 81 80 83 86 84
99 99 98 97 97 98 97 97 97 96 89 67 86 95 73 84 85 34 28 29 31 45 75 81 77 75 52 19 11 17 28 32 34 43 45 43 45 51 68 80 88 91 90
100 100 99 99 99 98 97 97 97 96 96 96 96 96 96 96 94 36 30 31 38 46 86 84 79 76 53 22 12 21 33 34 35 39 44 49 52 54 57 63 74 84 87

GFSGL_700_rhum_081.txt.gz
RH
33 30 28 27 26 24 22 22 21 21 23 27 31 34 36 37 39 38 39 38 36 29 24 20 25 33 36 36 35 40 44 41 43 46 61 66 68 69 87 85 99 87 95
29 28 27 25 25 24 25 27 30 32 34 37 39 40 40 39 38 40 39 27 22 19 19 29 36 39 45 47 42 48 43 43 46 60 68 75 78 77 100 100 98 93 99
40 39 38 37 37 35 35 35 36 37 39 38 38 38 37 37 32 22 21 22 17 33 44 48 46 46 46 46 45 45 43 44 48 56 62 68 82 83 97 94 99 98 97
36 33 32 38 39 40 40 38 34 29 27 28 29 27 18 17 22 24 19 23 39 44 48 45 45 44 45 46 48 50 49 54 60 62 70 74 93 96 90 92 99 97 83
40 40 43 45 44 43 32 27 23 18 16 16 16 18 25 27 21 28 37 40 41 44 44 45 44 31 34 27 30 36 37 27 32 44 61 74 80 85 91 96 89 42 16
61 60 56 53 45 32 30 26 19 15 16 22 29 33 26 35 43 44 43 43 45 44 43 16 8 8 8 7 6 5 4 4 4 5 11 30 49 59 69 62 33 8 3
76 71 64 53 39 36 31 26 28 30 28 34 37 34 41 47 48 48 48 43 27 11 10 11 11 10 9 8 7 5 4 3 2 2 2 2 2 2 2 2 2 2 2
89 78 68 59 46 44 39 36 37 37 41 42 40 51 54 55 53 49 19 10 10 12 13 15 15 15 14 13 12 10 8 5 3 2 2 2 2 2 2 2 2 2 9
84 77 71 68 51 50 51 49 48 50 45 41 53 60 59 56 33 12 10 11 12 14 16 18 19 19 19 18 16 13 10 6 4 3 2 2 2 2 1 2 4 11 17
83 80 73 72 59 56 58 55 52 42 47 58 64 61 51 19 11 10 10 12 13 15 18 20 22 23 22 22 19 17 12 7 4 3 3 3 3 3 5 9 14 18 20
87 78 70 67 62 58 55 50 49 57 70 66 63 41 14 12 11 12 12 13 15 18 21 23 25 26 25 23 21 18 13 9 5 4 4 4 5 8 13 17 21 23 24
85 72 64 65 61 62 59 61 69 71 68 53 18 14 13 13 14 15 16 18 21 24 26 28 29 28 26 23 22 21 17 12 9 6 4 5 9 14 19 23 26 28 30
89 82 73 66 67 67 71 73 72 64 35 16 14 14 15 16 17 19 21 24 26 29 32 33 31 29 25 24 24 21 17 16 13 10 7 6 9 15 22 27 32 36 39
94 90 77 77 76 75 73 65 41 25 17 14 15 16 16 18 20 22 24 28 31 34 36 35 33 30 30 30 28 23 19 15 14 11 8 7 9 13 20 28 36 42 45
95 92 82 83 80 79 57 30 26 20 16 15 15 16 17 20 22 24 28 32 36 39 39 37 36 36 36 34 31 27 22 16 11 10 8 8 11 15 21 29 41 50 54
96 85 85 86 81 57 30 28 24 20 16 15 16 17 18 20 23 26 30 35 40 42 43 42 42 42 42 41 39 35 26 16 11 9 10 12 15 19 26 34 44 53 57
79 84 86 84 79 31 30 28 25 21 18 16 17 18 19 22 25 28 32 37 42 46 48 49 48 50 51 52 51 46 33 19 10 9 12 16 19 21 29 40 47 54 60
76 79 84 84 59 30 31 28 26 23 21 19 19 20 21 24 26 29 33 38 44 49 53 54 54 54 58 60 60 56 36 19 10 10 14 18 19 21 34 44 48 54 62
73 77 77 63 36 30 32 29 27 26 23 22 22 22 23 25 26 28 32 36 43 49 52 52 49 48 54 65 65 61 38 17 10 11 17 21 20 23 40 47 50 61 66
67 58 56 46 33 31 32 31 29 28 27 26 26 25 26 26 26 27 29 33 39 45 48 49 47 44 56 69 68 64 40 17 10 12 19 24 23 27 42 45 55 64 73
91 86 61 42 33 30 31 33 33 31 30 29 28 28 28 28 27 26 27 30 33 38 41 42 42 40 66 73 71 67 42 17 11 14 21 27 26 30 45 50 56 68 74
98 92 76 67 53 35 31 31 32 34 34 32 31 30 29 28 25 25 26 28 29 31 34 36 36 43 74 76 74 69 43 17 13 16 23 29 31 32 40 50 59 72 77
99 99 99 98 94 77 64 54 48 46 47 36 34 33 32 29 27 31 27 26 30 28 29 31 31 43 74 78 75 71 46 20 13 18 26 30 36 39 39 43 50 65 80
100 99 97 97 98 99 98 98 98 97 97 96 94 78 42 35 43 90 88 44 93 63 43 30 31 41 79 83 78 73 51 23 15 21 28 32 35 43 46 48 50 54 60
100 99 100 98 98 97 97 99 98 98 98 98 97 96 94 95 95 96 95 94 96 94 66 45 41 81 89 90 83 77 53 28 17 22 34 38 41 44 46 49 55 59 62
88 95 94 95 95 95 98 99 98 98 97 97 96 96 96 96 97 96 96 96 96 94 82 75 90 93 94 93 88 82 60 29 18 28 38 46 56 64 67 67 65 65 67

GFSGL_700_rhum_084.txt.gz
RH
26 28 29 28 28 27 26 24 23 23 22 20 19 19 20 24 29 34 36 38 41 41 42 41 29 24 24 30 37 44 48 44 48 45 35 34 39 44 51 64 68 65 74
37 36 35 32 29 28 26 24 22 22 22 22 25 29 31 35 38 42 43 41 41 41 26 23 22 34 39 42 44 44 45 45 43 39 40 43 48 51 55 62 69 79 71
38 34 32 31 33 32 33 31 31 30 33 34 36 38 39 41 42 42 41 38 24 24 21 26 40 39 40 42 42 44 45 46 45 49 45 40 44 47 58 65 73 78 79
46 45 42 39 35 32 32 35 38 37 37 37 35 33 33 34 35 29 21 24 23 20 33 41 38 40 42 41 38 30 29 26 18 10 7 6 8 15 27 42 61 76 83
47 42 38 34 31 33 36 41 43 39 31 26 22 20 19 18 19 27 25 24 34 43 42 40 43 33 13 9 9 8 8 7 5 4 3 2 2 3 4 11 28 52 74
58 52 45 42 44 47 51 48 37 29 26 20 16 16 22 30 30 31 44 46 44 44 43 41 11 10 11 11 10 9 10 9 8 7 5 4 3 2 2 2 2 3 4
74 70 67 63 64 61 50 38 34 29 23 20 24 30 36 32 36 47 49 48 47 34 13 10 12 13 14 14 15 15 15 14 13 11 8 5 3 3 2 2 2 2 2
84 88 84 78 73 66 50 42 37 34 33 31 33 40 38 49 52 55 53 36 13 10 12 14 16 17 18 19 20 20 19 19 16 12 8 6 4 3 2 2 2 2 2
98 92 84 79 76 71 59 51 50 45 43 44 45 41 54 62 60 51 16 9 10 12 14 16 18 20 22 23 24 24 22 21 18 14 11 8 5 4 4 3 4 5 7
97 89 84 82 79 74 68 56 57 55 52 50 45 55 66 63 43 13 9 10 11 12 15 17 20 23 26 26 26 25 24 22 21 18 14 11 8 5 5 6 7 10 13
91 89 90 87 80 79 72 63 66 60 52 52 64 70 64 34 13 9 10 10 12 15 18 22 25 28 29 29 27 26 25 25 23 21 19 16 12 8 6 7 9 13 18
100 100 100 91 75 73 70 65 64 58 61 74 73 65 30 12 10 10 11 14 17 21 24 27 30 32 32 30 28 28 28 26 24 23 22 20 16 11 7 7 9 13 20
100 100 100 92 81 75 71 70 70 74 80 76 56 19 12 12 12 14 16 19 22 25 29 32 35 34 33 32 32 31 30 29 28 25 21 17 14 10 8 7 10 14 20
100 100 100 97 83 80 76 75 79 81 78 44 17 13 13 14 16 18 20 23 26 29 33 37 37 36 35 35 35 35 36 36 35 30 22 16 12 9 9 12 15 18 23
99 100 100 96 90 86 85 87 84 71 39 18 14 14 14 16 18 20 22 25 28 33 37 39 40 40 40 40 42 44 46 47 46 39 26 16 12 11 12 14 17 19 25
100 99 100 95 95 90 86 82 51 29 21 16 14 14 15 17 18 20 23 26 30 35 39 42 44 46 47 49 51 55 57 57 55 48 32 17 12 11 14 16 17 19 28
84 95 100 94 93 87 84 49 29 25 21 17 15 15 16 18 18 20 24 27 31 35 40 44 48 50 51 48 48 57 61 61 60 54 35 18 12 11 16 17 18 22 33
77 77 85 86 91 87 67 31 30 27 23 20 18 18 18 18 19 22 24 27 31 34 39 44 47 48 48 47 44 59 66 65 63 57 37 18 12 12 18 20 20 27 34
75 79 83 87 88 86 69 31 31 29 26 24 22 20 20 20 22 23 25 27 30 33 36 40 44 46 46 44 42 55 70 69 66 60 40 20 12 12 20 22 23 30 37
90 76 80 82 82 78 56 31 31 31 28 27 26 23 23 24 24 25 25 27 28 30 33 34 38 41 42 40 39 54 72 72 68 63 47 23 14 14 20 25 27 30 42
98 97 88 71 63 60 50 34 31 33 32 30 29 28 28 28 26 26 26 26 27 28 29 30 32 34 36 35 36 46 75 76 71 65 48 25 17 14 22 26 30 33 38
95 98 98 97 92 77 55 41 32 31 32 33 34 33 32 32 30 28 28 28 28 27 28 27 32 43 38 32 33 39 80 83 76 68 50 29 17 20 25 28 32 39 43
100 93 96 98 98 98 90 77 57 40 36 37 37 39 36 36 35 34 33 33 37 31 89 55 51 95 81 79 71 65 87 92 84 78 58 31 19 25 31 35 38 42 50
98 95 99 94 94 99 97 95 98 98 92 86 88 93 95 97 97 94 93 87 87 80 93 94 96 96 95 93 92 86 94 95 90 86 65 35 22 30 38 46 52 58 61
97 99 96 96 96 97 98 98 98 98 97 97 97 98 97 98 97 98 96 95 96 97 96 96 96 95 95 94 89 95 96 94 90 85 66 33 24 37 48 58 70 75 80
92 98 100 99 99 99 98 99 98 97 97 97 97 97 98 97 96 96 96 96 96 96 94 94 95 96 94 90 97 97 95 94 91 87 62 31 31 48 61 69 72 70 69

GFSGL_700_rhum_087.txt.gz
RH
53 48 41 32 25 20 23 24 23 23 23 23 22 22 21 21 20 21 23 28 32 37 38 43 42 41 32 24 25 36 39 42 44 46 44 41 40 42 44 51 53 55 56
40 35 32 29 27 29 29 29 28 26 24 23 22 21 20 21 23 27 31 36 39 44 44 40 39 23 22 37 40 40 40 41 43 44 42 38 16 12 13 21 42 56 62
41 37 39 38 36 35 32 30 28 26 24 25 25 24 26 32 32 36 38 42 44 40 37 24 23 22 40 40 41 39 39 35 33 22 8 6 5 4 5 5 12 21 33
48 41 38 37 36 36 37 35 33 31 30 31 34 33 34 38 38 38 39 39 38 24 24 22 29 42 42 41 33 22 12 9 8 8 7 6 5 4 4 4 4 3 5
56 56 51 46 42 39 37 32 30 30 33 37 38 37 32 28 27 27 25 19 25 24 26 41 43 44 38 12 9 10 10 10 10 11 11 11 10 8 6 5 3 3 2
62 55 50 47 43 40 33 31 36 41 44 42 32 27 22 18 17 20 27 27 33 42 44 45 45 23 9 11 12 12 14 15 16 16 17 15 13 9 6 4 3 2 2
73 72 71 70 62 56 53 50 52 50 42 34 30 23 18 20 29 32 31 44 48 47 46 34 11 11 13 15 17 18 19 20 20 20 19 16 13 10 8 7 5 4 3
84 85 83 78 77 70 67 64 59 48 38 34 29 29 29 33 36 42 48 52 51 34 11 11 14 15 18 19 21 22 24 24 23 22 21 20 18 15 12 10 8 7 6
94 92 86 88 80 75 72 69 66 52 46 42 38 35 39 40 51 57 57 46 15 10 12 14 15 17 20 22 24 26 26 25 24 23 22 21 20 19 18 17 14 12 9
96 100 100 94 82 74 76 75 72 61 57 54 50 49 47 54 64 63 37 10 9 11 12 14 16 20 24 26 28 28 27 26 25 24 23 23 23 24 23 22 17 11 8
98 100 95 87 87 82 79 82 79 69 65 61 57 54 57 69 68 32 10 8 9 10 13 17 21 25 29 30 30 29 28 28 27 26 26 28 29 29 28 23 16 11 8
96 97 100 98 96 93 88 84 82 74 74 67 61 66 73 69 31 10 8 8 10 14 18 23 26 31 33 33 31 30 30 30 29 30 33 35 35 33 30 22 16 11 9
92 100 100 100 100 98 89 81 80 78 76 72 77 80 73 30 10 8 9 11 16 20 23 27 32 35 36 34 33 33 33 33 36 39 42 44 42 38 30 21 16 11 10
90 100 100 100 100 100 94 86 84 80 81 86 86 72 31 11 10 11 13 17 20 23 27 31 36 39 39 38 37 37 40 43 47 49 50 50 48 40 30 21 15 11 12
91 98 100 100 100 100 97 92 92 90 89 88 71 27 12 12 12 14 17 20 22 25 29 34 38 40 42 43 43 45 48 50 53 54 54 54 51 42 31 21 15 12 13
87 97 100 100 100 100 96 90 91 90 90 71 27 14 12 13 14 16 18 20 22 26 31 35 39 42 45 47 49 48 46 48 58 60 58 57 54 44 32 20 15 13 15
84 86 91 100 100 100 98 95 93 90 63 30 16 13 13 14 15 16 18 20 22 26 30 34 38 42 45 47 47 46 44 44 52 63 63 60 57 50 36 22 16 15 17
88 82 82 92 100 97 96 93 91 54 30 23 18 16 15 15 15 16 18 20 22 25 28 32 35 39 43 45 46 45 43 42 46 65 66 62 60 54 37 24 18 16 19
97 94 82 83 87 91 92 89 76 35 29 26 23 20 18 17 17 18 19 20 22 24 26 28 31 33 36 39 41 42 40 39 40 61 71 67 64 58 41 26 17 18 21
98 98 96 83 86 90 92 88 77 34 31 30 27 24 24 23 22 21 22 22 22 23 24 25 27 28 31 33 35 35 35 36 37 49 78 75 68 61 48 32 22 22 24
96 97 98 98 88 88 93 91 91 57 32 32 31 28 28 28 26 27 26 26 25 25 25 25 25 26 48 30 29 59 73 74 62 77 86 86 75 70 54 39 25 23 26
97 100 93 96 98 97 89 84 81 70 50 33 32 33 32 33 31 31 30 30 29 29 27 27 25 33 54 75 81 81 95 95 94 91 90 92 85 79 66 48 28 27 32
97 88 93 98 98 97 97 97 95 86 71 54 38 33 32 32 34 43 50 50 45 45 46 46 70 84 63 82 96 96 96 96 96 90 91 92 87 81 69 45 31 32 42
100 100 98 94 99 94 97 97 97 97 97 97 96 91 73 66 77 77 85 95 97 97 98 97 97 96 96 96 95 96 96 96 88 91 92 92 87 83 65 38 31 42 55
100 100 100 100 97 99 98 98 96 97 97 97 98 98 97 97 97 98 97 97 96 96 96 96 97 96 96 95 96 95 95 90 93 95 94 92 88 81 56 37 40 51 58
100 100 100 100 100 98 99 99 98 98 97 97 97 97 97 96 96 97 97 96 96 96 96 96 96 96 96 96 95 95 94 94 94 95 95 91 88 76 48 40 49 48 45

GFSGL_700_rhum_090.txt.gz
RH
62 60 58 56 54 52 48 43 36 26 17 15 18 20 21 22 23 23 21 21 21 22 23 28 35 39 43 43 42 31 24 39 42 41 40 41 39 39 30 11 7 19 43
63 61 59 56 53 47 38 31 25 22 20 22 23 24 24 25 24 22 21 21 23 30 34 39 46 47 46 43 27 26 41 41 39 39 39 31 14 7 5 4 4 5 9
69 65 60 52 43 35 33 31 30 30 30 29 27 25 24 24 24 26 29 32 37 43 48 48 44 46 32 26 29 42 41 40 29 18 10 8 7 6 6 5 5 4 4
71 66 56 47 46 41 38 36 34 32 30 30 29 28 28 30 34 34 36 40 41 44 44 46 35 25 23 35 44 41 29 11 9 10 9 9 11 11 10 10 7 6 5
58 55 55 53 53 52 50 44 40 37 34 31 29 28 28 33 39 39 38 36 37 36 32 23 26 25 44 46 28 10 9 10 11 13 14 15 16 15 15 12 10 8 6
62 63 66 62 57 53 50 43 40 37 34 32 32 35 41 40 33 27 24 23 21 23 28 28 44 48 47 18 9 11 13 15 17 18 19 20 19 18 16 15 12 10 9
71 68 67 69 66 62 59 56 55 51 47 49 45 46 40 32 26 21 19 24 30 32 47 50 50 44 10 11 14 17 18 20 22 22 22 22 21 20 18 16 15 14 13
76 80 81 83 81 74 73 73 74 68 64 62 50 40 34 29 23 28 33 34 39 53 53 51 20 10 14 17 18 20 22 24 25 24 24 22 21 20 19 20 20 20 18
90 90 91 90 84 82 79 82 79 80 75 67 49 39 35 33 34 39 40 48 55 56 31 10 13 15 17 18 21 24 26 27 26 25 24 22 22 23 24 26 26 26 23
94 93 91 86 91 93 90 80 78 83 78 69 56 49 42 41 46 46 57 60 52 13 10 12 13 15 18 22 25 28 28 28 26 26 25 24 26 28 31 32 32 30 26
94 94 90 97 100 97 90 87 82 87 86 76 65 62 58 56 57 66 66 44 9 8 10 11 14 18 23 27 30 31 30 28 28 27 27 28 32 35 37 37 36 33 28
99 98 95 96 99 99 100 100 95 92 90 82 76 71 67 65 74 73 45 9 7 8 10 14 19 24 28 31 33 33 31 31 30 30 32 36 40 42 43 42 40 34 29
96 93 96 98 99 100 100 100 100 96 94 89 85 78 74 80 80 51 10 6 7 9 14 20 24 28 32 34 35 35 34 34 34 36 40 44 46 47 47 46 42 36 29
98 96 93 100 100 100 100 100 100 96 94 91 87 83 85 85 50 14 7 7 10 15 20 23 27 31 34 36 38 39 40 40 42 45 48 50 51 51 49 49 44 38 29
96 90 91 100 100 100 100 100 100 99 99 96 96 95 92 61 18 9 8 11 15 19 22 25 29 33 36 39 42 44 46 46 46 45 49 55 57 55 53 51 46 39 30
97 92 93 97 100 100 100 100 100 99 92 95 94 91 59 22 10 10 12 15 18 20 23 26 30 34 38 42 44 45 46 46 45 44 43 50 60 60 57 54 50 43 33
99 97 91 90 99 100 100 100 100 99 100 100 96 67 23 12 11 12 14 16 18 20 22 25 29 33 36 40 43 46 47 46 45 43 42 43 59 65 63 59 54 46 36
98 98 98 89 91 100 100 100 100 100 99 98 73 32 15 12 12 13 14 15 17 18 21 23 26 29 32 35 37 40 41 42 42 41 40 40 45 70 71 65 59 52 44
97 97 98 98 90 84 96 97 98 96 96 73 38 24 17 14 13 14 14 15 16 18 20 22 23 25 28 29 30 32 34 45 36 37 41 68 59 72 81 74 66 59 50
99 97 97 97 98 90 89 95 97 97 97 55 30 25 22 19 18 16 16 17 18 18 20 21 22 23 24 25 25 26 55 66 31 44 83 94 88 91 85 84 77 69 58
100 100 99 97 97 97 97 96 100 97 97 69 32 30 28 26 24 23 22 22 21 21 22 23 23 24 24 24 23 23 26 56 92 90 92 96 96 92 88 89 84 78 65
100 99 96 95 98 97 97 97 96 99 99 98 82 38 32 32 31 28 27 27 27 26 27 28 28 34 38 26 29 28 59 80 81 96 96 96 95 88 91 90 85 79 62
99 99 98 99 95 90 93 97 97 97 96 93 93 87 58 36 32 32 33 38 34 33 38 56 89 89 78 88 80 82 88 88 96 97 97 97 89 92 92 90 87 79 61
97 98 98 97 97 96 96 93 99 96 97 97 97 96 87 63 55 57 50 48 62 88 91 90 94 96 96 95 96 96 96 96 96 97 97 92 90 93 94 92 89 79 59
89 94 100 100 100 100 99 99 99 100 99 97 97 97 97 97 96 97 98 97 96 96 96 96 96 96 96 97 97 96 96 96 96 96 95 92 93 94 96 92 88 76 54
97 96 98 99 100 100 100 100 99 95 98 98 98 97 97 97 96 96 96 97 97 97 96 96 96 96 96 96 96 96 96 96 96 96 94 93 95 96 96 93 89 71 51

GFSGL_700_rhum_093.txt.gz
RH
93 77 69 63 59 56 55 55 54 52 50 46 40 30 22 21 22 22 23 23 23 22 23 24 26 35 32 37 40 46 48 47 33 29 44 42 41 39 25 9 5 5 4
83 62 64 67 64 59 58 57 55 52 48 40 32 26 25 28 27 26 26 25 25 24 23 26 28 32 40 47 52 49 46 31 33 42 44 40 30 11 7 6 6 6 6
63 62 68 67 64 62 60 57 52 44 36 31 29 29 29 29 29 28 26 26 25 26 28 34 38 44 48 55 50 41 26 35 45 41 27 13 9 8 8 10 11 11 10
68 71 71 70 69 67 62 54 44 40 40 37 35 33 33 32 31 30 32 34 35 37 40 41 45 47 48 48 31 26 41 46 35 10 9 9 10 12 14 16 16 14 12
75 75 73 71 68 62 53 48 46 44 42 42 39 37 34 34 32 31 32 37 40 42 42 40 42 43 28 28 28 49 43 16 10 10 12 15 16 18 19 18 16 15 14
70 70 66 59 57 57 57 55 52 48 46 41 37 36 34 32 31 33 39 42 37 31 28 30 26 27 29 37 51 39 9 10 13 16 18 20 21 21 20 19 18 16 15
60 59 62 66 68 66 66 62 58 57 52 47 42 37 36 38 41 45 42 32 28 24 23 25 31 37 52 54 34 9 12 16 19 21 23 23 22 22 20 19 18 19 20
68 72 72 71 73 75 75 72 71 64 63 61 55 54 52 49 48 42 34 28 26 30 35 37 51 52 52 14 11 15 18 21 23 25 25 24 23 22 20 21 23 25 26
71 76 78 80 80 82 84 79 72 70 71 70 66 69 65 56 43 37 30 30 38 42 45 57 56 36 10 14 17 19 22 25 26 26 26 24 23 22 23 26 28 30 32
75 82 87 89 92 90 87 84 84 82 74 74 74 77 72 56 43 40 37 41 45 62 64 54 14 11 15 16 18 22 26 28 28 27 26 25 24 24 27 30 34 36 37
85 88 90 95 96 90 92 96 96 94 86 74 82 83 77 63 54 47 45 52 64 68 29 9 11 13 14 18 22 27 30 30 30 28 28 27 27 29 34 37 39 40 40
88 99 94 91 93 93 91 96 95 100 100 91 88 89 82 72 66 61 60 72 68 20 8 9 10 12 17 23 27 31 32 32 31 30 30 31 34 38 42 43 43 43 42
87 86 92 94 92 94 95 96 100 100 100 98 96 93 86 79 73 71 81 77 30 7 7 8 11 17 23 28 32 34 35 35 35 35 36 38 42 45 46 47 47 46 45
94 97 95 95 92 89 97 100 100 100 100 100 100 95 93 87 81 88 84 41 8 6 7 10 16 22 27 31 34 37 38 39 40 42 44 45 45 46 50 53 53 50 49
94 96 97 94 92 93 99 100 100 99 100 100 100 100 99 97 100 90 47 12 6 6 9 15 21 25 29 34 37 39 41 44 45 45 45 43 43 42 46 56 58 56 53
100 100 98 97 94 94 97 100 100 99 100 100 100 100 100 100 95 54 14 6 6 9 14 19 22 26 30 34 37 40 43 44 45 46 45 44 43 42 42 48 61 64 60
100 100 99 99 99 96 93 99 100 98 100 100 100 100 100 99 76 25 9 8 10 14 17 20 22 25 28 32 35 38 40 43 44 44 43 43 42 41 41 48 57 71 70
100 100 98 99 98 99 96 92 100 100 100 100 99 99 98 82 30 11 10 11 13 15 17 18 20 22 25 28 30 32 34 36 37 37 42 58 42 40 63 88 81 83 80
98 100 99 98 98 97 98 94 97 98 99 99 98 97 96 65 30 12 11 12 13 14 15 16 18 19 21 23 25 27 28 28 29 30 51 60 44 50 84 89 89 87 83
96 97 100 100 98 98 98 98 97 98 96 97 97 96 93 47 19 14 13 12 13 13 14 15 16 18 19 20 22 22 23 23 24 24 28 29 72 88 91 91 91 86 85
81 92 100 100 100 98 97 97 98 99 98 97 97 97 80 34 26 22 18 16 16 15 16 17 18 19 20 21 22 22 22 24 24 23 25 37 82 88 93 93 91 86 89
76 98 100 96 100 95 95 98 97 97 98 98 97 97 96 78 50 36 29 26 24 23 22 22 23 24 24 25 26 27 58 80 38 54 49 76 92 94 95 94 90 92 91
93 92 95 94 93 93 95 98 93 90 96 97 97 97 98 97 88 54 34 32 32 30 29 29 30 38 44 32 43 84 94 85 90 91 88 95 96 96 95 94 92 94 91
100 100 100 99 99 100 98 96 93 92 90 89 96 97 97 99 97 96 92 74 46 38 35 44 83 92 72 93 96 96 96 96 94 94 95 95 96 95 95 94 95 95 92
93 94 95 96 95 100 100 100 100 99 97 98 100 99 99 97 97 97 99 97 96 94 95 96 95 95 95 96 96 96 96 96 96 96 96 95 96 95 96 94 96 95 92
17 33 62 89 96 98 100 100 100 100 100 100 100 100 100 100 99 98 97 97 96 96 96 96 96 96 96 96 97 97 96 96 96 96 95 96 96 96 96 95 97 94 92

GFSGL_700_rhum_096.txt.gz
RH
86 84 86 97 98 87 68 63 63 63 66 60 55 52 51 47 43 38 27 23 24 23 24 25 25 25 25 25 66 39 36 42 47 47 41 28 41 42 40 30 12 6 5
86 88 100 97 88 87 74 68 66 60 58 57 56 54 51 45 38 32 27 27 27 27 27 26 26 27 28 30 97 56 47 52 50 42 26 40 41 38 21 9 7 8 9
77 82 82 80 73 71 72 70 68 67 61 59 57 52 44 37 32 30 30 31 30 29 29 30 31 35 36 39 54 53 54 50 36 24 42 40 26 13 9 9 10 13 14
64 74 76 73 71 70 69 68 67 65 63 59 51 42 38 36 37 36 33 34 33 34 35 43 41 44 46 51 52 52 51 32 26 43 39 13 10 10 12 14 16 17 16
53 62 68 71 70 72 73 72 70 66 59 51 46 44 40 38 37 36 36 34 34 35 37 43 48 50 47 48 46 40 30 29 47 28 10 10 12 15 17 19 19 18 16
61 69 74 75 75 74 71 65 59 57 56 56 52 45 43 40 39 35 35 34 34 39 43 44 41 36 36 35 31 31 39 51 14 10 12 15 18 20 21 21 20 18 17
66 70 70 69 65 62 65 68 68 66 64 64 58 56 44 42 45 44 42 40 44 46 42 33 29 26 30 32 36 52 54 11 10 14 17 20 23 23 22 21 19 19 21
56 57 59 61 68 72 72 71 72 71 70 67 61 59 60 55 52 55 52 52 49 43 35 29 26 30 33 50 60 53 10 11 17 20 22 24 25 24 23 21 20 23 26
66 69 71 69 67 70 74 80 84 85 82 73 73 73 67 64 65 68 63 54 44 38 33 33 37 41 57 59 37 9 15 18 21 24 26 26 25 24 22 22 24 27 31
64 67 66 69 75 83 86 88 87 84 83 84 83 72 70 70 73 74 66 50 41 39 42 43 52 62 60 16 11 16 18 21 25 28 28 27 26 25 24 25 28 33 36
66 67 73 83 85 87 90 87 86 87 84 87 83 76 68 74 82 81 65 50 45 44 50 63 70 52 12 13 15 17 21 26 29 30 29 28 27 27 27 30 35 39 40
66 68 82 93 96 89 87 89 89 90 92 89 99 100 89 87 94 83 71 58 55 60 73 67 34 10 12 13 15 20 26 30 32 32 31 31 31 31 34 39 43 45 45
72 93 95 86 86 95 92 94 95 92 95 98 100 100 100 99 98 90 83 76 74 83 62 21 8 9 10 13 20 25 30 34 35 35 35 36 37 40 43 45 48 51 52
97 90 90 96 97 92 92 92 91 94 100 98 98 100 100 100 100 99 91 87 93 74 27 7 7 8 11 18 25 30 34 37 38 39 41 43 44 44 43 43 43 45 51
99 99 95 92 93 94 97 97 96 98 98 99 100 100 100 100 100 100 98 97 88 52 11 6 6 9 17 23 28 32 37 39 42 44 45 45 45 44 44 43 43 43 44
100 99 100 99 93 95 97 97 96 96 100 100 98 100 100 100 100 100 100 96 62 23 6 5 7 14 21 25 29 34 37 40 43 45 45 46 45 44 44 46 48 50 68
99 100 100 100 94 93 90 93 98 96 96 100 98 100 100 100 100 100 100 84 42 10 5 7 11 18 22 25 28 32 35 38 40 42 42 42 41 40 67 65 49 53 77
91 100 98 98 99 97 94 94 95 99 94 99 100 100 99 98 99 99 96 60 16 7 9 12 15 18 21 23 25 27 30 32 34 34 34 34 34 36 52 45 63 81 80
87 97 91 96 99 98 98 95 94 94 94 97 98 97 98 97 96 96 73 32 14 26 12 13 15 17 18 19 21 22 23 25 26 26 26 27 27 26 31 30 53 83 83
81 94 86 84 100 100 99 96 97 94 94 96 96 98 98 94 95 96 92 66 48 12 11 12 13 14 15 16 16 18 19 20 21 21 22 23 22 24 24 30 64 86 89
69 77 75 78 93 99 100 100 98 97 96 96 98 97 98 93 96 95 91 52 20 13 12 12 12 13 14 15 16 17 18 19 20 21 22 28 76 40 43 56 78 91 93
77 79 88 93 100 100 100 100 96 95 95 98 99 98 97 95 94 96 95 89 80 48 21 18 17 17 17 18 19 20 22 23 23 25 34 87 92 74 92 81 95 94 95
90 96 100 100 100 100 100 100 100 100 97 95 95 97 99 98 98 97 96 96 88 83 86 51 29 26 25 25 25 26 28 43 72 86 94 96 90 92 95 95 95 94 96
81 95 100 100 100 99 99 99 98 99 97 98 96 92 92 99 100 99 98 97 96 95 80 53 37 33 33 33 32 36 77 95 95 96 96 95 96 96 95 96 95 96 96
24 23 34 65 86 95 100 100 100 100 100 100 100 100 100 98 100 100 98 98 98 97 97 97 97 92 87 91 94 96 96 96 96 96 96 97 96 96 96 95 95 96 95
14 14 14 13 12 12 13 37 82 97 100 100 100 100 98 99 100 100 100 99 98 98 98 98 97 97 97 96 96 97 96 96 96 97 97 96 96 96 96 95 96 95 96

GFSGL_700_rhum_099.txt.gz
RH
75 84 89 89 84 84 82 82 84 80 70 77 70 67 66 62 58 56 54 49 42 36 29 25 25 26 25 25 26 83 30 38 97 45 47 51 50 26 36 37 37 26 9
84 90 89 87 92 88 96 96 98 80 74 69 65 62 60 59 58 56 54 49 40 33 31 30 30 29 27 27 26 28 33 33 95 69 53 53 34 32 40 37 23 9 8
68 70 85 90 91 92 78 81 73 72 83 80 76 73 65 61 57 55 50 42 35 32 32 33 31 30 29 29 30 34 45 53 63 58 52 38 29 43 35 19 9 9 12
57 61 68 75 78 85 81 73 69 71 71 70 68 66 65 61 56 47 40 35 34 34 33 33 35 35 37 40 40 43 54 64 60 56 38 29 46 29 12 10 11 14 16
42 50 60 70 77 78 75 73 74 75 75 74 71 67 61 54 47 44 40 35 37 37 36 34 34 37 39 45 49 49 47 53 53 36 31 47 22 10 11 14 16 19 19
42 46 58 72 76 76 77 79 79 76 71 65 60 58 56 53 52 50 43 39 38 38 37 36 34 38 46 46 48 47 47 41 30 36 49 13 10 14 17 19 21 21 19
54 60 68 72 74 75 74 70 65 63 66 67 65 64 60 56 53 51 51 45 42 43 44 41 46 47 42 37 36 39 35 33 45 43 10 10 16 19 21 22 22 21 19
57 59 58 58 60 64 68 72 74 72 69 68 69 69 69 69 64 59 50 49 54 57 54 50 48 42 35 33 32 35 43 57 52 9 12 17 21 24 24 24 23 21 21
60 59 58 60 66 70 72 74 79 82 85 86 83 77 72 71 68 70 65 63 66 67 61 52 44 36 36 36 39 56 64 49 10 13 19 22 25 26 25 24 23 23 26
65 65 65 65 65 67 71 83 87 86 85 85 83 82 78 79 72 69 67 71 74 75 60 48 41 40 45 47 60 65 27 10 16 20 23 26 27 27 26 25 24 26 30
67 67 66 65 66 73 78 80 92 91 85 82 82 80 84 82 72 66 69 79 83 72 54 49 53 50 59 67 62 16 11 16 20 23 27 29 29 28 28 27 28 32 37
71 68 68 69 74 89 98 90 92 93 92 90 86 83 80 90 88 84 89 96 89 72 58 55 64 75 76 49 11 12 15 18 23 28 31 31 31 31 31 33 36 40 42
76 77 74 80 96 93 91 94 94 93 94 89 83 86 88 94 98 100 100 100 93 81 70 76 82 78 35 9 11 13 16 22 29 32 34 34 34 36 38 41 44 44 43
81 80 91 100 92 91 97 96 95 97 97 95 91 88 93 99 100 100 100 100 98 90 84 86 70 22 8 8 10 14 21 28 33 36 37 39 40 43 45 44 43 42 43
90 96 100 100 100 99 100 95 97 99 96 95 93 93 94 98 97 99 99 98 98 94 93 82 28 8 7 8 12 19 26 32 36 39 41 44 46 46 45 44 45 45 49
92 99 100 100 100 100 98 92 94 94 95 95 95 94 97 98 98 96 98 97 97 97 96 59 16 5 6 10 17 24 30 35 38 41 44 46 47 46 46 45 44 66 62
74 77 93 100 100 94 100 99 94 94 92 95 96 93 96 98 100 99 98 98 97 96 95 66 33 20 8 14 21 26 31 35 37 40 43 45 45 44 42 40 43 57 44
57 63 70 88 93 100 98 100 100 98 94 93 94 93 97 98 100 99 97 96 96 96 93 57 24 6 11 16 21 25 28 31 33 34 35 36 36 35 34 33 32 34 31
53 59 77 96 100 96 98 98 97 96 96 95 94 97 98 96 96 97 96 97 96 95 58 28 12 40 50 28 19 22 23 24 25 26 26 27 27 27 26 25 25 26 27
57 63 73 100 100 100 96 99 99 92 95 96 97 98 99 95 94 98 97 96 96 92 49 40 49 44 14 15 16 17 18 18 18 19 34 23 22 22 22 22 29 63 39
63 71 78 96 98 100 100 100 100 100 99 96 98 99 99 94 95 97 98 97 97 96 80 63 26 11 11 12 13 14 14 14 15 17 36 18 19 21 22 24 79 93 64
80 84 87 91 97 100 100 100 100 100 100 100 99 100 100 98 98 98 98 97 97 95 90 62 43 32 15 13 17 20 15 15 16 17 18 20 22 24 48 93 96 95 96
54 80 98 100 100 100 100 100 100 100 100 100 100 99 100 100 99 98 98 98 97 97 97 95 78 66 43 46 31 22 22 27 26 22 24 26 29 67 96 96 96 96 96
24 26 27 45 78 99 100 100 100 100 100 100 100 100 98 98 97 96 95 98 98 99 98 97 97 96 91 93 92 79 57 35 29 30 32 42 84 96 96 96 96 96 96
13 14 14 15 16 16 16 16 30 62 74 97 100 100 100 100 100 100 99 97 94 97 99 98 98 98 97 97 96 78 47 45 72 80 94 95 96 97 96 97 96 96 96
10 10 10 9 9 8 8 8 8 8 8 8 10 20 51 74 88 96 97 98 97 96 95 97 99 98 98 97 97 97 97 96 96 96 96 96 96 96 96 96 96 96 96

GFSGL_700_rhum_102.txt.gz
RH
42 50 65 77 83 83 80 80 81 84 89 87 90 82 70 75 69 69 65 59 57 57 55 51 42 35 32 30 28 27 31 38 68 94 96 41 72 57 52 46 29 44 43
59 70 78 80 85 88 90 87 94 93 80 80 97 75 72 71 66 64 62 62 60 58 56 51 42 36 34 32 31 30 31 33 43 46 90 51 99 61 52 30 42 44 38
58 70 74 84 90 89 88 90 90 92 74 70 79 77 76 75 77 72 66 64 61 56 48 42 37 34 32 33 34 37 35 36 38 82 73 64 66 54 41 33 46 37 14
54 51 59 71 79 90 90 92 88 88 80 72 69 69 70 70 69 67 67 64 58 50 43 39 37 35 34 33 35 40 45 48 68 50 53 78 60 52 30 46 30 15 10
46 47 56 71 77 80 78 78 79 81 76 72 72 74 76 75 72 67 60 54 49 45 41 41 40 36 39 39 38 39 45 49 62 59 62 59 54 33 54 26 12 11 14
45 43 45 52 61 69 72 75 77 78 78 78 78 75 70 63 58 56 56 54 50 49 45 44 45 40 40 41 43 44 48 53 55 57 62 48 34 55 22 10 13 17 19
44 45 48 49 55 64 72 77 80 80 76 69 66 67 69 68 65 62 58 55 52 48 45 48 47 50 50 44 48 51 49 46 47 45 41 38 58 16 10 15 19 21 22
55 58 59 61 65 68 68 68 66 64 66 69 71 72 73 74 73 72 66 63 62 59 58 56 59 61 57 51 50 44 39 40 41 42 42 58 16 10 16 21 23 23 22
56 57 58 59 61 63 67 69 72 72 74 76 78 82 82 81 77 73 70 65 67 67 65 67 70 70 61 53 46 40 41 44 45 61 64 16 11 18 22 24 25 24 22
68 66 64 66 70 70 68 65 65 70 77 78 77 81 86 83 78 76 78 69 65 62 65 71 78 72 59 50 48 45 47 65 72 66 11 12 19 23 25 25 25 24 24
68 69 68 67 66 64 63 63 65 73 81 90 82 82 85 86 87 84 78 70 64 65 74 82 80 65 55 52 51 59 68 76 48 11 14 20 24 26 27 26 26 26 26
77 74 72 71 70 72 72 77 89 90 87 84 86 87 85 84 81 80 78 77 80 89 96 91 76 64 60 62 69 77 80 28 11 16 19 24 28 28 28 28 29 29 33
81 77 76 75 78 79 77 93 87 78 76 83 86 91 91 89 86 88 89 98 100 100 100 97 77 69 66 84 90 72 17 11 14 18 24 28 30 31 32 33 35 38 44
79 79 79 82 87 96 90 93 88 87 90 89 91 95 95 92 92 89 91 98 100 100 100 99 86 84 93 87 41 11 10 12 16 23 28 32 34 35 37 40 44 46 44
83 86 94 100 100 100 100 100 100 97 92 91 90 90 97 97 95 94 96 92 96 98 98 98 98 100 69 19 7 8 10 13 20 27 32 36 38 41 45 47 47 45 45
97 92 89 92 98 100 100 100 100 100 100 94 92 89 94 96 95 97 96 96 95 98 98 97 97 94 15 15 37 11 10 18 25 31 36 39 43 48 49 49 48 47 45
76 82 86 96 96 94 100 100 100 100 100 100 96 92 90 96 98 99 97 96 96 96 97 96 97 96 85 54 12 9 18 22 28 33 38 43 47 50 52 50 49 46 42
57 59 58 59 69 80 86 99 93 100 99 96 95 95 94 92 95 96 95 94 96 95 97 97 96 93 57 49 56 32 18 23 28 34 39 42 46 78 51 45 42 38 35
54 53 52 54 60 71 99 100 100 98 99 96 98 95 94 93 93 98 97 95 97 97 96 97 96 93 74 50 32 18 20 22 27 30 32 34 39 52 34 32 30 28 26
57 56 56 57 61 70 80 100 100 100 99 100 98 93 96 94 95 97 98 96 97 97 96 95 64 54 62 57 24 43 23 19 21 22 23 24 25 27 60 88 60 26 21
69 67 63 65 74 78 94 100 100 100 100 100 100 100 97 98 99 99 98 98 98 97 96 96 92 73 59 39 59 85 73 53 22 17 17 16 16 17 48 68 20 19 20
38 66 80 79 80 90 96 100 100 100 99 99 99 100 100 100 100 99 100 98 99 97 98 97 96 89 46 58 44 16 11 12 12 13 14 19 15 15 18 17 18 22 22
24 26 31 35 57 91 100 100 100 99 99 100 100 98 100 100 100 95 94 97 100 99 99 98 98 98 96 92 78 48 42 26 25 58 75 35 22 82 56 30 23 24 38
16 15 16 18 18 19 22 29 44 67 82 89 97 98 96 95 96 96 95 95 95 96 99 98 98 98 98 97 95 86 78 62 88 89 59 45 69 73 55 36 36 68 95
9 9 9 10 10 10 10 10 10 11 11 12 12 14 14 19 47 80 95 97 96 95 95 96 97 97 98 98 97 97 97 96 95 96 94 94 95 80 56 56 90 96 97
12 11 12 12 12 12 12 10 9 8 7 7 6 6 5 5 6 6 8 14 22 59 93 97 97 97 97 97 97 97 97 97 97 96 96 97 95 90 95 96 96 96 96

GFSGL_700_rhum_105.txt.gz
RH
58 49 45 42 50 58 72 78 78 74 70 81 91 78 90 90 89 83 83 76 76 68 62 61 60 58 56 52 43 37 35 33 31 38 62 73 71 86 93 51 92 63 53
60 52 42 58 66 76 73 84 80 85 81 95 89 77 66 83 82 77 72 69 71 72 68 64 62 58 51 47 42 38 37 38 36 43 58 98 67 65 95 70 81 60 36
59 50 59 70 70 70 81 89 94 94 93 83 95 81 73 71 71 77 78 76 74 70 68 65 62 56 48 42 40 37 40 43 41 49 62 68 59 98 91 94 64 55 35
57 56 58 61 66 75 90 96 96 97 95 99 90 80 76 73 71 70 71 72 72 70 66 60 55 49 45 43 44 41 40 46 48 54 56 70 90 92 78 83 64 37 50
63 55 56 58 61 73 86 94 94 88 86 83 80 77 76 74 74 74 73 69 64 59 55 52 51 50 48 45 44 46 43 44 53 52 56 64 99 68 72 65 42 51 37
71 54 46 47 52 58 80 87 82 83 81 79 75 71 73 75 73 68 61 58 57 55 53 51 49 48 47 51 52 49 50 46 49 55 60 71 72 68 69 47 46 34 12
48 48 49 46 43 50 59 66 74 73 71 71 70 72 69 62 60 60 59 58 57 56 56 56 57 56 54 50 55 58 58 53 53 53 54 59 63 63 48 54 35 11 14
50 49 46 45 47 50 56 70 72 72 68 62 61 64 65 64 63 62 64 65 63 60 58 58 60 64 64 62 58 65 62 59 56 52 52 56 55 48 57 28 10 15 19
51 55 57 58 58 58 64 65 61 60 62 66 68 66 64 65 64 60 63 69 66 66 62 64 65 64 65 70 72 74 65 57 53 49 50 51 51 67 29 11 16 21 23
63 58 55 56 57 58 59 62 66 66 65 64 66 63 56 61 72 74 78 78 75 71 66 60 60 62 67 76 81 75 62 54 52 53 52 61 74 29 10 17 22 24 24
65 63 64 65 66 66 67 68 67 65 65 61 60 67 71 70 72 75 80 80 75 71 71 63 68 78 84 87 81 68 59 56 57 58 83 80 30 11 18 22 24 24 24
76 70 70 70 70 70 71 71 72 67 60 66 77 73 69 75 77 85 86 81 79 78 79 81 87 100 100 87 73 66 62 65 81 87 69 16 13 18 22 24 25 25 26
80 76 76 74 76 75 75 80 81 77 77 75 70 67 73 77 82 88 87 84 80 83 85 94 100 100 99 84 77 75 81 95 96 44 12 13 18 22 25 26 27 28 29
90 86 87 82 80 81 87 93 91 88 84 92 78 71 74 79 82 85 85 87 82 85 85 93 96 97 97 94 97 100 100 78 26 10 12 17 24 25 28 29 31 34 38
88 86 83 82 83 88 98 99 95 86 89 97 94 80 82 85 82 80 83 87 86 87 88 93 97 96 97 97 96 86 43 14 9 11 14 20 26 29 32 35 39 46 48
92 91 91 91 91 97 98 97 90 100 100 100 98 74 86 91 86 82 81 84 87 89 90 96 97 96 96 96 95 74 9 7 10 13 17 23 35 47 37 41 49 51 51
89 90 89 89 88 96 98 100 100 77 82 92 94 90 84 93 92 87 85 87 90 90 95 97 97 96 97 96 64 18 26 50 31 41 31 27 33 36 42 49 55 75 83
64 64 61 58 57 57 58 62 87 91 82 100 100 97 94 87 95 91 90 88 92 92 95 95 99 97 96 96 94 86 89 61 37 25 27 49 38 43 45 55 72 94 80
53 52 52 51 53 55 57 60 72 76 100 100 100 100 100 96 87 95 95 91 91 94 94 95 97 99 99 96 88 58 45 39 22 23 28 30 35 39 43 53 80 88 53
58 60 60 59 58 58 61 64 72 76 85 100 100 99 100 97 87 80 83 95 94 95 96 96 97 97 97 96 95 76 53 74 76 52 37 27 31 34 37 40 56 53 64
48 43 42 59 67 65 66 75 82 93 100 100 100 96 95 100 98 88 81 85 94 95 96 97 98 97 97 75 68 90 88 38 30 27 18 20 22 23 24 25 25 25 40
46 38 30 30 40 66 78 85 95 97 97 95 94 98 95 94 93 91 92 95 94 92 98 97 98 98 97 97 89 85 52 39 86 90 90 67 38 21 18 16 24 35 26
25 22 20 19 20 25 34 43 70 89 92 94 93 93 95 95 95 96 98 98 94 93 92 98 99 98 99 98 97 96 85 82 93 53 37 37 40 34 23 26 28 16 34
18 16 13 12 12 12 14 15 16 18 20 24 26 30 31 31 40 51 57 68 87 95 96 95 97 99 98 98 98 98 97 97 95 85 61 40 26 21 57 70 34 46 85
15 12 10 10 10 11 11 10 10 9 9 9 8 8 8 8 8 8 8 10 13 19 48 84 97 98 98 97 97 97 98 97 97 97 96 95 94 94 94 94 96 95 92
26 24 24 23 22 20 20 20 19 19 19 18 17 15 14 12 10 8 7 6 5 5 5 5 8 14 37 86 99 97 96 96 96 96 97 98 100 98 98 97 97 96 96

GFSGL_700_rhum_111.txt.gz
RH
60 67 74 76 77 83 79 72 64 60 59 64 73 70 72 67 57 56 52 47 48 54 66 75 77 78 76 73 73 73 74 73 72 72 71 73 76 76 68 58 88 99 90
59 51 53 62 66 66 65 64 62 64 66 68 71 67 64 61 63 64 67 66 59 60 61 64 66 69 68 67 67 66 64 62 60 60 66 55 52 56 62 67 58 76 93
61 52 56 61 62 58 58 62 73 80 81 80 77 79 80 82 76 61 64 69 65 60 53 51 49 52 54 54 53 52 50 49 49 49 48 48 48 51 60 60 62 99 99
62 58 59 52 56 53 53 59 72 80 76 82 83 89 84 84 72 68 60 67 50 49 46 49 47 49 49 49 48 46 45 44 44 45 46 49 52 55 61 68 76 94 99
66 66 61 57 56 53 60 71 73 70 70 72 81 80 69 77 72 61 54 63 49 48 45 45 44 45 45 46 45 42 41 42 43 45 45 47 53 64 98 94 91 96 98
66 71 69 62 54 52 52 56 62 62 59 65 75 83 76 76 64 57 50 55 53 50 47 45 42 39 38 39 38 36 37 42 47 49 54 52 54 63 69 71 96 85 81
76 74 73 73 68 69 65 56 52 54 58 60 74 72 57 52 53 61 58 53 52 50 43 38 39 48 52 54 54 54 54 52 52 54 60 63 62 68 67 66 67 75 82
78 83 85 80 75 80 72 54 46 48 53 62 60 47 59 70 68 60 52 51 49 45 40 40 49 52 58 59 56 54 52 49 51 56 62 69 72 74 69 67 69 67 72
87 89 88 82 73 61 54 53 52 48 51 63 70 77 74 65 58 54 51 46 47 53 50 49 53 57 62 63 59 56 52 51 54 60 68 75 78 75 68 64 64 67 66
51 53 53 53 52 52 54 54 55 60 70 79 80 70 63 58 56 49 49 50 51 54 53 52 57 60 65 63 62 59 55 55 63 73 79 81 81 73 68 65 79 71 77
55 56 58 59 58 57 62 65 64 68 71 72 72 69 64 61 54 51 51 47 51 58 55 57 60 64 67 66 65 63 62 60 77 84 84 81 74 69 68 66 73 87 85
72 71 73 74 75 73 68 66 66 68 71 74 70 69 68 63 60 59 52 50 61 59 57 61 63 68 68 68 68 70 73 80 88 87 82 76 70 69 71 81 93 95 34
87 83 78 75 74 77 75 74 74 73 74 78 80 75 74 74 66 55 45 63 65 61 62 63 67 69 67 69 72 75 77 82 86 88 81 79 84 86 98 99 82 16 31
91 90 89 87 88 85 83 82 81 84 86 83 84 88 85 89 88 73 68 63 55 55 63 70 71 69 71 74 74 77 81 87 88 92 88 93 99 100 89 33 27 13 16
99 98 98 99 98 97 97 96 96 97 92 92 98 99 97 97 90 99 91 63 47 44 74 78 75 74 77 76 77 80 84 87 90 93 98 99 83 68 25 11 13 16 24
98 98 98 98 99 99 97 98 97 97 98 98 98 99 98 100 100 96 67 49 52 65 81 85 84 82 81 78 80 83 86 86 87 95 91 77 66 30 11 12 24 51 57
87 91 92 94 96 98 100 100 98 98 98 98 100 98 83 81 83 85 61 50 53 71 81 90 94 90 85 82 83 85 87 86 90 94 95 92 42 21 13 14 38 62 52
80 77 75 73 73 74 76 78 78 77 74 70 67 67 69 77 77 100 85 66 70 83 89 86 94 96 90 86 86 87 88 88 92 84 74 58 27 11 17 29 33 22 52
76 60 61 64 65 64 63 62 61 60 60 61 63 64 68 71 84 100 89 92 91 88 92 91 83 75 83 89 90 90 90 92 93 94 62 40 49 49 50 59 58 28 39
74 68 65 62 59 55 52 50 47 46 53 64 69 77 83 84 95 100 90 100 97 94 95 99 88 82 87 94 91 91 92 95 94 95 93 92 88 81 72 51 43 38 74
77 66 62 64 62 59 55 49 42 34 34 64 78 92 98 100 100 100 100 99 97 96 96 96 93 91 96 94 92 93 93 95 96 91 94 86 63 47 52 42 35 34 88
86 82 75 68 61 55 43 34 27 23 26 35 56 90 99 100 100 99 99 98 97 97 97 95 95 97 98 98 97 96 95 94 98 98 90 80 83 81 78 84 69 46 28
96 95 94 93 75 34 26 19 16 14 15 18 33 54 73 82 88 89 86 76 62 58 47 43 44 49 61 79 97 97 96 97 98 97 96 96 89 80 78 65 77 91 86
95 95 89 56 36 18 14 12 11 11 11 11 10 10 10 10 10 10 10 9 9 8 8 8 7 7 7 11 18 39 90 97 97 98 98 99 98 98 97 95 92 95 95
95 95 95 86 66 58 55 56 46 35 30 28 25 24 23 24 24 25 26 28 29 30 30 28 24 20 15 10 7 6 6 9 39 86 95 96 95 97 98 97 96 96 96
95 95 95 94 95 94 90 84 85 83 74 59 57 55 54 53 52 51 51 50 50 50 49 47 45 44 42 41 38 36 31 22 12 7 9 16 50 90 98 97 98 96 96

GFSGL_700_rhum_114.txt.gz
RH
96 93 93 86 83 84 94 95 88 83 87 85 83 80 85 86 81 80 74 66 58 52 49 42 44 47 49 45 53 59 67 66 60 59 58 59 57 56 71 72 65 71 83
73 63 73 82 86 89 88 91 93 88 80 76 87 92 91 86 83 75 67 68 66 55 48 47 43 45 45 46 45 48 46 44 42 46 45 44 45 47 50 50 53 68 80
76 66 67 72 75 77 83 85 82 82 80 88 92 91 88 80 75 77 73 63 63 57 54 47 43 48 47 45 46 47 43 39 40 38 38 40 40 44 47 48 48 55 79
78 69 64 62 65 72 75 76 75 75 85 90 94 88 84 84 82 81 82 76 73 60 49 43 40 43 42 43 42 41 43 40 35 34 32 34 38 42 46 50 59 73 92
73 69 67 65 61 61 64 67 68 81 99 100 93 87 85 87 88 82 77 79 69 58 48 43 38 42 43 38 37 33 36 33 31 32 35 36 38 41 53 54 84 99 100
74 72 70 70 64 62 60 67 73 82 89 92 92 88 82 84 86 78 79 70 62 56 50 40 40 38 35 35 44 40 45 43 38 45 50 50 50 52 57 62 71 88 99
73 75 84 83 69 66 68 70 71 76 79 76 73 73 80 86 87 84 74 62 55 49 42 39 38 36 38 41 43 47 50 48 50 51 48 49 53 59 63 66 69 73 76
83 84 99 94 83 80 80 81 79 75 64 60 61 64 78 90 88 74 63 62 52 45 44 38 41 44 52 50 49 50 51 51 49 48 46 49 53 59 67 72 74 74 73
75 84 92 96 96 97 88 84 86 78 62 56 60 62 68 71 68 66 64 55 49 46 42 44 48 52 55 57 57 57 55 54 50 50 48 50 55 64 71 78 80 76 70
67 77 85 88 89 90 83 74 62 61 61 58 60 66 72 74 72 63 57 54 46 47 47 45 52 58 56 55 63 60 60 59 54 52 52 55 65 75 79 82 81 74 71
52 57 59 61 61 62 61 60 61 63 64 69 75 76 74 68 66 64 58 55 53 53 51 50 55 54 56 62 60 62 62 59 58 59 58 65 77 82 83 80 76 74 74
65 63 68 67 68 72 74 80 83 84 83 78 72 71 73 71 69 69 66 61 62 56 55 57 59 58 60 64 65 62 60 61 64 68 67 76 84 83 78 74 76 79 78
94 91 93 90 87 87 86 82 79 82 83 83 80 79 79 77 81 85 80 74 64 54 67 61 60 59 66 68 68 66 63 65 71 73 75 82 87 86 80 77 82 96 100
98 100 99 95 91 88 87 90 90 91 90 92 90 89 89 89 90 89 88 84 83 62 61 40 36 44 70 71 70 68 68 71 76 78 82 88 91 87 86 89 99 96 77
99 98 98 97 98 99 100 100 99 96 94 95 97 96 95 98 92 86 86 87 82 70 45 38 37 54 74 78 74 71 72 77 77 81 84 90 95 97 95 92 84 37 26
99 99 98 99 100 99 98 98 99 99 98 99 100 97 96 97 100 86 96 86 81 60 48 42 53 70 82 81 78 78 79 78 80 84 87 92 92 81 68 68 45 12 12
85 90 92 94 94 97 98 99 100 96 98 97 97 97 97 99 100 100 98 72 72 62 57 60 70 78 76 76 84 87 85 81 84 86 88 92 92 89 80 21 16 12 13
92 87 86 88 86 83 80 77 78 80 88 90 90 90 86 81 77 71 66 70 71 73 77 77 75 76 76 71 72 86 88 86 86 91 93 88 85 78 38 24 28 14 19
95 96 96 88 79 70 67 66 66 65 65 64 62 62 61 62 64 67 71 74 78 83 90 80 88 84 83 78 69 67 82 89 88 92 94 94 72 46 42 20 14 17 24
94 95 95 94 94 87 64 56 54 53 52 50 48 46 51 65 72 78 82 84 84 94 90 92 96 89 86 87 82 79 81 91 90 93 95 94 94 91 66 58 65 66 66
86 91 94 96 94 92 90 93 92 65 54 48 42 35 38 64 82 92 96 100 96 96 97 97 94 95 95 94 92 93 91 90 92 95 96 95 91 90 76 75 76 80 65
89 90 95 96 95 94 94 83 58 67 89 50 26 25 36 59 96 98 98 97 98 96 96 97 96 96 98 97 97 96 94 93 95 96 96 96 97 90 88 85 67 60 69
88 91 95 97 96 95 95 95 90 51 23 32 23 15 31 68 82 94 97 96 94 95 92 78 63 57 50 47 53 50 58 85 94 94 96 97 98 99 98 86 79 81 80
83 90 93 94 96 95 85 83 61 23 14 13 13 12 11 11 12 12 13 12 11 10 9 9 8 8 7 7 7 7 9 17 31 65 89 93 94 97 98 98 98 97 93
83 88 93 98 100 98 96 90 80 72 66 61 54 46 38 32 28 26 27 28 30 32 34 35 36 36 35 34 32 29 24 18 11 8 7 14 46 83 96 98 99 97 97
88 93 97 99 99 97 97 97 96 96 96 95 95 94 85 72 68 66 64 62 59 57 55 52 50 49 47 46 44 43 41 40 38 36 34 30 22 13 9 17 49 78 97

GFSGL_700_rhum_117.txt.gz
RH
98 100 100 94 80 72 75 91 100 100 99 98 99 98 98 93 94 96 91 79 70 64 58 54 53 48 42 42 40 41 39 37 34 35 38 42 40 40 39 40 44 51 60
99 96 97 96 86 79 75 87 91 93 99 100 95 95 89 91 96 94 84 79 75 67 63 57 55 49 44 44 39 35 38 38 38 38 36 35 37 38 38 39 42 46 49
96 87 86 86 83 81 82 79 84 77 84 92 89 90 96 89 93 87 85 81 68 60 58 56 51 46 39 36 38 41 37 37 37 36 33 34 32 32 32 33 38 42 49
96 96 91 85 87 86 89 92 91 94 97 90 87 90 94 95 93 89 83 73 70 63 63 58 51 46 44 42 41 38 36 33 32 32 32 32 34 35 36 32 36 40 48
98 89 73 67 65 73 80 83 90 96 91 84 94 99 98 96 92 86 87 88 82 73 72 61 53 49 50 43 42 39 32 30 32 34 37 36 41 46 49 49 42 42 50
87 78 77 72 68 63 62 66 73 78 82 90 95 92 98 95 93 91 91 89 78 82 77 65 57 51 44 40 38 34 31 31 35 44 45 49 48 49 50 53 54 53 56
95 86 75 76 79 67 62 64 68 75 88 98 100 99 100 98 97 95 94 93 90 80 69 59 52 43 40 37 37 35 32 33 38 40 45 49 47 47 51 54 53 60 66
85 89 94 97 93 74 69 68 65 73 85 89 89 88 87 89 94 98 100 98 92 77 62 56 48 41 39 41 40 38 41 44 47 47 47 47 45 47 50 54 56 64 74
78 89 96 100 93 93 86 84 80 80 77 79 78 72 69 74 83 96 93 86 74 67 60 52 46 45 45 42 42 45 46 45 49 50 48 48 51 52 54 58 70 78 83
88 88 88 89 90 95 95 99 100 95 90 92 88 76 68 75 80 81 78 69 70 60 54 49 47 47 47 43 44 49 50 49 51 51 54 52 56 57 63 70 79 90 91
53 59 70 80 89 92 98 99 98 93 83 73 69 69 70 72 76 78 78 70 66 63 54 51 54 52 48 43 50 52 52 53 56 56 57 56 60 65 73 78 84 92 89
64 62 60 62 62 63 64 66 65 66 68 68 71 76 80 84 86 82 74 74 67 60 60 63 60 54 48 52 55 54 54 56 64 64 63 62 68 73 77 80 87 89 91
96 90 86 85 80 73 70 72 75 79 84 84 86 89 87 82 80 78 78 71 73 72 66 63 60 50 49 52 51 53 50 57 65 70 67 68 78 81 76 80 86 90 91
98 97 98 99 97 96 97 94 90 86 85 84 84 80 79 80 82 82 79 81 81 78 76 68 56 59 40 32 32 47 62 57 68 75 75 76 81 81 82 86 91 91 96
90 97 98 97 98 96 96 97 97 94 92 90 91 91 85 89 92 87 89 93 92 92 82 66 63 50 42 37 42 54 63 73 78 80 80 77 78 79 82 90 95 95 95
76 80 83 90 92 93 95 97 98 98 98 98 98 98 98 98 98 97 97 98 99 95 93 84 55 54 47 47 48 61 79 83 85 85 81 78 77 79 83 85 72 59 64
82 84 86 89 87 85 86 91 94 94 96 97 97 97 97 98 98 98 98 98 98 99 99 97 61 58 62 60 67 78 79 83 88 87 82 81 79 81 85 86 83 72 45
83 87 83 84 90 98 94 88 87 85 83 84 92 96 97 98 97 97 97 95 95 95 83 72 64 68 82 81 80 81 77 68 67 80 87 85 84 84 82 79 70 47 20
75 77 77 81 86 85 94 98 90 77 68 68 69 70 75 81 84 85 84 80 81 74 73 73 74 82 95 91 90 86 81 75 70 74 90 90 90 89 87 65 59 38 24
78 81 78 82 86 96 96 96 96 95 82 74 62 54 52 51 49 45 48 59 70 75 80 88 88 90 100 94 94 92 90 83 81 80 90 95 96 94 91 90 74 49 39
74 78 81 84 87 89 97 99 96 95 96 96 95 79 58 50 41 38 41 58 78 93 99 100 100 100 100 100 94 95 94 90 89 92 94 97 100 98 95 91 87 87 80
69 71 75 78 81 88 92 95 96 97 97 96 94 94 94 94 61 36 42 81 100 100 100 99 98 99 99 98 100 98 97 95 94 98 98 100 100 99 99 99 94 91 70
66 68 71 73 75 78 84 92 98 99 98 98 95 58 21 38 67 32 62 85 100 100 99 100 99 100 98 96 90 90 85 73 70 67 72 99 100 98 98 98 98 96 90
68 67 68 72 76 80 81 88 90 90 85 89 95 76 28 14 18 31 19 33 63 71 68 51 34 22 15 11 9 9 9 8 8 11 25 42 72 94 100 98 98 97 97
75 76 76 78 83 88 92 95 95 97 100 99 90 76 44 33 23 19 16 14 13 13 14 15 17 19 22 26 27 28 29 28 26 23 17 12 9 10 15 37 73 97 100
79 81 80 82 89 93 95 78 62 88 95 98 98 96 96 90 78 73 72 71 67 64 62 59 57 55 53 51 50 48 46 44 42 40 39 37 35 32 30 26 20 14 13

GFSGL_700_rhum_120.txt.gz
RH
98 100 100 100 97 99 100 99 86 90 78 70 74 60 73 82 91 84 86 97 80 97 80 70 62 48 48 45 39 36 33 37 40 43 41 38 38 37 38 38 37 37 38
100 100 98 98 100 98 97 98 98 99 92 90 84 95 91 88 94 85 83 99 91 96 79 70 55 51 47 46 40 38 30 34 38 33 33 32 34 35 34 34 34 32 33
100 100 99 98 82 88 84 77 87 99 99 99 100 100 100 98 99 100 100 99 98 84 77 64 54 58 54 49 42 34 33 34 32 29 29 31 29 29 29 30 29 28 31
92 98 96 92 92 88 90 86 84 93 90 82 95 99 100 100 94 95 100 97 88 83 77 67 65 65 61 47 41 38 36 34 33 30 28 30 33 33 32 36 39 36 43
98 96 96 100 100 97 93 90 89 91 92 92 93 91 97 88 89 91 96 90 89 85 77 80 78 72 60 46 42 39 34 34 32 31 32 31 34 33 35 39 42 42 46
83 89 79 78 78 85 91 100 100 100 100 100 99 100 93 92 86 91 93 92 91 87 92 90 75 78 66 51 47 38 35 33 35 36 35 39 42 42 40 38 40 41 43
99 88 78 72 72 68 65 72 85 94 99 99 100 98 97 99 100 99 98 96 94 97 96 91 83 75 58 54 46 40 37 39 39 37 44 42 40 39 44 42 42 44 46
80 88 95 92 85 86 76 69 71 77 83 88 96 98 99 98 94 99 99 99 100 99 98 94 84 72 60 51 43 40 42 42 40 40 46 47 42 38 36 39 42 46 49
98 96 94 89 92 98 90 81 74 75 82 91 96 96 97 99 99 98 98 98 99 96 92 86 81 66 58 49 43 45 43 41 41 43 47 48 49 49 46 43 43 45 49
77 88 97 100 100 100 99 93 92 88 86 87 87 84 82 83 80 80 81 78 81 85 89 87 74 63 55 49 46 46 45 42 44 50 50 49 49 52 55 50 53 53 57
56 70 81 87 94 98 100 100 100 100 100 99 100 100 100 99 95 87 81 84 88 94 87 81 69 61 56 52 54 50 47 45 48 51 52 51 49 56 54 58 58 60 65
58 55 52 52 56 63 71 81 96 99 99 99 100 95 88 78 78 81 87 97 97 91 83 76 71 67 64 60 59 54 47 42 47 53 53 46 57 61 61 61 66 65 71
52 64 75 76 74 70 68 66 67 69 71 73 72 71 76 82 89 100 99 94 93 91 86 80 74 72 65 64 59 49 46 44 41 44 43 44 59 62 68 68 74 75 74
48 56 66 63 71 79 88 93 91 86 85 88 93 98 99 100 99 100 100 100 99 96 88 85 80 75 74 64 61 53 37 34 35 46 53 59 63 70 73 69 73 79 82
65 71 79 71 82 94 89 96 94 92 96 98 100 100 100 100 100 100 100 100 100 100 98 92 86 84 80 72 51 43 38 37 41 53 64 74 77 75 71 68 74 82 90
72 74 72 70 70 74 79 86 96 97 96 97 98 99 99 99 100 98 99 98 99 99 96 98 96 96 88 80 63 49 44 43 50 52 75 85 85 77 73 74 76 85 84
65 65 68 74 79 78 78 83 90 91 90 88 96 97 96 96 97 98 98 98 98 98 98 99 100 97 89 84 69 64 60 56 64 64 69 83 88 84 80 80 84 85 86
56 67 75 77 75 74 73 75 83 86 96 98 94 90 96 97 96 96 97 97 97 97 97 97 97 98 97 82 71 68 77 74 73 73 73 70 72 85 84 86 86 81 78
54 61 71 81 90 91 86 86 89 95 96 99 98 96 91 90 91 90 96 96 96 96 96 96 97 81 82 83 74 70 84 93 91 86 83 80 80 83 88 91 92 81 64
61 69 72 74 76 78 79 86 89 88 91 95 97 96 96 94 94 94 84 58 78 91 93 95 96 93 95 92 88 95 99 100 99 93 92 92 90 88 94 97 97 94 85
61 63 64 64 66 71 74 79 85 88 94 95 92 91 96 96 96 96 96 94 92 84 78 89 95 97 96 95 95 96 97 100 98 96 100 100 97 95 95 97 98 97 95
61 61 63 65 66 67 69 70 72 76 86 93 94 96 94 94 95 96 96 96 96 96 94 97 97 96 96 96 96 96 97 98 98 99 100 99 99 98 97 97 97 97 96
64 70 70 68 69 70 72 72 76 77 80 85 89 89 92 96 95 68 59 92 96 96 96 96 97 97 96 96 96 96 97 97 98 98 98 96 96 92 86 96 97 98 98
74 72 73 75 74 73 74 80 84 86 88 89 92 95 97 92 94 95 90 52 66 85 93 96 96 96 96 96 95 85 59 32 14 11 12 10 11 26 42 73 97 99 99
76 78 77 78 79 70 69 74 77 88 73 64 81 91 98 100 98 95 92 45 20 18 30 18 18 19 16 15 14 15 17 21 23 24 23 22 20 16 12 11 12 19 41
79 82 84 86 78 60 56 52 44 45 82 77 57 54 86 96 99 98 97 96 86 68 59 54 55 68 74 56 53 52 50 48 46 45 43 41 40 38 36 36 34 32 29

GFSGL_700_rhum_123.txt.gz
RH
95 92 99 100 99 100 98 96 98 83 58 59 45 45 44 45 47 50 68 84 87 91 98 87 78 96 75 60 44 44 38 34 31 28 28 30 32 33 32 31 30 29 29
85 99 100 97 100 100 100 100 98 94 78 55 52 55 57 56 57 63 90 95 76 91 89 88 89 91 69 53 52 46 42 40 37 34 34 31 31 31 28 25 26 29 30
100 100 100 100 99 99 99 98 100 99 100 92 77 65 62 64 66 76 97 98 88 96 93 97 99 79 72 61 56 51 47 41 35 33 32 30 30 26 25 25 28 35 39
98 100 99 99 98 90 92 99 99 100 99 98 94 90 91 92 95 97 100 99 99 98 100 96 93 80 67 62 60 62 52 42 39 36 32 30 29 28 27 28 33 36 40
96 96 100 99 98 96 99 99 94 95 96 100 99 99 100 100 99 99 100 97 97 100 99 95 85 78 78 77 75 72 61 49 44 38 33 30 31 30 30 31 36 39 36
100 100 100 98 98 100 100 100 100 99 99 100 100 99 100 100 100 99 98 98 100 99 98 88 87 84 88 88 74 74 60 46 43 34 30 32 35 35 37 36 36 35 36
99 98 99 99 96 96 96 99 100 100 100 100 100 99 99 100 99 99 100 100 99 97 94 94 92 94 95 91 80 72 56 48 42 34 32 35 36 35 36 39 36 35 37
91 85 80 78 75 73 77 77 82 96 99 100 98 100 100 100 98 93 89 94 94 92 88 95 93 96 98 94 80 69 54 48 39 36 40 40 39 39 42 40 36 39 39
81 90 93 87 84 78 75 74 73 78 87 96 94 91 98 100 100 99 100 84 87 97 88 97 100 99 100 96 80 65 56 46 41 40 42 43 43 44 45 46 45 43 44
76 86 91 98 89 88 88 79 69 71 82 76 88 98 97 99 99 99 99 99 96 99 96 94 100 100 99 91 79 65 53 46 44 46 46 44 45 48 48 48 46 50 50
52 68 78 88 93 94 95 97 99 92 87 88 92 87 89 93 95 94 92 91 86 87 92 96 100 100 99 87 72 59 55 55 53 52 49 45 44 49 55 52 49 53 56
47 49 49 46 48 58 80 97 100 100 100 100 99 99 98 98 98 99 100 100 100 96 97 100 100 100 94 82 70 65 64 61 57 52 48 45 49 58 58 55 59 62 59
36 36 40 47 56 60 59 60 67 76 84 95 100 100 100 100 100 99 96 92 89 97 100 100 100 98 93 82 74 74 71 64 56 48 41 38 41 55 55 58 66 67 66
47 46 45 44 49 51 50 64 76 83 87 89 87 88 88 91 92 97 99 100 100 100 100 100 100 100 96 87 84 84 81 64 50 44 40 40 40 56 60 68 69 74 70
37 41 42 46 49 51 54 72 87 93 95 98 99 100 98 98 100 100 100 100 100 100 100 99 99 100 100 94 90 94 91 81 56 46 43 53 60 53 77 78 78 74 73
26 24 32 39 41 45 54 62 66 68 73 80 94 95 93 95 97 97 97 98 98 98 98 99 100 100 99 97 97 98 96 91 73 57 55 53 69 59 75 80 83 80 78
22 29 32 34 33 37 43 47 52 68 74 78 81 87 95 94 96 96 96 96 96 97 96 97 98 98 98 98 97 97 98 94 83 70 64 66 60 64 64 67 75 82 80
23 24 29 31 35 39 42 46 50 60 68 80 86 91 91 91 94 92 96 96 95 96 96 97 97 97 97 97 98 98 100 92 84 76 79 76 78 70 64 60 61 71 78
25 30 33 40 50 58 64 65 65 66 65 65 69 82 88 93 94 98 96 95 95 95 96 96 96 97 96 97 96 97 99 91 77 72 82 97 89 84 74 66 66 67 85
14 20 31 44 49 51 52 54 56 59 62 66 73 75 80 88 93 96 100 96 95 95 95 95 96 97 96 97 97 96 95 88 87 88 93 98 98 91 85 79 77 83 96
22 29 40 45 45 47 51 53 55 58 58 60 61 66 69 73 84 90 93 98 96 97 96 95 95 96 96 96 96 96 96 95 96 96 97 100 98 94 95 92 92 94 100
30 37 46 54 58 60 62 62 61 60 59 58 62 65 65 67 72 81 84 87 97 97 96 96 95 95 95 96 96 96 96 96 96 96 96 96 96 97 95 94 94 94 96
46 59 69 71 72 74 74 73 70 65 67 68 68 71 74 76 77 81 83 85 89 89 96 96 96 96 96 96 96 95 96 96 96 96 96 96 95 95 95 95 95 96 96
59 76 82 77 80 81 82 82 62 60 58 67 73 72 71 72 75 82 90 93 91 91 82 93 95 96 96 96 96 96 96 96 96 96 95 93 72 34 38 52 46 77 96
71 85 84 81 86 89 91 88 67 54 47 40 54 77 72 54 45 72 92 95 95 99 90 52 46 93 95 94 90 87 73 45 24 16 14 13 13 13 12 11 11 20 48
76 87 79 81 88 91 94 88 65 47 28 23 24 25 41 53 46 35 51 91 96 98 100 95 74 38 58 89 46 33 32 32 35 39 40 39 40 39 38 36 34 32 29